[[{"header":{"parameterUnit":"m.s-1","parameterCategory":1,"la1":31.0,"la2":29.5877,"lo1":-88.7671,"lo2":-86.6584,"dy":0.0162,"dx":0.0185,"nx":115,"ny":88,"refTime":"2024-02-20T06:00:00:Z","depth":0,"parameterNumber":2,"parameterNumberName":"U-component_of_WINDS"},"data":[0.0,0.0,0.0,0.0,0.0,0.0,0.0,0.0,0.0,0.0,0.0,0.0,0.0,0.0,0.0,0.0,0.0,0.0,0.0,0.0,0.0,0.0,0.0,0.0,0.0,0.0,0.0,0.0,0.0,0.0,0.0,0.0,0.0,0.0,0.0,0.0,0.0,0.0,0.0,0.0,0.0,0.0,0.0,0.0,0.0,0.0,0.0,0.0,0.0,0.0,0.0,0.0,0.0,0.0,0.0,0.0,0.0,0.0,0.0,0.0,0.0,0.0,0.0,0.0,0.0,0.0,0.0,0.0,0.0,0.0,0.0,0.0,0.0,0.0,0.0,0.0,0.0,0.0,0.0,0.0,0.0,0.0,0.0,0.0,0.0,0.0,0.0,0.0,0.0,0.0,0.0,0.0,0.0,0.0,0.0,0.0,0.0,0.0,0.0,0.0,0.0,0.0,0.0,0.0,0.0,0.0,0.0,0.0,0.0,0.0,0.0,0.0,0.0,0.0,0.0,0.0,0.0,0.0,0.0,0.0,0.0,0.0,0.0,0.0,0.0,0.0,0.0,0.0,0.0,0.0,0.0,0.0,0.0,0.0,0.0,0.0,0.0,0.0,0.0,0.0,0.0,0.0,0.0,0.0,0.0,0.0,0.0,0.0,0.0,0.0,0.0,0.0,0.0,0.0,0.0,0.0,0.0,0.0,0.0,0.0,0.0,0.0,0.0,0.0,0.0,0.0,0.0,0.0,0.0,0.0,0.0,0.0,0.0,0.0,0.0,0.0,0.0,0.0,0.0,0.0,0.0,0.0,0.0,0.0,0.0,0.0,0.0,0.0,0.0,0.0,0.0,0.0,0.0,0.0,0.0,0.0,0.0,0.0,0.0,0.0,0.0,0.0,0.0,0.0,0.0,0.0,0.0,0.0,0.0,0.0,0.0,0.0,0.0,0.0,0.0,0.0,0.0,0.0,0.0,0.0,0.0,0.0,0.0,0.0,0.0,0.0,0.0,0.0,0.0,0.0,0.0,0.0,0.0,0.0,0.0,0.0,0.0,0.0,0.0,0.0,0.0,0.0,0.0,0.0,0.0,0.0,0.0,0.0,0.0,0.0,0.0,0.0,0.0,0.0,0.0,0.0,0.0,0.0,0.0,0.0,0.0,0.0,0.0,0.0,0.0,0.0,0.0,0.0,0.0,0.0,0.0,0.0,0.0,0.0,0.0,0.0,0.0,0.0,0.0,0.0,0.0,0.0,0.0,0.0,0.0,0.0,0.0,0.0,0.0,0.0,0.0,0.0,0.0,0.0,0.0,0.0,0.0,0.0,0.0,0.0,0.0,0.0,0.0,0.0,0.0,0.0,0.0,0.0,0.0,0.0,0.0,0.0,0.0,0.0,0.0,0.0,0.0,0.0,0.0,0.0,0.0,0.0,0.0,0.0,0.0,0.0,0.0,0.0,0.0,0.0,0.0,0.0,0.0,0.0,0.0,0.0,0.0,0.0,0.0,0.0,0.0,0.0,0.0,0.0,0.0,0.0,0.0,0.0,0.0,0.0,0.0,0.0,0.0,0.0,0.0,0.0,0.0,0.0,0.0,0.0,0.0,0.0,0.0,0.0,0.0,0.0,0.0,0.0,0.0,0.0,0.0,0.0,0.0,0.0,0.0,0.0,0.0,0.0,0.0,0.0,0.0,0.0,0.0,0.0,0.0,0.0,0.0,0.0,0.0,0.0,0.0,0.0,0.0,0.0,0.0,0.0,0.0,0.0,0.0,0.0,0.0,0.0,0.0,0.0,0.0,0.0,0.0,0.0,0.0,0.0,0.0,0.0,0.0,0.0,0.0,0.0,0.0,0.0,0.0,0.0,0.0,0.0,0.0,0.0,0.0,0.0,0.0,0.0,0.0,0.0,0.0,0.0,0.0,0.0,0.0,0.0,0.0,0.0,0.0,0.0,0.0,0.0,0.0,0.0,0.0,0.0,0.0,0.0,0.0,0.0,0.0,0.0,0.0,0.0,0.0,0.0,0.0,0.0,0.0,0.0,0.0,0.0,0.0,0.0,0.0,0.0,0.0,0.0,0.0,0.0,0.0,0.0,0.0,0.0,0.0,0.0,0.0,0.0,0.0,0.0,0.0,0.0,0.0,0.0,0.0,0.0,0.0,0.0,0.0,0.0,0.0,0.0,0.0,0.0,0.0,0.0,0.0,0.0,0.0,0.0,0.0,0.0,0.0,0.0,0.0,0.0,0.0,0.0,0.0,0.0,0.0,0.0,0.0,0.0,0.0,0.0,0.0,0.0,0.0,0.0,0.0,0.0,0.0,0.0,0.0,0.0,0.0,0.0,0.0,0.0,0.0,0.0,0.0,0.0,0.0,0.0,0.0,0.0,0.0,0.0,0.0,0.0,0.0,0.0,0.0,0.0,0.0,0.0,0.0,0.0,0.0,0.0,0.0,0.0,0.0,0.0,0.0,0.0,0.0,0.0,0.0,0.0,0.0,0.0,0.0,0.0,0.0,0.0,0.0,0.0,0.0,0.0,0.0,0.0,0.0,0.0,0.0,0.0,0.0,0.0,0.0,0.0,0.0,0.0,0.0,0.0,0.0,0.0,0.0,0.0,0.0,0.0,0.0,0.0,0.0,0.0,0.0,0.0,0.0,0.0,0.0,0.0,0.0,0.0,0.0,0.0,0.0,0.0,0.0,0.0,0.0,0.0,0.0,0.0,0.0,0.0,0.0,0.0,0.0,0.0,0.0,0.0,0.0,0.0,0.0,0.0,0.0,0.0,0.0,0.0,0.0,0.0,0.0,0.0,0.0,0.0,0.0,0.0,0.0,0.0,0.0,0.0,0.0,0.0,0.0,0.0,0.0,0.0,0.0,0.0,0.0,0.0,0.0,0.0,0.0,0.0,0.0,0.0,0.0,0.0,0.0,0.0,0.0,0.0,0.0,0.0,0.0,0.0,0.0,0.0,0.0,0.0,0.0,0.0,0.0,0.0,0.0,0.0,0.0,0.0,0.0,0.0,0.0,0.0,0.0,0.0,0.0,0.0,0.0,0.0,0.0,0.0,0.0,0.0,0.0,0.0,0.0,0.0,0.0,0.0,0.0,0.0,0.0,0.0,0.0,0.0,0.0,0.0,0.0,0.0,0.0,0.0,0.0,0.0,0.0,0.0,0.0,0.0,0.0,0.0,0.0,0.0,0.0,0.0,0.0,0.0,0.0,0.0,0.0,0.0,0.0,0.0,0.0,0.0,0.0,0.0,0.0,0.0,0.0,0.0,0.0,0.0,0.0,0.0,0.0,0.0,0.0,0.0,0.0,0.0,0.0,0.0,0.0,0.0,0.0,0.0,0.0,0.0,0.0,0.0,0.0,0.0,0.0,0.0,0.0,0.0,0.0,0.0,0.0,0.0,0.0,0.0,0.0,0.0,0.0,0.0,0.0,0.0,0.0,0.0,0.0,0.0,0.0,0.0,0.0,0.0,0.0,0.0,0.0,0.0,0.0,0.0,0.0,0.0,0.0,0.0,0.0,0.0,0.0,0.0,0.0,0.0,0.0,0.0,0.0,0.0,0.0,0.0,0.0,0.0,0.0,0.0,0.0,0.0,0.0,0.0,0.0,0.0,0.0,0.0,0.0,0.0,0.0,0.0,0.0,0.0,0.0,0.0,0.0,0.0,0.0,0.0,0.0,0.0,0.0,0.0,0.0,0.0,0.0,0.0,0.0,0.0,0.0,0.0,0.0,0.0,0.0,0.0,0.0,0.0,0.0,0.0,0.0,0.0,0.0,0.0,0.0,0.0,0.0,0.0,0.0,0.0,0.0,0.0,0.0,0.0,0.0,0.0,0.0,0.0,0.0,0.0,0.0,0.0,0.0,0.0,0.0,0.0,0.0,0.0,0.0,0.0,0.0,0.0,0.0,0.0,0.0,0.0,0.0,0.0,0.0,0.0,0.0,0.0,0.0,0.0,0.0,0.0,0.0,0.0,0.0,0.0,0.0,0.0,0.0,0.0,0.0,0.0,0.0,0.0,0.0,0.0,0.0,0.0,0.0,0.0,0.0,0.0,0.0,0.0,0.0,0.0,0.0,0.0,0.0,0.0,0.0,0.0,0.0,0.0,0.0,0.0,0.0,0.0,0.0,0.0,0.0,0.0,0.0,0.0,0.0,0.0,0.0,0.0,0.0,0.0,0.0,0.0,0.0,0.0,0.0,0.0,0.0,0.0,0.0,0.0,0.0,0.0,0.0,0.0,0.0,0.0,0.0,0.0,0.0,0.0,1.1531,0.0,0.0,0.0,0.0,0.0,0.0,0.0,0.0,0.0,0.0,0.0,0.0,0.0,0.0,0.0,0.0,0.0,0.0,0.0,0.0,0.0,0.0,0.0,0.0,0.0,0.0,0.0,0.0,0.0,0.0,0.0,0.0,0.0,0.0,0.0,0.0,0.0,0.0,0.0,0.0,0.0,0.0,0.0,0.0,0.0,0.0,0.0,0.0,0.0,0.0,0.0,0.0,0.0,0.0,0.0,0.0,0.0,0.0,0.0,0.0,0.0,0.0,0.0,0.0,0.0,0.0,0.0,0.0,0.0,0.0,0.0,0.0,0.0,0.0,0.0,0.0,0.0,0.0,0.0,0.0,0.0,0.0,0.0,0.0,0.0,0.0,0.0,0.0,0.0,0.0,0.0,0.0,0.0,0.0,0.0,0.0,0.0,0.0,0.0,0.0,0.0,0.0,0.0,0.0,0.0,0.0,0.0,0.0,0.0,0.0,0.8861,0.9403,0.9625,1.026,1.1398,0.0,0.0,0.0,0.0,0.0,0.0,0.0,0.0,0.0,0.0,0.0,0.0,0.0,0.0,0.0,0.0,0.0,0.0,0.0,0.0,0.0,0.0,0.0,0.0,0.0,0.0,0.0,0.0,0.0,0.0,0.0,0.0,0.0,0.0,0.0,0.0,0.0,0.0,0.0,0.0,0.0,0.0,0.0,0.0,0.0,0.0,0.0,0.0,0.0,0.0,0.0,0.0,0.0,0.0,0.0,0.0,0.0,0.0,0.0,0.0,0.0,0.0,0.0,0.0,0.0,0.0,0.0,0.0,0.0,0.0,0.0,0.0,0.0,0.0,0.0,0.0,0.0,0.0,0.0,0.0,0.0,0.0,0.0,0.0,0.0,0.0,0.0,0.0,0.0,0.0,0.0,0.0,0.0,0.0,0.0,0.0,0.0,0.0,0.0,0.0,0.0,0.0,0.0,0.0,0.0,0.0,0.0,0.0,0.0,0.0,0.0,0.0,0.9515,1.0587,1.1532,0.0,0.0,0.0,0.0,0.0,0.0,0.0,0.0,0.0,0.0,0.0,0.0,0.0,0.0,0.0,0.0,0.0,0.0,0.0,0.0,0.0,0.0,0.0,0.0,0.0,0.0,0.0,0.0,0.0,0.0,0.0,0.0,0.0,0.0,0.0,0.0,0.0,0.0,0.0,0.0,0.0,0.0,0.0,0.0,0.0,0.0,0.0,0.0,0.0,0.0,0.0,0.0,0.0,0.0,0.0,0.0,0.0,0.0,0.0,0.0,0.0,0.0,0.0,0.0,0.0,0.0,0.0,0.0,0.0,0.0,0.0,0.0,0.0,0.0,0.0,0.0,0.0,0.0,0.0,0.0,0.0,0.0,0.0,0.0,0.0,0.0,0.0,0.0,0.0,0.0,0.0,0.0,0.0,0.0,0.0,0.0,0.0,0.0,0.0,0.0,0.0,0.0,0.0,0.0,0.0,0.0,0.0,0.0,0.0,0.0,0.8277,0.7998,0.9753,0.0,1.2486,0.0,0.0,0.0,0.0,0.0,0.0,0.0,0.0,0.0,0.0,0.0,0.0,0.0,0.0,0.0,0.0,0.0,0.0,0.0,0.0,0.0,0.0,0.0,0.0,0.0,0.0,0.0,0.0,0.0,0.0,0.0,0.0,0.0,0.0,0.0,0.0,0.0,0.0,0.0,0.0,0.0,0.0,0.0,0.0,0.0,0.0,0.0,0.0,0.0,0.0,0.0,0.0,0.0,0.0,0.0,0.0,0.0,0.0,0.0,0.0,0.0,0.0,0.0,0.0,0.0,0.0,0.0,0.0,0.0,0.0,0.0,0.0,0.0,0.0,0.0,0.0,0.0,0.0,0.0,0.0,0.0,0.0,0.0,0.0,0.0,0.0,0.0,0.0,0.0,0.0,0.0,0.0,0.0,0.0,0.0,0.0,0.0,0.0,0.0,0.0,0.0,0.0,0.0,0.0,0.0,0.0,0.0,0.0,0.0,0.0,0.8423,0.8594,1.0345,1.1227,0.0,0.0,0.0,0.0,0.0,0.0,0.0,0.0,0.0,0.0,0.0,0.0,0.0,0.0,0.0,0.0,0.0,0.0,0.0,0.0,0.0,0.0,0.0,0.0,0.0,0.0,0.0,0.0,0.0,0.0,0.0,0.0,0.0,0.0,0.0,0.0,0.0,0.0,0.0,0.0,0.0,0.0,0.0,0.0,0.0,0.0,0.0,0.0,0.0,0.0,0.0,0.0,0.0,0.0,0.0,0.0,0.0,0.0,0.0,0.0,0.0,0.0,0.0,0.0,0.0,0.0,0.0,0.0,0.0,0.0,0.0,0.0,0.0,0.0,0.0,0.0,0.0,0.0,0.0,0.0,0.0,0.0,0.0,0.0,0.0,0.0,0.0,0.0,0.0,0.0,0.0,0.0,0.0,0.0,0.0,0.0,0.0,0.0,0.0,0.0,0.0,0.0,0.0,0.0,0.0,0.0,0.0,0.0,0.0,0.0,0.8458,0.9053,0.9899,1.0396,1.0657,1.0672,0.0,0.0,0.0,0.0,0.0,0.0,0.0,0.0,0.0,0.0,0.0,0.0,0.0,0.0,0.0,0.0,0.0,0.0,0.0,0.0,0.0,0.0,0.0,0.0,0.0,0.0,0.0,0.0,0.0,0.0,0.0,0.0,0.0,0.0,0.0,0.0,0.0,0.0,0.0,0.0,0.0,0.0,0.0,0.0,0.0,0.0,0.0,0.0,0.0,0.0,0.0,0.0,0.0,0.0,0.0,0.0,0.0,0.0,0.0,0.0,0.0,0.0,0.0,0.0,0.0,0.0,0.0,0.0,0.0,0.0,0.0,0.0,0.0,0.0,0.0,0.0,0.0,0.0,0.0,0.0,0.0,0.0,0.0,0.0,0.0,0.0,0.0,0.0,0.0,0.0,0.0,0.0,0.0,0.0,0.0,0.0,0.0,0.0,0.0,0.0,0.0,0.0,0.0,0.0,0.0,0.0,0.0,0.0,0.9517,0.9483,1.0272,1.1854,0.9592,0.9663,0.0,0.0,0.0,0.0,0.0,0.0,0.0,0.0,0.0,0.0,0.0,0.0,0.0,0.0,0.0,0.0,0.0,0.0,0.0,0.0,0.0,0.0,0.0,0.0,0.0,0.0,0.0,0.0,0.0,0.0,0.0,0.0,0.0,0.0,0.0,0.0,0.0,0.0,0.0,0.0,0.0,0.0,0.0,0.0,0.0,0.0,0.0,0.0,0.0,0.0,0.0,0.0,0.0,0.0,0.0,0.0,0.0,0.0,0.0,0.0,0.0,0.0,0.0,0.0,0.0,0.0,0.0,0.0,0.0,0.0,0.0,0.0,0.0,0.0,0.0,0.0,0.0,0.0,0.0,0.0,0.0,0.0,0.0,0.0,0.0,0.0,0.0,0.0,0.0,0.0,0.0,0.0,0.0,0.0,0.0,0.0,0.0,0.0,0.0,0.0,0.0,0.0,0.0,0.0,0.0,0.0,0.0,0.0,0.0,0.8713,0.9253,0.9976,1.0801,1.0463,1.0546,0.0,0.0,0.0,0.0,0.0,0.0,0.0,0.0,0.0,0.0,0.0,0.0,0.0,0.0,0.0,0.0,0.0,0.0,0.0,0.0,0.0,0.0,0.0,0.0,0.0,0.0,0.0,0.0,0.0,0.0,0.0,0.0,0.0,0.0,0.0,0.0,0.0,0.0,0.0,0.0,0.0,0.0,0.0,0.0,0.0,0.0,0.0,0.0,0.0,0.0,0.0,0.0,0.0,0.0,0.0,0.0,0.0,0.0,0.0,0.0,0.0,0.0,0.0,0.0,0.0,0.0,0.0,0.0,0.0,0.0,0.0,0.0,0.0,0.0,0.0,0.0,0.0,0.0,0.0,0.0,0.0,0.0,0.0,0.0,0.0,0.0,0.0,0.0,0.0,0.0,0.0,0.0,0.0,0.0,0.0,0.0,0.0,0.0,0.0,0.0,0.0,0.0,0.0,0.0,0.0,0.0,0.0,0.0,0.0,0.8751,0.0,0.9975,1.0356,1.071,1.0765,0.0,0.0,0.0,0.0,0.0,0.0,0.0,0.0,0.0,0.0,0.0,0.0,0.0,0.0,0.0,0.0,0.0,0.0,0.0,0.0,0.0,0.0,0.0,0.0,0.0,0.0,0.0,0.0,0.0,0.0,0.0,0.0,0.0,0.0,0.0,0.0,0.0,0.0,0.0,0.0,0.0,0.0,0.0,0.0,0.0,0.0,0.0,0.0,0.0,0.0,0.0,0.0,0.0,0.0,0.0,0.0,0.0,0.0,0.0,0.0,0.0,0.0,0.0,0.0,0.0,0.0,0.0,0.0,0.0,0.0,0.0,0.0,0.0,0.0,0.0,0.0,0.0,0.0,0.0,0.0,0.0,0.0,0.0,0.0,0.0,0.0,0.0,0.0,0.0,0.0,0.0,0.0,0.0,0.0,0.0,0.0,0.0,0.0,0.0,0.0,0.0,0.0,0.0,0.0,0.0,0.0,0.0,0.0,0.9699,0.9946,1.0077,1.0382,1.0865,1.0178,1.0187,0.0,0.0,0.0,0.0,0.0,0.0,0.0,0.0,0.0,0.0,0.0,0.0,0.0,0.0,0.0,0.0,0.0,0.0,0.0,0.0,0.0,0.0,0.0,0.0,0.0,0.0,0.0,0.0,0.0,0.0,0.0,0.0,0.0,0.0,0.0,0.0,0.0,0.0,0.0,0.0,0.0,0.0,0.0,0.0,0.0,0.0,0.0,0.0,0.0,0.0,0.0,0.0,0.0,0.0,0.0,0.0,0.0,0.0,0.0,0.0,0.0,0.0,0.0,0.0,0.0,0.0,0.0,0.0,0.0,0.0,0.0,0.0,0.0,0.0,0.0,0.0,0.0,0.0,0.0,0.0,0.0,0.0,0.0,0.0,0.0,0.0,0.0,0.0,0.0,0.0,0.0,0.0,0.0,0.0,0.0,0.0,0.0,0.0,0.0,0.0,0.0,0.0,0.0,0.0,0.0,0.0,0.0,0.0,0.0,0.938,0.9591,1.031,1.1486,1.0445,1.0712,0.0,0.0,0.0,0.0,0.0,0.0,0.0,0.0,0.0,0.0,0.0,0.0,0.0,0.0,0.0,0.0,0.0,0.0,0.0,0.0,0.0,0.0,0.0,0.0,0.0,0.0,0.0,0.0,0.0,0.0,0.0,0.0,0.0,0.0,0.0,0.0,0.0,0.0,0.0,0.0,0.0,0.0,0.0,0.0,0.0,0.0,0.0,0.0,0.0,0.0,0.0,0.0,0.0,0.0,0.0,0.0,0.0,0.0,0.0,0.0,0.0,0.0,0.0,0.0,0.0,0.0,0.0,0.0,0.0,0.0,0.0,0.0,0.0,0.0,0.0,0.0,0.0,0.0,0.0,0.0,0.0,0.0,0.0,0.0,0.0,0.0,0.0,0.0,0.0,0.0,0.0,0.0,0.0,0.0,0.0,0.0,0.0,0.0,0.0,0.0,0.0,0.0,0.0,0.0,0.0,0.0,0.0,0.0,0.0,0.9753,0.9942,1.0542,1.1542,1.1273,1.1546,1.2428,0.0,0.0,0.0,0.0,0.0,0.0,0.0,0.0,0.0,0.0,0.0,0.0,0.0,0.0,0.0,0.0,0.0,0.0,0.0,0.0,0.0,0.0,0.0,0.0,0.0,0.0,0.0,0.0,0.0,0.0,0.0,0.0,0.0,0.0,0.0,0.0,0.0,0.0,0.0,0.0,0.0,0.0,0.0,0.0,0.0,0.0,0.0,0.0,0.0,0.0,0.0,0.0,0.0,0.0,0.0,0.0,0.0,0.0,0.0,0.0,0.0,0.0,0.0,0.0,0.0,0.0,0.0,0.0,0.0,0.0,0.0,0.0,0.0,0.0,0.0,0.0,0.0,0.0,0.0,0.0,0.0,0.0,0.0,0.0,0.0,0.0,0.0,0.0,0.0,0.0,0.0,0.0,0.0,0.0,0.0,0.0,0.0,0.0,0.0,0.0,0.0,0.0,0.0,0.0,0.0,0.0,0.0,0.0,1.093,1.1091,1.1186,1.1232,1.2437,1.2552,0.0,0.0,0.0,0.0,0.0,0.0,0.0,0.0,0.0,0.0,0.0,0.0,0.0,0.0,0.0,0.0,0.0,0.0,0.0,0.0,0.0,0.0,0.0,0.0,0.0,0.0,0.0,0.0,0.0,0.0,0.0,0.0,0.0,0.0,0.0,0.0,0.0,0.0,0.0,0.0,0.0,0.0,0.0,0.0,0.0,0.0,0.0,0.0,0.0,0.0,0.0,0.0,0.0,0.0,0.0,0.0,0.0,0.0,0.0,0.0,0.0,0.0,0.0,0.0,0.0,0.0,0.0,0.0,0.0,0.0,0.0,0.0,0.0,0.0,0.0,0.0,0.0,0.0,0.0,0.0,0.0,0.0,0.0,0.0,0.0,0.0,0.0,0.0,0.0,0.0,0.0,0.0,0.0,0.0,0.0,0.0,0.0,0.0,0.0,0.0,0.0,0.0,0.0,0.0,0.0,0.0,0.0,0.0,0.0,1.2742,1.3081,1.3178,1.3062,1.2678,1.2732,0.0,0.0,0.0,0.0,0.0,0.0,0.0,0.0,0.0,0.0,0.0,0.0,0.0,0.0,0.0,0.0,0.0,0.0,0.0,0.0,0.0,0.0,0.0,0.0,0.0,0.0,0.0,0.0,0.0,0.0,0.0,0.0,0.0,0.0,0.0,0.0,0.0,0.0,0.0,0.0,0.0,0.0,0.0,0.0,0.0,0.0,0.0,0.0,0.0,0.0,0.0,0.0,0.0,0.0,0.0,0.0,0.0,0.0,0.0,0.0,0.0,0.0,0.0,0.0,0.0,0.0,0.0,0.0,0.0,0.0,0.0,0.0,0.0,0.0,0.0,0.0,0.0,0.0,0.0,0.0,0.0,0.0,0.0,0.0,0.0,0.0,0.0,0.0,0.0,0.0,0.0,0.0,0.0,0.0,0.0,0.0,0.0,0.0,0.0,0.0,0.0,0.0,0.0,0.0,0.0,0.0,0.0,0.0,1.2361,1.3082,1.4054,1.4523,1.4434,1.4112,1.3847,0.0,0.0,0.0,0.0,0.0,0.0,0.0,0.0,0.0,0.0,0.0,0.0,0.0,0.0,0.0,0.0,0.0,0.0,0.0,0.0,0.0,0.0,0.0,0.0,0.0,0.0,0.0,0.0,0.0,0.0,0.0,0.0,0.0,0.0,0.0,0.0,0.0,0.0,0.0,0.0,0.0,0.0,0.0,0.0,0.0,0.0,0.0,0.0,0.0,0.0,0.0,0.0,0.0,0.0,0.0,0.0,0.0,0.0,0.0,0.0,0.0,0.0,0.0,0.0,0.0,0.0,0.0,0.0,0.0,0.0,0.0,0.0,0.0,0.0,0.0,0.0,0.0,0.0,0.0,0.0,0.0,0.0,0.0,0.0,0.0,0.0,0.0,0.0,0.0,0.0,0.0,0.0,0.0,0.0,0.0,0.0,0.0,0.0,0.0,0.0,0.0,0.0,0.0,0.0,0.0,0.0,0.0,0.0,1.2882,1.2676,1.4452,1.5354,1.5313,1.5785,1.5166,0.0,0.0,0.0,0.0,0.0,0.0,0.0,0.0,0.0,0.0,0.0,0.0,0.0,0.0,0.0,0.0,0.0,0.0,0.0,0.0,0.0,0.0,0.0,0.0,0.0,0.0,0.0,0.0,0.0,0.0,0.0,0.0,0.0,0.0,0.0,0.0,0.0,0.0,0.0,0.0,0.0,0.0,0.0,0.0,0.0,0.0,0.0,0.0,0.0,0.0,0.0,0.0,0.0,0.0,0.0,0.0,0.0,0.0,0.0,0.0,0.0,0.0,0.0,0.0,0.0,0.0,0.0,0.0,0.0,0.0,0.0,0.0,0.0,0.0,0.0,0.0,0.0,0.0,0.0,0.0,0.0,0.0,0.0,0.0,0.0,0.0,0.0,0.0,0.0,0.0,0.0,0.0,0.0,0.0,0.0,0.0,0.0,0.0,0.0,0.0,0.0,0.0,0.0,0.0,0.0,0.0,0.0,0.0,1.3167,1.3612,1.4798,1.5349,1.5299,1.4665,1.4229,0.0,0.0,0.0,0.0,0.0,0.0,0.0,0.0,0.0,0.0,0.0,0.0,0.0,0.0,0.0,0.0,0.0,0.0,0.0,0.0,0.0,0.0,0.0,0.0,0.0,0.0,0.0,0.0,0.0,0.0,0.0,0.0,0.0,0.0,0.0,0.0,0.0,0.0,0.0,0.0,0.0,0.0,0.0,0.0,0.0,0.0,0.0,0.0,1.5594,0.0,0.0,0.0,0.0,0.0,0.0,0.0,0.0,0.0,0.0,0.0,0.0,0.0,0.0,0.0,0.0,0.0,0.0,0.0,0.0,0.0,0.0,0.0,0.0,0.0,0.0,0.0,0.0,0.0,0.0,0.0,0.0,0.0,0.0,0.0,0.0,0.0,0.0,0.0,0.0,0.0,0.0,0.0,0.0,0.0,0.0,0.0,0.0,0.0,0.0,0.0,0.0,0.0,0.0,0.0,0.0,0.0,0.0,0.0,1.3375,1.4008,1.4911,1.5369,1.5278,1.4391,1.4066,0.0,0.0,0.0,0.0,0.0,0.0,0.0,0.0,0.0,0.0,0.0,0.0,0.0,0.0,0.0,0.0,0.0,0.0,0.0,0.0,0.0,0.0,0.0,0.0,0.0,0.0,0.0,0.0,0.0,0.0,0.0,0.0,0.0,0.0,0.0,0.0,0.0,0.0,0.0,0.0,0.0,0.0,0.0,0.0,0.0,0.0,0.0,0.0,0.0,0.0,0.0,0.0,0.0,0.0,0.0,0.0,0.0,0.0,0.0,0.0,0.0,0.0,0.0,0.0,0.0,0.0,0.0,0.0,0.0,0.0,0.0,0.0,0.0,0.0,0.0,0.0,0.0,0.0,0.0,0.0,0.0,0.0,0.0,0.0,0.0,0.0,0.0,0.0,0.0,0.0,0.0,0.0,0.0,0.0,0.0,0.0,0.0,0.0,0.0,0.0,0.0,0.0,0.0,0.0,0.0,0.0,0.0,1.2497,1.3666,1.4268,1.4988,1.5342,1.5294,1.4439,1.4195,1.4578,0.0,0.0,0.0,0.0,0.0,0.0,0.0,0.0,0.0,0.0,0.0,0.0,0.0,0.0,0.0,0.0,0.0,0.0,0.0,0.0,0.0,0.0,0.0,0.0,0.0,0.0,0.0,0.0,0.0,0.0,0.0,0.0,0.0,0.0,0.0,0.0,0.0,0.0,1.3565,1.3902,0.0,0.0,0.0,0.0,0.0,0.0,0.0,0.0,1.5298,0.0,0.0,0.0,0.0,0.0,0.0,0.0,0.0,0.0,0.0,0.0,0.0,0.0,0.0,0.0,0.0,0.0,0.0,0.0,0.0,0.0,0.0,0.0,0.0,0.0,0.0,0.0,0.0,0.0,0.0,0.0,0.0,0.0,0.0,0.0,0.0,0.0,0.0,0.0,0.0,0.0,0.0,0.0,0.0,0.0,0.0,0.0,0.0,0.0,0.0,0.0,0.0,0.0,0.0,0.0,0.0,1.3371,1.3543,1.4099,1.5066,1.5248,1.5319,1.5265,1.4443,1.4195,1.4494,0.0,0.0,0.0,0.0,0.0,0.0,0.0,0.0,0.0,0.0,0.0,0.0,0.0,0.0,0.0,0.0,0.0,0.0,0.0,0.0,0.0,0.0,0.0,0.0,0.0,0.0,0.0,0.0,0.0,0.0,0.0,0.0,0.0,0.0,0.0,0.0,0.0,0.0,0.0,1.5575,1.5883,0.0,0.0,0.0,0.0,0.0,0.0,0.0,0.0,1.755,0.0,0.0,0.0,0.0,0.0,0.0,0.0,0.0,0.0,0.0,0.0,0.0,0.0,0.0,0.0,0.0,0.0,0.0,0.0,0.0,0.0,0.0,0.0,0.0,0.0,0.0,0.0,0.0,0.0,0.0,0.0,0.0,0.0,0.0,0.0,0.0,0.0,0.0,0.0,0.0,0.0,0.0,0.0,0.0,0.0,0.0,0.0,0.0,0.0,0.0,0.0,0.0,0.0,0.0,0.0,1.3409,1.3657,1.4266,1.5248,1.5316,1.5352,1.5276,1.4396,1.4067,0.0,0.0,0.0,0.0,0.0,0.0,0.0,0.0,0.0,0.0,0.0,0.0,0.0,0.0,0.0,0.0,0.0,0.0,0.0,0.0,0.0,0.0,0.0,0.0,0.0,0.0,0.0,0.0,0.0,0.0,0.0,0.0,0.0,0.0,0.0,0.0,0.0,0.0,0.0,0.0,1.5557,1.6075,1.7328,0.0,0.0,0.0,0.0,0.0,0.0,1.8719,1.8535,0.0,0.0,0.0,0.0,0.0,0.0,0.0,0.0,0.0,0.0,0.0,0.0,0.0,0.0,0.0,0.0,0.0,0.0,0.0,0.0,0.0,0.0,0.0,0.0,0.0,0.0,0.0,0.0,0.0,0.0,0.0,0.0,0.0,0.0,0.0,0.0,0.0,0.0,0.0,0.0,0.0,0.0,0.0,0.0,0.0,0.0,0.0,0.0,0.0,0.0,0.0,0.0,0.0,0.0,0.0,1.3266,1.3835,1.448,1.529,1.5384,1.5362,1.528,1.4183,1.3818,0.0,0.0,0.0,0.0,0.0,0.0,0.0,0.0,0.0,0.0,0.0,0.0,0.0,0.0,0.0,0.0,0.0,0.0,0.0,0.0,0.0,0.0,0.0,0.0,0.0,0.0,0.0,0.0,0.0,0.0,0.0,0.0,0.0,0.0,0.0,0.0,0.0,0.0,0.0,0.0,0.0,1.6903,1.8664,1.8013,0.0,0.0,0.0,0.0,1.962,1.9761,0.0,0.0,0.0,0.0,0.0,0.0,0.0,0.0,0.0,0.0,0.0,0.0,0.0,0.0,0.0,0.0,0.0,0.0,0.0,0.0,0.0,0.0,0.0,0.0,0.0,0.0,0.0,0.0,0.0,0.0,0.0,0.0,0.0,0.0,0.0,0.0,0.0,0.0,0.0,0.0,0.0,0.0,0.0,0.0,0.0,0.0,0.0,0.0,0.0,0.0,0.0,0.0,0.0,0.0,0.0,0.0,1.4232,1.4827,1.5206,1.5368,1.5381,1.5375,1.5287,1.3744,1.3365,0.0,0.0,0.0,0.0,0.0,0.0,0.0,0.0,0.0,0.0,0.0,0.0,0.0,0.0,0.0,0.0,0.0,0.0,0.0,0.0,0.0,0.0,0.0,0.0,0.0,0.0,0.0,0.0,0.0,0.0,0.0,0.0,0.0,0.0,0.0,0.0,0.0,0.0,0.0,0.0,0.0,2.0316,1.9846,1.9917,1.9611,0.0,0.0,0.0,2.0835,2.3267,0.0,0.0,0.0,0.0,0.0,0.0,0.0,0.0,0.0,0.0,0.0,0.0,0.0,0.0,0.0,0.0,0.0,0.0,0.0,0.0,0.0,0.0,0.0,0.0,0.0,0.0,0.0,0.0,0.0,0.0,0.0,0.0,0.0,0.0,0.0,0.0,0.0,0.0,0.0,0.0,0.0,0.0,0.0,0.0,0.0,0.0,0.0,0.0,0.0,0.0,0.0,0.0,0.0,0.0,0.0,1.3834,1.4391,1.5031,1.5371,1.5404,1.5413,1.5621,1.6021,1.3857,1.3492,0.0,0.0,0.0,0.0,0.0,0.0,0.0,0.0,0.0,0.0,0.0,0.0,0.0,0.0,0.0,0.0,0.0,0.0,0.0,0.0,0.0,0.0,0.0,0.0,0.0,0.0,0.0,0.0,0.0,0.0,0.0,0.0,0.0,0.0,0.0,0.0,0.0,0.0,0.0,0.0,0.0,0.0,2.1278,2.1751,0.0,0.0,0.0,2.3337,2.2602,0.0,0.0,0.0,0.0,0.0,0.0,0.0,0.0,0.0,0.0,0.0,0.0,0.0,0.0,0.0,0.0,0.0,0.0,0.0,0.0,0.0,0.0,0.0,0.0,0.0,0.0,0.0,0.0,0.0,0.0,0.0,0.0,0.0,0.0,0.0,0.0,0.0,0.0,0.0,0.0,0.0,0.0,0.0,0.0,0.0,0.0,0.0,0.0,0.0,0.0,0.0,0.0,0.0,0.0,0.0,0.0,0.0,1.4387,1.5039,1.5381,1.5404,1.5418,1.578,1.6518,1.4209,0.0,0.0,0.0,0.0,0.0,0.0,0.0,0.0,0.0,0.0,0.0,0.0,0.0,0.0,0.0,0.0,0.0,0.0,0.0,0.0,0.0,0.0,0.0,0.0,0.0,0.0,0.0,0.0,0.0,0.0,0.0,0.0,0.0,0.0,0.0,0.0,0.0,0.0,0.0,0.0,0.0,0.0,2.0771,2.2484,2.3343,2.4102,0.0,0.0,2.4889,2.4371,2.5386,2.5408,0.0,0.0,0.0,0.0,0.0,0.0,0.0,0.0,0.0,0.0,0.0,0.0,0.0,0.0,0.0,0.0,0.0,0.0,0.0,0.0,0.0,0.0,0.0,0.0,0.0,0.0,0.0,0.0,0.0,0.0,0.0,0.0,0.0,0.0,0.0,0.0,0.0,0.0,0.0,0.0,0.0,0.0,0.0,0.0,0.0,0.0,0.0,0.0,0.0,0.0,0.0,0.0,0.0,0.0,0.0,1.44,1.5004,1.5342,1.5399,1.5416,1.5802,1.6531,1.4786,1.4444,0.0,0.0,0.0,0.0,0.0,0.0,0.0,0.0,0.0,0.0,0.0,0.0,0.0,0.0,0.0,0.0,0.0,0.0,0.0,0.0,0.0,0.0,0.0,0.0,0.0,0.0,0.0,0.0,0.0,0.0,0.0,0.0,0.0,0.0,0.0,0.0,0.0,0.0,0.0,0.0,0.0,2.3419,2.3047,2.4534,2.5764,0.0,0.0,2.5839,2.5844,2.7932,2.8493,2.5292,0.0,0.0,0.0,0.0,0.0,0.0,0.0,0.0,0.0,0.0,0.0,0.0,0.0,0.0,0.0,0.0,0.0,0.0,0.0,0.0,0.0,0.0,0.0,0.0,0.0,0.0,0.0,0.0,0.0,0.0,0.0,0.0,0.0,0.0,0.0,0.0,0.0,0.0,0.0,0.0,0.0,0.0,0.0,0.0,0.0,0.0,0.0,0.0,0.0,0.0,0.0,0.0,0.0,1.3798,1.4346,1.496,1.5322,1.5359,1.5874,1.6537,1.7321,1.614,1.5658,0.0,0.0,0.0,0.0,0.0,0.0,0.0,0.0,0.0,0.0,0.0,0.0,0.0,0.0,0.0,0.0,0.0,0.0,0.0,0.0,0.0,0.0,0.0,0.0,0.0,0.0,0.0,0.0,1.6371,1.6551,1.6534,0.0,0.0,0.0,0.0,0.0,0.0,0.0,0.0,0.0,0.0,2.3912,2.5224,2.6559,0.0,0.0,2.7568,2.7317,2.6921,2.7654,2.7455,2.5026,2.393,0.0,0.0,0.0,0.0,0.0,0.0,0.0,0.0,0.0,0.0,0.0,0.0,0.0,0.0,0.0,0.0,0.0,0.0,0.0,0.0,0.0,0.0,0.0,0.0,0.0,0.0,0.0,0.0,0.0,0.0,0.0,0.0,0.0,0.0,0.0,0.0,0.0,0.0,0.0,0.0,0.0,0.0,0.0,0.0,0.0,0.0,0.0,0.0,0.0,0.0,0.0,0.0,1.3882,1.4677,1.5351,1.5812,1.6095,1.6662,1.734,1.8103,1.7302,1.688,0.0,0.0,0.0,0.0,0.0,0.0,0.0,0.0,0.0,0.0,0.0,0.0,0.0,0.0,0.0,0.0,0.0,0.0,0.0,0.0,0.0,0.0,0.0,0.0,0.0,0.0,0.0,0.0,1.7125,1.7347,1.7662,0.0,0.0,0.0,0.0,0.0,0.0,0.0,0.0,0.0,0.0,2.4881,2.6405,2.7415,2.8067,2.8253,2.7877,2.7491,2.7344,2.729,2.6831,2.5594,0.0,0.0,0.0,0.0,0.0,0.0,0.0,0.0,0.0,0.0,0.0,0.0,0.0,0.0,0.0,0.0,0.0,0.0,0.0,0.0,0.0,0.0,0.0,0.0,0.0,0.0,0.0,0.0,0.0,0.0,0.0,0.0,0.0,0.0,0.0,0.0,0.0,0.0,0.0,0.0,0.0,0.0,0.0,0.0,0.0,0.0,0.0,0.0,0.0,0.0,0.0,0.0,0.0,0.0,1.554,1.6213,1.6963,1.7767,1.7805,1.8158,1.8892,1.8071,1.7909,1.8574,0.0,0.0,0.0,0.0,0.0,0.0,0.0,0.0,0.0,0.0,0.0,0.0,0.0,0.0,0.0,0.0,0.0,0.0,0.0,0.0,0.0,0.0,0.0,0.0,0.0,0.0,1.5753,1.6079,1.7079,0.0,0.0,0.0,0.0,0.0,0.0,0.0,0.0,0.0,0.0,2.47,2.6592,2.6114,2.666,2.7193,2.7196,2.6358,2.6024,2.6972,2.7082,2.7231,0.0,0.0,0.0,0.0,0.0,0.0,0.0,0.0,0.0,0.0,0.0,0.0,0.0,0.0,0.0,0.0,0.0,0.0,0.0,0.0,0.0,0.0,0.0,0.0,0.0,0.0,0.0,0.0,1.2102,0.0,0.0,0.0,0.0,0.0,0.0,0.0,0.0,0.0,0.0,0.0,1.5957,1.6,0.0,0.0,0.0,0.0,0.0,0.0,0.0,0.0,0.0,0.0,0.0,0.0,1.4767,1.5611,1.6769,1.7368,1.7321,1.8152,1.8603,1.8601,1.9081,1.9183,1.8846,0.0,0.0,0.0,0.0,0.0,0.0,0.0,0.0,0.0,0.0,0.0,0.0,0.0,0.0,0.0,0.0,0.0,0.0,0.0,0.0,0.0,0.0,0.0,0.0,0.0,1.6856,0.0,0.0,0.0,0.0,0.0,0.0,0.0,0.0,0.0,0.0,0.0,2.1891,2.3988,2.4954,2.5743,2.6604,2.6979,2.7373,0.0,0.0,0.0,0.0,0.0,0.0,0.0,0.0,0.0,0.0,0.0,0.0,0.0,0.0,2.4284,2.2792,2.3537,2.4209,2.364,0.0,0.0,0.0,0.0,0.0,0.0,0.0,0.0,0.0,0.0,0.0,0.0,0.0,0.0,0.0,0.0,1.238,0.0,0.0,0.0,0.0,0.0,0.0,0.0,0.0,1.5754,1.657,1.7125,1.6775,1.7052,0.0,1.7216,1.6385,0.0,0.0,0.0,0.0,0.0,0.0,0.0,0.0,1.5438,1.6086,1.7516,1.8235,1.8185,1.8994,1.9277,1.9016,1.975,1.9909,1.9415,1.7984,1.7294,0.0,0.0,0.0,0.0,0.0,0.0,0.0,0.0,0.0,0.0,0.0,0.0,0.0,0.0,0.0,0.0,0.0,0.0,0.0,0.0,0.0,0.0,0.0,1.7803,0.0,0.0,0.0,0.0,0.0,0.0,0.0,0.0,0.0,2.1574,2.2218,2.3436,2.5408,2.5858,2.6185,2.6592,0.0,0.0,0.0,0.0,0.0,0.0,0.0,2.5412,2.4836,2.5282,2.6247,2.7903,2.7438,2.6897,2.7063,0.0,0.0,2.4992,2.5657,2.6441,2.6142,2.5697,2.5539,2.6159,2.773,2.8853,0.0,0.0,0.0,0.0,0.0,0.0,0.0,0.0,1.3857,1.3288,0.0,1.3124,0.0,0.0,0.0,0.0,0.0,0.0,0.0,0.0,1.6803,1.7641,1.7625,1.7378,1.7426,1.7669,1.7295,1.7309,1.7592,1.6375,0.0,0.0,0.0,0.0,0.0,0.0,1.6226,1.703,1.8447,1.9555,2.0219,2.0222,2.0134,2.006,2.0108,2.0169,2.0268,1.9523,1.9433,2.0062,1.8417,0.0,0.0,0.0,0.0,0.0,0.0,0.0,0.0,0.0,0.0,0.0,0.0,0.0,0.0,0.0,0.0,0.0,0.0,0.0,0.0,1.9037,0.0,0.0,0.0,0.0,0.0,0.0,0.0,0.0,0.0,0.0,2.2923,2.4321,2.5595,2.5913,0.0,0.0,0.0,0.0,2.6394,2.4653,2.4301,2.4357,2.4412,2.5116,2.5709,2.5818,0.0,0.0,2.8568,2.7843,2.7323,2.7304,2.8247,2.8551,2.7551,2.7452,2.7755,2.8364,2.7996,2.7738,2.8184,2.9458,3.0189,1.3076,0.0,0.0,0.0,0.0,1.4068,1.4311,1.4398,1.4795,1.4964,1.4955,1.4847,0.0,0.0,0.0,0.0,0.0,0.0,1.6651,1.7463,1.8205,1.8598,1.8724,1.8653,1.8956,1.9486,1.8868,1.8901,1.9531,1.8713,1.7539,1.6022,0.0,0.0,0.0,0.0,1.7788,1.8955,2.0188,2.0616,2.0235,2.0173,2.0098,2.0021,2.0079,2.0148,2.0294,2.0122,1.9848,1.9516,1.9971,0.0,0.0,0.0,0.0,0.0,0.0,0.0,0.0,0.0,0.0,0.0,0.0,0.0,0.0,0.0,0.0,0.0,0.0,0.0,1.8255,2.0169,2.1143,0.0,0.0,0.0,0.0,0.0,0.0,0.0,0.0,0.0,2.5114,2.4708,2.4763,0.0,0.0,2.5388,2.4764,2.5555,2.6255,2.6282,0.0,0.0,0.0,2.6933,2.6673,2.6729,2.8255,2.9674,3.0205,3.0179,3.0267,3.0748,3.0837,3.0663,3.0352,2.9877,2.9709,2.9911,2.9843,2.9779,3.0016,3.0489,3.0642,1.4106,1.3809,1.3592,1.3826,1.436,1.4752,1.4976,1.5108,1.5856,1.5999,1.5681,1.603,1.5895,1.5432,1.5992,0.0,0.0,0.0,1.8023,1.8813,1.9233,1.9653,1.9997,1.9783,2.001,2.0687,2.0254,2.0297,2.0724,1.9695,1.8773,1.7912,0.0,0.0,1.636,1.8286,1.9425,1.9801,2.1253,2.1411,2.0212,2.0088,2.0048,2.0028,2.0384,2.064,2.0776,2.1165,2.1208,2.0787,2.1576,2.1254,0.0,0.0,0.0,0.0,0.0,0.0,0.0,0.0,0.0,0.0,0.0,1.9481,0.0,0.0,0.0,0.0,1.9916,2.0243,2.037,2.1755,0.0,0.0,0.0,0.0,0.0,0.0,0.0,2.4281,2.5631,2.6446,2.6197,2.5669,2.5597,2.645,2.6296,2.5906,2.5431,0.0,2.6977,2.7117,2.7099,2.7304,2.7841,2.7786,2.7786,2.8139,2.9504,3.0614,3.1012,3.1474,3.1958,3.2281,3.201,3.1578,3.154,3.0987,3.053,3.0585,3.0607,3.0651,3.0775,3.0799,3.0785,1.4878,1.4847,1.4373,1.4447,1.4921,1.4937,1.5095,1.5459,1.6843,1.6475,1.501,1.6653,1.6635,1.5358,1.6218,0.0,0.0,1.8812,1.9356,1.9382,2.0062,2.0742,2.1341,2.0774,2.0791,2.1374,2.1406,2.1374,2.1213,1.9817,1.9353,1.9788,1.9883,1.9047,1.7542,2.0044,2.0905,1.9924,2.177,2.1942,2.0346,2.0226,2.0183,2.0221,2.0978,2.1464,2.1617,2.2407,2.2953,2.3077,2.3095,2.2976,2.2709,0.0,0.0,0.0,0.0,0.0,0.0,0.0,0.0,0.0,0.0,0.0,0.0,0.0,0.0,0.0,2.1795,0.0,2.3714,2.3639,0.0,0.0,0.0,2.3883,2.4817,2.5758,2.6308,2.6287,0.0,0.0,0.0,0.0,2.7509,2.8079,2.8288,2.8082,2.7229,2.7841,2.8195,2.7378,2.7285,2.7359,2.7619,2.814,2.8921,2.978,3.0928,3.1553,3.1535,3.1982,3.2526,3.2716,3.2096,3.159,3.159,3.1051,3.0602,3.0602,3.0603,3.0646,3.0736,3.0789,3.0794,1.5641,1.5497,1.5529,1.5297,1.5013,1.5285,1.5519,1.574,1.6519,1.6543,1.6051,1.6648,1.6876,1.6859,1.714,1.7881,1.8952,1.95,2.0035,2.0495,2.0892,2.1455,2.2118,2.1973,2.1973,2.2135,2.2135,2.1859,2.1294,2.0907,2.0401,1.9846,2.0509,2.0004,1.8393,1.9822,2.0904,2.1529,2.201,2.2161,2.1943,2.1919,2.1907,2.1907,2.2178,2.2333,2.242,2.2659,2.2882,2.3018,2.3534,2.3557,2.2878,2.2293,0.0,0.0,0.0,0.0,0.0,0.0,0.0,0.0,0.0,2.0281,1.997,0.0,2.0602,0.0,2.3019,2.4429,2.5484,2.5532,0.0,0.0,2.548,2.5725,2.666,2.7684,2.7988,2.7211,2.791,2.8127,2.7244,2.7751,2.8506,2.929,2.8269,2.7359,2.7155,2.7898,2.8418,2.8269,2.8734,2.9236,2.9181,2.9408,2.9841,3.0741,3.161,3.2406,3.2994,3.2708,3.2669,3.3199,3.2352,3.1634,3.1533,3.103,3.0671,3.0649,3.0625,3.0633,3.0703,3.0755,3.0786,1.6512,1.6432,1.6512,1.6236,1.5676,1.5798,1.5847,1.587,1.6697,1.6858,1.6528,1.6658,1.695,1.741,1.7854,1.8635,1.9626,2.0225,2.0879,2.1568,2.1714,2.2183,2.2879,2.2879,2.2718,2.2394,2.2394,2.2021,2.1341,2.1388,2.1101,2.0449,2.1447,2.1208,1.9802,2.0426,2.0917,2.1204,2.1376,2.1975,2.2988,2.2684,2.2312,2.1916,2.2255,2.2342,2.2096,2.2412,2.2675,2.2882,2.3086,2.3064,2.2726,2.2365,2.1845,0.0,0.0,0.0,0.0,0.0,0.0,0.0,0.0,0.0,0.0,0.0,2.2501,0.0,0.0,0.0,2.6054,2.6393,2.6752,2.7069,2.7169,2.7608,2.8574,2.9283,2.9437,2.8816,2.918,2.9289,2.8745,2.8954,2.9358,2.9832,2.9013,2.8361,2.838,2.8808,2.9125,2.9144,2.9572,2.9907,2.9907,2.991,3.0213,3.0987,3.1252,3.167,3.2861,3.2783,3.2648,3.3026,3.2279,3.1511,3.1473,3.1006,3.0586,3.0602,3.0644,3.0697,3.0722,3.0764,3.0793,1.7432,1.7432,1.7432,1.7177,1.6699,1.6585,1.6349,1.6091,1.7195,1.7354,1.6881,1.6961,1.7187,1.7543,1.8442,1.9273,2.0017,2.083,2.1569,2.2248,2.2345,2.2766,2.3497,2.361,2.327,2.2573,2.2687,2.2297,2.1502,2.1755,2.1707,2.1368,2.2315,2.2224,2.1123,2.1241,2.0988,2.0298,2.0899,2.207,2.3776,2.3057,2.2231,2.1475,2.1964,2.1991,2.1463,2.1996,2.2424,2.2623,2.2324,2.235,2.2787,2.242,2.2201,0.0,2.2087,0.0,0.0,0.0,0.0,0.0,0.0,0.0,0.0,2.5186,2.5169,2.4947,2.6467,2.7161,2.6456,2.7058,2.7802,2.8626,2.8844,2.9298,3.0228,3.0433,3.0466,3.0398,3.039,3.0311,3.0157,3.0132,3.0015,2.9921,2.9832,2.972,2.9851,2.9832,2.9832,2.9907,2.9907,2.9907,2.9907,2.9907,3.0154,3.076,3.0781,3.0707,3.2045,3.234,3.2425,3.24,3.1824,3.1339,3.1358,3.0887,3.053,3.0546,3.0671,3.0781,3.0787,3.0784,3.0793,1.8144,1.8039,1.813,1.8056,1.7899,1.8164,1.788,1.7226,1.8134,1.8271,1.7877,1.8419,1.8386,1.8081,1.9273,1.9991,2.0261,2.0955,2.1358,2.1535,2.2118,2.2782,2.3529,2.4221,2.4176,2.3538,2.4231,2.3836,2.2361,2.3176,2.2998,2.1973,2.2262,2.1867,0.0,0.0,0.0,0.0,2.3063,2.4212,2.4553,2.3694,2.3143,2.2944,2.2416,0.0,2.2048,2.218,2.2334,2.2451,2.2338,0.0,0.0,0.0,0.0,0.0,0.0,0.0,0.0,0.0,0.0,0.0,2.5332,2.5227,2.5407,2.621,2.6725,2.6801,2.7702,2.8508,2.9101,2.929,2.9539,2.9898,2.9991,3.0157,3.0509,3.0479,3.0414,3.0394,3.0259,3.0171,3.0185,3.0057,2.994,2.9924,2.9907,2.9907,2.9907,2.9907,2.9907,2.9907,2.9907,2.9907,2.9907,2.991,2.995,3.0229,3.1252,3.172,3.1648,3.1603,3.163,3.1666,3.1117,3.0621,3.0633,3.0578,3.0593,3.0649,3.073,3.0787,3.0789,3.0799,3.0804,1.9004,0.0,1.8989,1.8812,0.0,1.917,1.9065,1.8513,1.8747,1.876,1.8663,1.8986,1.8949,1.8686,1.968,2.018,2.0337,2.0955,2.1488,2.1876,2.2588,2.3369,2.4172,2.4961,2.5018,2.4446,2.4878,2.4497,2.3357,2.3944,2.4022,2.3482,2.3729,2.3684,2.3389,2.366,2.3468,2.2795,2.3925,2.5051,2.6046,2.5246,2.4565,2.4088,0.0,0.0,0.0,0.0,0.0,0.0,0.0,0.0,0.0,0.0,0.0,2.5986,2.6005,2.6203,2.6681,2.6664,2.7082,2.8079,2.8055,2.7689,2.7046,2.7916,2.8506,2.8593,2.8971,2.9385,2.9832,2.9907,3.0019,3.0266,3.0312,3.0386,3.054,3.0471,3.039,3.0343,3.0209,3.0079,3.0057,2.9956,2.9907,2.9907,2.9907,2.9907,2.9907,2.9907,2.9907,2.9907,2.9907,2.9907,2.9907,2.9907,3.0116,3.0614,3.1064,3.1359,3.1465,3.1116,3.0871,3.0874,3.059,3.0367,3.04,3.0492,3.0591,3.063,3.0711,3.0748,3.0774,3.0799,3.0799,1.9705,1.9705,1.9705,1.9375,1.8961,1.9732,1.9934,1.9735,0.0,0.0,0.0,1.9511,1.9495,1.9447,2.0021,2.0374,2.0562,2.1035,2.1665,2.2329,2.3061,2.3764,2.449,2.5231,2.537,2.4962,2.5096,2.4863,2.4264,2.4732,2.5022,2.5121,2.545,2.5727,2.5906,2.6342,2.595,2.4781,2.4559,2.5456,2.7354,2.6416,2.5597,2.499,2.4218,2.346,2.2809,2.2642,2.2924,2.3709,2.3514,2.3964,2.521,2.583,2.6382,2.6943,2.7639,2.8406,2.919,2.9202,2.9493,3.0304,3.0208,2.972,2.8827,2.9441,2.9907,2.9907,2.9907,2.9907,2.9907,2.9907,3.0003,3.024,3.0286,3.0323,3.0501,3.0439,3.0299,3.0261,3.0166,3.0064,2.994,2.994,2.9921,2.9924,2.9907,2.9907,2.9907,2.9907,2.9907,2.9907,2.9907,2.9907,2.9907,2.9907,3.0222,3.0814,3.0651,3.061,3.0994,3.0759,3.0405,3.0458,3.0381,3.0413,3.0443,3.0509,3.0552,3.061,3.0652,3.0709,3.0774,3.0799,3.0799,1.9705,1.9705,1.9705,1.963,1.9591,1.9965,2.0333,2.0702,2.0894,2.0663,2.0192,2.0682,2.0649,2.0192,2.0779,2.1195,2.1428,2.1509,2.1669,0.0,2.2646,2.3043,2.319,2.4048,2.4379,2.4394,2.5126,2.5362,2.5229,2.5966,2.6243,2.5906,2.6097,2.587,2.5208,2.5234,2.5731,2.6635,2.5962,2.6124,2.7266,2.5583,2.503,2.5672,2.492,2.4398,2.4301,2.4251,2.432,2.4433,2.4395,2.5246,2.7052,2.7294,2.8111,2.9728,3.0075,3.021,3.0289,3.0239,3.0186,3.0147,3.0098,2.9964,2.9739,2.9832,2.9907,2.9907,2.9907,2.9907,2.9907,2.9907,2.9953,3.0109,3.0123,3.019,3.0346,3.0259,3.0161,3.0155,3.0106,3.0049,2.9937,2.9984,3.0,2.994,2.9907,2.9907,2.9907,2.9907,2.9907,2.9907,2.9907,2.9907,2.9907,2.9907,3.0016,3.0054,3.0388,3.0499,3.0578,3.0524,3.0501,3.0618,3.0607,3.0614,3.0642,3.0676,3.0717,3.0743,3.0781,3.0734,3.0774,3.0799,3.0799,1.9705,1.9705,1.9705,1.9705,1.9726,1.9995,2.0627,2.1451,2.1199,2.1006,2.0857,2.1117,2.1163,2.1026,2.1289,2.1511,2.1724,2.212,2.2118,2.1897,2.2957,2.3351,2.3162,2.3859,2.4273,2.4402,2.519,2.5559,2.5562,2.6435,2.6817,2.6633,2.6939,2.704,2.6982,2.7137,2.7588,2.8334,2.7155,2.7204,2.8634,2.7401,2.6935,2.7415,2.6604,2.6186,2.6186,2.6186,2.639,2.6801,2.6855,2.7519,2.8906,2.9075,2.9552,3.05,3.0637,3.0626,3.0557,3.0452,3.034,3.0225,3.0122,3.0038,2.9924,2.9907,2.9907,2.9907,2.9907,2.9907,2.9907,2.9907,2.9937,3.0094,3.0152,3.0254,3.0317,3.0273,3.0204,3.0194,3.0057,2.9953,2.9905,2.9972,2.9969,2.9905,2.9907,2.9907,2.9907,2.9907,2.9907,2.9907,2.9907,2.9907,2.9907,2.9907,2.9953,3.0041,3.0261,3.0433,3.0451,3.052,3.0582,3.0685,3.0704,3.071,3.0736,3.0742,3.0928,3.1362,3.1017,3.0847,3.0794,3.0794,3.0799,1.9809,1.9705,1.9705,1.9779,1.9951,2.0223,2.1031,2.2049,2.1575,2.1535,2.173,2.1471,2.1516,2.1849,2.1849,2.2024,2.2421,2.2953,2.2934,2.2565,2.3581,2.3877,2.355,2.3854,2.4267,2.4695,2.5017,2.5338,2.5878,2.6497,2.6899,2.7132,2.7565,2.7921,2.82,2.8557,2.8873,2.9043,2.7998,2.8103,2.9496,2.878,2.8423,2.8607,2.826,2.8029,2.8029,2.8029,2.8332,2.8919,2.9019,2.9403,3.0164,3.0317,3.0472,3.0591,3.069,3.0697,3.0626,3.0511,3.0413,3.0297,3.0203,3.0075,2.9921,2.9907,2.9907,2.9907,2.9907,2.9907,2.9907,2.9907,2.9953,3.0094,3.0152,3.0221,3.0299,3.0266,3.0314,3.0414,3.0342,3.0316,3.0416,3.049,3.0487,3.0303,3.0191,3.0135,2.9964,3.0021,3.017,2.9945,2.9907,2.9907,2.9907,2.9907,2.995,3.0103,3.0253,3.0386,3.0501,3.0567,3.0642,3.0717,3.0917,3.0942,3.0891,3.1227,3.1559,3.1953,3.1598,3.1344,3.1714,3.2046,3.1812,2.0243,1.9735,1.9705,2.0064,2.0572,2.0855,2.1568,2.2504,2.2706,2.2991,2.3122,2.1892,2.1824,2.2522,2.2603,2.3123,2.3957,2.4156,2.4168,2.416,2.4377,2.4411,2.4289,2.3769,2.4174,2.5152,2.4306,2.4797,2.6387,2.603,2.6228,2.7049,2.7582,2.7533,2.713,2.7477,2.7807,2.8056,2.8203,2.8387,2.8548,2.773,2.7655,2.8491,2.9271,2.968,2.9602,2.968,2.9699,2.9775,2.9772,2.9946,3.0259,3.0351,3.0491,3.0678,3.0759,3.0773,3.069,3.0599,3.0492,3.0323,3.0272,3.0166,2.994,2.9907,2.9907,2.9907,2.9907,2.9907,2.9907,2.9905,2.9953,3.0079,3.003,2.9981,3.0157,3.0011,3.0243,3.1042,3.1181,3.1477,3.1891,3.2055,3.1882,3.1172,3.108,3.0835,3.036,3.0682,3.0833,3.021,2.9945,2.9945,2.9926,2.9907,2.9921,2.995,3.019,3.0369,3.0477,3.0549,3.0634,3.0743,3.1326,3.1512,3.1456,3.1934,3.2791,3.2577,3.2518,3.2674,3.3673,3.4413,3.4452,2.0303,1.9705,1.9705,2.0079,2.0677,2.0805,2.1758,2.3139,2.2854,2.3247,2.3897,2.3025,2.2916,2.344,2.3489,2.3815,2.4447,2.4854,2.4835,2.4591,2.4932,2.4915,2.4506,2.4188,2.4421,2.4932,2.4746,2.5169,2.593,2.6167,2.665,2.7272,2.7539,2.7601,2.7656,2.8076,2.8384,2.8482,2.8445,2.8426,2.848,2.8663,2.8938,2.9292,2.9702,2.9907,2.9907,2.9907,2.9907,2.9905,2.9969,3.0099,3.0294,3.0392,3.0519,3.0646,3.0704,3.0711,3.0634,3.0576,3.0481,3.0316,3.0215,3.0094,2.994,2.9907,2.9907,2.9907,2.9907,2.9907,2.9924,2.9969,3.003,3.0098,3.0157,3.0362,3.0874,3.0883,3.1153,3.1876,3.2005,3.2077,3.2329,3.2441,3.2326,3.1951,3.1914,3.1705,3.1421,3.1705,3.1724,3.1478,3.1383,3.0909,3.021,2.9907,2.9902,2.9977,3.0185,3.0407,3.0505,3.055,3.0634,3.071,3.1456,3.1876,3.1675,3.2479,3.3336,3.3336,3.4057,3.4447,3.3902,3.49,3.531,2.0632,1.9794,1.9884,2.0468,2.1246,2.1323,2.2332,2.3725,2.3465,2.3867,2.4725,2.4343,2.4325,2.458,2.4398,2.4562,2.5135,2.5659,2.5625,2.5169,2.5659,2.5625,2.5101,2.4864,2.4898,2.5099,2.5203,2.5372,2.5659,2.6353,2.6891,2.7261,2.7434,2.7665,2.8021,2.8533,2.8824,2.8887,2.8741,2.8708,2.8875,2.9521,2.9758,2.9572,2.9758,2.9907,2.9907,2.9907,2.9907,2.9907,3.0015,3.0174,3.0294,3.0432,3.0537,3.0646,3.0698,3.0697,3.0626,3.0576,3.0482,3.0325,3.0235,3.0099,3.0022,3.0148,3.0284,3.0416,3.0495,3.053,2.9943,3.0019,3.0113,3.0128,3.0266,3.0642,3.1343,3.1482,3.1794,3.2672,3.2823,3.2861,3.3051,3.3145,3.3107,3.2842,3.2766,3.2615,3.252,3.2539,3.2691,3.2501,3.2558,3.2065,3.0627,3.0324,3.0238,2.9996,3.0171,3.0426,3.0563,3.0608,3.0889,3.1183,3.1663,3.2137,3.2469,3.3181,3.3974,3.4759,3.5324,3.5441,3.4622,3.5304,3.5713,2.1494,1.9951,2.0408,2.138,2.2604,2.2813,2.3548,2.4505,2.4792,2.5166,2.5503,2.564,2.5875,2.5974,2.5327,2.5614,2.6455,2.6556,2.6539,2.6471,2.6573,2.6623,2.6539,2.5913,2.5896,2.6268,2.5353,2.5101,2.5693,2.6336,2.6691,2.6791,2.7261,2.7535,2.7679,2.8237,2.8652,2.8894,2.9184,2.9438,2.9678,2.9855,2.9553,2.894,2.9441,2.9907,2.9945,2.9926,2.9945,2.9926,3.011,3.0194,3.0314,3.0472,3.068,3.0798,3.0872,3.0831,3.0775,3.0754,3.0632,3.0419,3.0304,3.0221,3.0132,3.0652,3.1097,3.1438,3.1781,3.1553,3.036,3.0323,3.0299,3.0289,3.0289,3.0734,3.1441,3.1619,3.2091,3.3258,3.3657,3.3866,3.4586,3.4794,3.4301,3.3847,3.3638,3.3411,3.2918,3.3202,3.3278,3.2975,3.3051,3.3051,3.1572,3.0947,3.0646,3.0316,3.0204,3.0484,3.0535,3.0694,3.1216,3.1639,3.2105,3.2628,3.3251,3.3949,3.4742,3.5332,3.5616,3.5524,3.5226,3.5621,3.5894,2.2024,2.1006,2.1231,2.1859,2.2679,2.2965,2.3656,2.4599,2.4934,2.5278,2.5562,2.5691,2.5881,2.6189,2.5924,2.6149,2.6691,2.6708,2.6708,2.6708,2.6708,2.6708,2.6657,2.642,2.642,2.6556,2.6167,2.6031,2.6268,2.6573,2.6791,2.7006,2.7324,2.7561,2.7759,2.83,2.8707,2.8925,2.9312,2.9626,2.9866,3.0404,3.0553,3.0253,2.9986,3.0189,3.0739,3.072,3.0966,3.1497,3.1184,3.1024,3.1116,3.1516,3.1695,3.1676,3.245,3.253,3.1642,3.1472,3.1108,3.0433,3.0317,3.0271,3.0303,3.0822,3.1312,3.154,3.2043,3.2008,3.1741,3.1616,3.1482,3.1121,3.146,3.1843,3.2233,3.2629,3.3329,3.4187,3.4472,3.4605,3.4775,3.4908,3.4794,3.4529,3.4453,3.4263,3.4131,3.432,3.4282,3.4131,3.4207,3.4074,3.3032,3.1762,3.1004,3.0544,3.0411,3.1096,3.138,3.1804,3.2329,3.214,3.2528,3.3114,3.3763,3.4559,3.5326,3.5605,3.5894,3.5894,3.5869,3.5894,3.5889,2.2353,2.2278,2.2084,2.2383,2.2978,2.3284,2.3856,2.4614,2.495,2.5262,2.5562,2.5654,2.586,2.6099,2.6225,2.6365,2.659,2.6657,2.6708,2.6708,2.6708,2.6708,2.6708,2.6708,2.6708,2.6708,2.6708,2.6708,2.6708,2.6708,2.6808,2.6956,2.723,2.7509,2.776,2.8237,2.8583,2.8897,2.9532,3.0001,3.0263,3.1104,3.1591,3.1516,3.0987,3.0966,3.1572,3.1572,3.1819,3.2253,3.2041,3.1766,3.1641,3.1729,3.1778,3.1688,3.2402,3.2571,3.1662,3.1468,3.1137,3.0463,3.0332,3.0301,3.0312,3.0897,3.131,3.1562,3.2338,3.2859,3.2933,3.312,3.292,3.2092,3.2329,3.2802,3.3042,3.3489,3.4068,3.4661,3.4851,3.4889,3.4908,3.4908,3.4889,3.4908,3.4908,3.4908,3.4908,3.4908,3.4908,3.4908,3.4813,3.4453,3.3714,3.271,3.1332,3.0726,3.12,3.1843,3.2167,3.2702,3.2977,3.2773,3.3025,3.3641,3.4341,3.5143,3.5558,3.583,3.5889,3.5889,3.5889,3.5889,3.5947,2.2473,2.3355,2.2921,2.2996,2.3518,2.3846,2.4256,2.463,2.495,2.5262,2.5616,2.5787,2.586,2.597,2.6189,2.6383,2.6453,2.659,2.6691,2.6708,2.6708,2.6708,2.6708,2.6708,2.6708,2.6708,2.6708,2.6708,2.6708,2.6708,2.6725,2.6775,2.6989,2.7289,2.7484,2.7908,2.8332,2.8975,2.9898,3.0574,3.1073,3.1882,3.239,3.2389,3.2389,3.2426,3.2482,3.2444,3.2482,3.2557,3.2583,3.2326,3.1715,3.1226,3.0694,3.0834,3.0784,3.069,3.0674,3.0765,3.0845,3.0471,3.0441,3.037,3.0412,3.0981,3.1446,3.1771,3.2762,3.3705,3.3859,3.4299,3.4128,3.2925,3.2839,3.322,3.3587,3.3815,3.4122,3.4794,3.4984,3.4927,3.4927,3.4927,3.4908,3.4908,3.4908,3.4908,3.4908,3.4908,3.4908,3.4908,3.4889,3.4624,3.4131,3.3543,3.2108,3.1091,3.1967,3.2661,3.2574,3.2904,3.3305,3.3231,3.3355,3.3952,3.473,3.543,3.5675,3.5889,3.5889,3.5908,3.5947,3.5986,3.6059,2.3236,2.3565,2.34,2.3415,2.3638,2.3937,2.4287,2.463,2.495,2.5301,2.5562,2.5637,2.5766,2.5897,2.6026,2.6189,2.6367,2.647,2.6556,2.6708,2.6708,2.6708,2.6708,2.6708,2.6708,2.6708,2.6708,2.6708,2.6708,2.6708,2.6708,2.6775,2.6956,2.7233,2.75,2.7836,2.8504,2.9567,3.0037,3.0698,3.1586,3.2437,3.2932,3.3146,3.3675,3.4035,3.4074,3.36,3.3581,3.4055,3.3671,3.2867,3.1891,3.1946,3.189,3.1555,3.2055,3.2027,3.1478,3.1418,3.1157,3.0623,3.0469,3.043,3.0441,3.1034,3.1717,3.2281,3.313,3.3783,3.4535,3.4786,3.4466,3.3534,3.3897,3.403,3.3992,3.4298,3.4908,3.5514,3.5268,3.5173,3.5495,3.5401,3.4984,3.4965,3.4946,3.4908,3.4908,3.4908,3.4908,3.4908,3.4851,3.4832,3.451,3.4282,3.3563,3.2637,3.305,3.3282,3.3153,3.3224,3.3594,3.3824,3.3944,3.4387,3.5145,3.5566,3.5805,3.5889,3.5889,3.5947,3.6045,3.6137,3.6248,2.3696,2.3595,2.3696,2.3696,2.3638,2.3809,2.412,2.4451,2.4791,2.5107,2.541,2.5578,2.5675,2.5787,2.586,2.6063,2.6314,2.64,2.6505,2.6657,2.6708,2.6708,2.6708,2.6708,2.6708,2.6708,2.6708,2.6708,2.6708,2.6708,2.6708,2.6742,2.6875,2.7137,2.7476,2.7783,2.8461,2.9375,2.9958,3.0752,3.179,3.2698,3.3347,3.3792,3.4384,3.473,3.4793,3.4358,3.4377,3.468,3.4185,3.3201,3.2115,3.2192,3.205,3.156,3.1748,3.1971,3.1806,3.1805,3.166,3.1049,3.0984,3.0791,3.0667,3.1123,3.1885,3.2359,3.3111,3.3846,3.4506,3.4843,3.4789,3.4755,3.4756,3.4851,3.4698,3.5078,3.5723,3.6291,3.6196,3.6196,3.631,3.5931,3.542,3.5363,3.5097,3.4908,3.4908,3.4908,3.4908,3.4908,3.4889,3.4889,3.4908,3.487,3.487,3.4472,3.4245,3.4067,3.3818,3.3906,3.4183,3.4337,3.4465,3.497,3.5688,3.5747,3.5889,3.5889,3.5889,3.5922,3.602,3.637,3.6534,2.3839,2.3653,2.3897,2.3839,2.3595,2.3595,2.3824,2.4162,2.441,2.4791,2.5107,2.5317,2.5524,2.56,2.5733,2.5937,2.617,2.6349,2.6487,2.6624,2.6691,2.6708,2.6708,2.6708,2.6708,2.6708,2.6708,2.6708,2.6708,2.6708,2.6708,2.6708,2.6742,2.6956,2.7434,2.7612,2.8088,2.8913,2.9844,3.0849,3.1779,3.2739,3.3504,3.4162,3.4486,3.463,3.454,3.4679,3.4832,3.4813,3.428,3.3608,3.2791,3.202,3.1418,3.0763,3.0506,3.0948,3.1516,3.1632,3.1622,3.1448,3.1449,3.1506,3.0829,3.128,3.1888,3.2285,3.3108,3.3887,3.4339,3.484,3.5438,3.6008,3.5571,3.542,3.6027,3.6122,3.6462,3.7163,3.7409,3.7466,3.7466,3.6879,3.631,3.5988,3.5495,3.5192,3.4908,3.4908,3.4908,3.4908,3.4908,3.5154,3.5211,3.4946,3.4946,3.487,3.4718,3.4526,3.4168,3.4203,3.4121,3.435,3.4893,3.5482,3.5766,3.5708,3.5805,3.5889,3.5889,3.5883,3.6033,3.632,3.6898,2.394,2.3925,2.3982,2.3839,2.3595,2.3595,2.3767,2.4063,2.4204,2.4451,2.471,2.4831,2.5045,2.5224,2.5422,2.5701,2.5974,2.6243,2.6418,2.6487,2.6624,2.6708,2.6708,2.6708,2.6708,2.6708,2.6708,2.6708,2.6708,2.6708,2.6708,2.6708,2.6708,2.6956,2.7417,2.7539,2.8211,2.9287,3.0259,3.1214,3.2111,3.3048,3.3469,3.3343,3.4027,3.4183,3.3973,3.4528,3.4908,3.4889,3.4756,3.428,3.3492,3.2772,3.2039,3.1322,3.0758,3.0525,3.0813,3.0984,3.0926,3.0775,3.1207,3.1023,3.138,3.1561,3.2328,3.3199,3.387,3.4468,3.5546,3.6102,3.6554,3.6843,3.6367,3.6026,3.6236,3.6236,3.665,3.7745,3.7711,3.8073,3.8509,3.7959,3.6898,3.6386,3.5969,3.5514,3.5116,3.4908,3.4908,3.4908,3.4984,3.5344,3.5476,3.5135,3.4946,3.4926,3.4851,3.4812,3.4342,3.3959,3.3689,3.3497,3.4598,3.5314,3.5353,3.532,3.5541,3.5889,3.5883,3.5897,3.5911,3.6138,3.7047,2.4151,2.4151,2.4219,2.4051,2.3782,2.3739,2.3824,2.3894,2.4021,2.4188,2.441,2.4552,2.4688,2.4895,2.515,2.547,2.5828,2.6154,2.6383,2.6556,2.6657,2.6708,2.6708,2.6708,2.6708,2.6708,2.6708,2.6708,2.6708,2.6708,2.6708,2.6708,2.6708,2.6956,2.7465,2.7544,2.8012,2.9053,2.9763,3.0475,3.1441,3.2349,3.2573,3.2502,3.3226,3.362,3.3614,3.4396,3.4908,3.4908,3.487,3.4566,3.3859,3.3432,3.2821,3.2095,3.161,3.1595,3.2003,3.2115,3.2115,3.2132,3.2125,3.2132,3.2351,3.2551,3.3462,3.4554,3.5051,3.5886,3.6776,3.7366,3.749,3.7374,3.7296,3.7241,3.7262,3.7317,3.7807,3.8485,3.8731,3.8717,3.9775,3.8679,3.7694,3.6898,3.6386,3.5742,3.5116,3.5003,3.4908,3.4908,3.5022,3.5363,3.5628,3.542,3.5116,3.5059,3.4908,3.4889,3.4596,3.4029,3.3641,3.3613,3.4447,3.496,3.4963,3.5146,3.5644,3.5889,3.5897,3.5891,3.5885,3.682,3.765,2.4317,2.4359,2.4508,2.4343,2.4024,2.3982,2.3839,2.3681,2.3894,2.4021,2.409,2.4337,2.448,2.4574,2.4925,2.5293,2.5663,2.6046,2.6349,2.6556,2.6674,2.6708,2.6708,2.6708,2.6708,2.6708,2.6708,2.6708,2.6708,2.6708,2.6708,2.6708,2.6708,2.6989,2.7386,2.7526,2.7904,2.8522,2.9011,2.961,3.0533,3.1414,3.1905,3.1925,3.2154,3.3112,3.3631,3.4339,3.4756,3.4908,3.4908,3.4585,3.3975,3.3878,3.3484,3.301,3.2818,3.3115,3.3854,3.3671,3.3954,3.377,3.3877,3.4031,3.3388,3.3666,3.4488,3.5635,3.6671,3.7185,3.7857,3.8442,3.8495,3.8167,3.8433,3.874,3.8819,3.8759,3.9001,3.9759,3.9873,3.987,3.9702,3.9191,3.8338,3.7182,3.6613,3.5817,3.523,3.4965,3.4908,3.4908,3.5097,3.5344,3.5552,3.5704,3.5438,3.5229,3.5002,3.4908,3.4868,3.4397,3.3925,3.3904,3.426,3.4487,3.4606,3.5002,3.5671,3.5889,3.5883,3.5852,3.5996,3.7696,3.8884,2.4385,2.4549,2.4574,2.4385,2.4024,2.3982,2.3839,2.3638,2.3681,2.3724,2.3709,2.3822,2.3991,2.4245,2.4712,2.5044,2.5323,2.5901,2.6295,2.6453,2.6624,2.6691,2.6708,2.6708,2.6708,2.6708,2.6708,2.6708,2.6708,2.6708,2.6708,2.6708,2.6758,2.6956,2.7448,2.7729,2.7922,2.8514,2.9225,2.9799,3.0378,3.1517,3.2125,3.2017,3.1607,3.2411,3.3895,3.4112,3.4263,3.4718,3.4889,3.4775,3.4509,3.3957,3.3627,3.3633,3.354,3.347,3.3276,3.3441,3.3261,3.3572,3.3823,3.3503,3.4075,3.4287,3.5156,3.6207,3.689,3.7651,3.8604,3.9278,3.9364,3.9286,3.938,3.957,3.9534,3.9098,3.9172,3.9665,3.9889,3.987,3.9832,3.9248,3.8414,3.7523,3.6765,3.5912,3.5495,3.5192,3.5268,3.5457,3.5514,3.5912,3.6613,3.669,3.6349,3.5627,3.5154,3.5173,3.5116,3.4848,3.4375,3.3997,3.3801,3.4055,3.4429,3.5135,3.5866,3.5885,3.5903,3.5872,3.6391,3.8267,3.9234,2.4245,2.4605,2.471,2.4589,2.4302,2.4193,2.4024,2.3782,2.3653,2.3595,2.3595,2.3595,2.3681,2.3921,2.4496,2.4855,2.5192,2.5828,2.626,2.6383,2.6521,2.6607,2.6708,2.6708,2.6708,2.6708,2.6708,2.6708,2.6708,2.6708,2.6708,2.6725,2.6891,2.7195,2.7669,2.8182,2.8504,2.8735,2.9501,3.0068,3.0453,3.1389,3.2247,3.2341,3.1992,3.259,3.3733,3.4182,3.4433,3.4775,3.4908,3.4908,3.487,3.4433,3.4241,3.4346,3.4426,3.4376,3.4153,3.4449,3.4692,3.4295,3.4901,3.5307,3.5666,3.5821,3.6646,3.7636,3.813,3.8484,3.9447,3.9757,3.9956,3.9911,3.9889,3.9889,3.9835,3.9513,3.938,3.9775,3.9889,3.9646,3.9361,3.9134,3.8546,3.7694,3.794,3.7163,3.6651,3.6386,3.6329,3.6386,3.6272,3.6651,3.7638,3.779,3.7432,3.6444,3.5306,3.5495,3.5704,3.5287,3.483,3.462,3.4453,3.4206,3.4596,3.533,3.5889,3.5905,3.5924,3.5911,3.6189,3.7079,3.7916,2.412,2.463,2.4886,2.4799,2.4424,2.4323,2.4101,2.3731,2.3709,2.3653,2.3595,2.3595,2.3595,2.3752,2.4327,2.4705,2.516,2.5701,2.6189,2.6349,2.6418,2.6572,2.6674,2.6708,2.6708,2.6708,2.6708,2.6708,2.6708,2.6758,2.6825,2.6875,2.7368,2.7783,2.817,2.9012,2.9548,2.9519,3.002,3.0282,3.0485,3.1249,3.2082,3.272,3.2484,3.2846,3.3549,3.4078,3.4562,3.487,3.4908,3.4984,3.5059,3.4927,3.5173,3.5375,3.5501,3.556,3.5763,3.6202,3.6324,3.6037,3.6941,3.7475,3.7257,3.7456,3.8105,3.8796,3.9249,3.9519,4.0138,4.0118,4.0017,3.9933,3.9889,3.9889,3.9889,3.9889,3.9851,3.9851,3.987,3.9721,3.9456,3.921,3.8546,3.8073,3.8338,3.8397,3.7807,3.7371,3.7163,3.7011,3.6841,3.7163,3.8093,3.8778,3.8419,3.7431,3.6007,3.6178,3.6462,3.6235,3.5913,3.5513,3.5291,3.5124,3.5078,3.5659,3.6009,3.597,3.5937,3.5898,3.5898,3.5897,3.6637,2.412,2.463,2.4886,2.4437,2.3714,2.4259,2.3897,2.3149,2.3598,2.3797,2.3595,2.3595,2.3595,2.3767,2.4313,2.4879,2.5416,2.577,2.6026,2.6225,2.6365,2.6487,2.6674,2.6708,2.6708,2.6708,2.6759,2.6793,2.6775,2.6891,2.7057,2.7255,2.8049,2.8664,2.9165,3.0032,3.0659,3.056,3.0892,3.0972,3.0976,3.1785,3.268,3.3311,3.273,3.2924,3.3747,3.3829,3.3995,3.4775,3.4908,3.5287,3.5571,3.5268,3.559,3.6445,3.6521,3.6535,3.6944,3.683,3.706,3.7252,3.7546,3.7649,3.781,3.8105,3.8733,3.9264,3.9842,4.0204,4.0177,4.0157,4.0057,3.9933,3.9889,3.9889,3.9889,3.9889,3.9889,3.9889,3.987,3.974,3.9399,3.9172,3.8812,3.83,3.8205,3.8376,3.8148,3.7769,3.7504,3.739,3.7296,3.7788,3.8472,3.9138,3.9292,3.8417,3.7447,3.7354,3.7505,3.7371,3.7089,3.6673,3.6425,3.6301,3.6332,3.6199,3.613,3.6135,3.6015,3.5881,3.5878,3.5885,3.5891,2.3937,2.463,2.4886,2.4414,2.3662,2.3785,2.3448,2.281,2.3119,2.3351,2.3434,2.3551,2.3595,2.3767,2.4328,2.4966,2.5448,2.5454,2.5754,2.6082,2.626,2.6453,2.6657,2.6708,2.6708,2.6826,2.7029,2.7029,2.6759,2.6956,2.7392,2.7898,2.8697,2.9401,3.0119,3.1148,3.1428,3.1469,3.1634,3.1772,3.1529,3.2575,3.3305,3.3341,3.3217,3.3377,3.3868,3.4128,3.4191,3.4695,3.4851,3.5401,3.5666,3.5647,3.5666,3.6975,3.7185,3.7205,3.766,3.7627,3.799,3.7935,3.8276,3.867,3.8849,3.9124,3.9437,3.9831,4.0085,4.0375,4.0215,4.0177,4.0078,3.9933,3.9889,3.9889,3.987,3.987,3.9832,3.9794,3.9757,3.9532,3.9037,3.8925,3.8944,3.866,3.8262,3.83,3.8433,3.8186,3.794,3.8186,3.8167,3.83,3.8793,3.9309,3.9596,3.8852,3.8567,3.8472,3.8397,3.8205,3.8054,3.779,3.7604,3.7185,3.6528,3.6059,3.6157,3.6223,3.5989,3.5832,3.5857,3.5872,3.5872,2.3837,2.4614,2.4649,2.4233,2.3663,2.3381,2.3102,2.2802,2.2923,2.3242,2.3435,2.3566,2.3595,2.3767,2.4287,2.491,2.548,2.5374,2.5783,2.6059,2.6385,2.6566,2.6572,2.6725,2.6793,2.7148,2.7521,2.7572,2.7385,2.7652,2.8109,2.8798,2.952,3.0202,3.1042,3.2083,3.2037,3.2128,3.2202,3.2518,3.2672,3.3128,3.3577,3.3605,3.3698,3.3831,3.4105,3.426,3.4423,3.467,3.4886,3.5287,3.5912,3.5533,3.5874,3.7069,3.7338,3.7433,3.7965,3.8206,3.8424,3.8597,3.9535,3.9734,3.9831,3.9946,4.0392,4.0508,4.0441,4.0375,4.0252,4.0196,4.008,3.9935,3.9889,3.987,3.9816,3.9721,3.9513,3.9494,3.957,3.9416,3.9056,3.9226,3.938,3.9115,3.8736,3.8906,3.8982,3.866,3.8565,3.9039,3.9153,3.8982,3.9172,3.9383,3.9404,3.8852,3.8869,3.9001,3.8982,3.8944,3.8812,3.8641,3.7942,3.7433,3.665,3.6086,3.617,3.6144,3.5902,3.5766,3.5782,3.5788,3.5815,2.4094,2.4527,2.3832,2.3443,2.3295,2.3255,2.3207,2.3061,2.3477,2.3888,2.3909,2.3724,2.3595,2.3809,2.4287,2.4775,2.5305,2.594,2.614,2.6102,2.6644,2.6776,2.6536,2.6624,2.7097,2.7486,2.8015,2.8184,2.8336,2.8985,2.951,3.0043,3.0891,3.1732,3.1851,3.2705,3.3223,3.3132,3.3187,3.3212,3.3183,3.3321,3.3444,3.3559,3.3643,3.3807,3.4074,3.4293,3.4495,3.4706,3.4831,3.5325,3.5988,3.614,3.65,3.6879,3.6975,3.7013,3.8059,3.8271,3.8555,3.9088,3.9612,3.9749,3.9996,4.0114,4.0307,4.0573,4.0353,4.0251,4.0214,4.0177,4.0057,3.9954,3.9889,3.9889,3.9832,3.9702,3.9456,3.9231,3.9307,3.9399,3.9264,3.9586,3.9813,3.9513,3.9286,3.9342,3.9248,3.8698,3.8433,3.8698,3.8793,3.866,3.8755,3.9098,3.9174,3.8738,3.9134,3.9456,3.9456,3.9437,3.9608,3.9304,3.8527,3.775,3.711,3.6669,3.6411,3.6117,3.5888,3.5778,3.5699,3.5757,3.6037,2.3611,2.4037,2.3529,2.2747,2.2118,2.279,2.2818,2.255,2.301,2.3518,2.3834,2.3724,2.3824,2.412,2.4343,2.4695,2.54,2.6149,2.6225,2.6122,2.6689,2.6906,2.6569,2.6623,2.7097,2.7792,2.8458,2.9265,2.9574,2.9892,3.0258,3.0963,3.1625,3.2182,3.2499,3.3105,3.325,3.322,3.3147,3.3104,3.3135,3.3196,3.3316,3.3491,3.3577,3.3807,3.4074,3.4293,3.4491,3.4685,3.483,3.5022,3.5363,3.5457,3.5647,3.5836,3.6178,3.6785,3.7733,3.808,3.8708,3.9223,3.9563,3.9972,4.0161,3.9936,3.9921,4.0339,3.9828,3.9775,4.0101,4.0138,4.0036,3.9973,3.9965,3.9908,3.987,3.9721,3.9513,3.925,3.9003,3.9077,3.9131,3.9207,3.9302,3.9113,3.8641,3.83,3.8243,3.7978,3.7845,3.7902,3.7921,3.7845,3.8054,3.83,3.8755,3.8717,3.9399,3.9665,3.9778,3.9832,3.9889,3.9683,3.8963,3.8264,3.7619,3.6958,3.6451,3.6147,3.5897,3.5881,3.5963,3.6817,3.6955,2.2961,2.3235,2.2738,2.1963,2.1258,2.2352,2.262,2.2385,2.2978,2.3579,2.3937,2.3994,2.412,2.441,2.4451,2.4831,2.5442,2.6038,2.6018,2.6173,2.655,2.673,2.6478,2.6537,2.7012,2.7841,2.8696,2.9573,3.0352,3.0916,3.1217,3.1771,3.2018,3.2486,3.2937,3.3147,3.3165,3.3117,3.3024,3.3011,3.2993,3.3135,3.3286,3.3444,3.3615,3.3815,3.4148,3.4381,3.4577,3.5023,3.4905,3.504,3.5344,3.5515,3.5287,3.542,3.5723,3.6405,3.7278,3.7926,3.8612,3.9051,3.9566,4.0114,4.0149,3.96,3.945,4.0251,3.9776,3.9738,3.9927,4.0058,3.9994,4.0046,4.0154,4.0041,3.9927,3.9873,3.9494,3.8965,3.8757,3.8698,3.8715,3.8717,3.8698,3.862,3.8148,3.7504,3.7353,3.7371,3.722,3.722,3.7087,3.6973,3.6917,3.7277,3.7845,3.8698,3.938,3.9816,3.9851,3.9889,3.9889,3.9589,3.9267,3.9058,3.8622,3.749,3.6453,3.6233,3.6098,3.6089,3.6415,3.7302,3.781,2.2256,2.1994,2.0941,2.0907,2.1505,2.2017,2.274,2.3406,2.4085,2.4563,2.4744,2.4655,2.4343,2.44,2.4782,2.5045,2.5265,2.6188,2.6057,2.6021,2.6319,2.6512,2.6333,2.6414,2.6942,2.7874,2.8779,2.9692,3.061,3.1516,3.2135,3.2763,3.2488,3.2709,3.2943,3.3055,3.3135,3.3117,3.3117,3.3086,3.3117,3.3256,3.3415,3.3606,3.3815,3.4042,3.44,3.4764,3.5195,3.5784,3.536,3.5344,3.5761,3.5704,3.5401,3.5211,3.5704,3.6234,3.6728,3.7695,3.8548,3.8952,3.9489,4.0139,4.0177,4.01,4.0119,4.0119,3.9699,3.9734,3.9924,3.9998,3.9933,4.0025,4.0135,4.0154,4.0097,4.0135,3.9702,3.8871,3.8757,3.9096,3.8828,3.8944,3.8831,3.8774,3.7997,3.7353,3.7144,3.7068,3.6708,3.6519,3.6329,3.6064,3.5647,3.6159,3.7218,3.8317,3.9229,3.9627,3.987,3.9889,3.9889,3.9813,3.9608,3.9646,3.9418,3.8136,3.7071,3.6528,3.6415,3.6906,3.6911,3.7319,3.7896,2.1894,2.1629,2.084,2.0983,2.1883,2.2924,2.3529,2.388,2.439,2.4648,2.4775,2.4686,2.4905,2.5183,2.5108,2.5495,2.6037,2.6428,2.6144,2.6075,2.6287,2.6384,2.6188,2.6355,2.7021,2.8068,2.8929,2.9945,3.1207,3.1647,3.2056,3.2404,3.2623,3.277,3.288,3.3086,3.3226,3.3274,3.3304,3.3304,3.3286,3.3364,3.352,3.3788,3.4439,3.486,3.5342,3.5945,3.6394,3.6498,3.6045,3.6064,3.6141,3.5875,3.5495,3.523,3.5893,3.6272,3.6443,3.7409,3.8262,3.9361,3.9787,4.0,4.0039,3.9637,3.9656,3.9635,3.9635,3.9652,3.9897,3.9914,3.993,3.9984,4.0116,4.023,4.0249,4.0287,4.0249,3.957,3.9854,4.029,3.9835,3.9342,3.9153,3.8906,3.8016,3.7315,3.7201,3.6879,3.6538,3.6045,3.5799,3.5855,3.5495,3.6082,3.6799,3.7879,3.902,3.9437,3.9757,3.987,3.9892,3.987,3.9738,3.9532,3.9077,3.8379,3.7852,3.7581,3.7797,3.8274,3.8078,3.767,3.8166,2.2055,2.1988,2.1409,2.1394,2.2022,2.3462,2.4053,2.4112,2.465,2.4751,2.463,2.4645,2.4905,2.5343,2.5354,2.5376,2.594,2.617,2.5966,2.5924,2.6016,2.6145,2.6085,2.6303,2.695,2.8126,2.8898,2.9799,3.0933,3.1215,3.16,3.2038,3.2454,3.257,3.2961,3.3165,3.3393,3.3393,3.3452,3.3452,3.3452,3.352,3.3671,3.4083,3.4777,3.5403,3.5964,3.6566,3.7081,3.7106,3.6862,3.6614,3.6463,3.6235,3.5912,3.6007,3.6348,3.686,3.7087,3.7504,3.8433,3.957,3.9835,3.9892,3.9757,3.9564,4.0041,3.9816,3.9608,3.9589,4.0003,3.9889,3.9889,3.9965,4.0479,4.0609,4.0419,4.04,4.0514,4.0382,4.0745,4.0821,4.0195,3.957,3.9267,3.9172,3.8982,3.8224,3.7694,3.7239,3.6519,3.595,3.5363,3.5476,3.5647,3.6347,3.7009,3.7673,3.8679,3.9267,3.9608,3.9627,3.9304,3.885,3.8793,3.9058,3.9001,3.8719,3.8765,3.8841,3.9116,3.9362,3.9054,3.8723,3.905,2.2701,2.3305,2.2501,2.1963,2.1988,2.3396,2.41,2.4264,2.5029,2.5162,2.467,2.463,2.457,2.4647,2.51,2.54,2.5573,2.5696,2.5627,2.5605,2.5729,2.5798,2.602,2.6352,2.7031,2.782,2.8755,2.9671,3.0383,3.1113,3.1449,3.1579,3.1985,3.2385,3.3024,3.3304,3.3393,3.3404,3.352,3.3577,3.3633,3.3698,3.3887,3.4444,3.5256,3.5941,3.6635,3.7404,3.7806,3.76,3.7524,3.7335,3.7145,3.7714,3.758,3.7182,3.7864,3.8338,3.8565,3.8622,3.9134,3.974,3.9889,3.9889,4.006,4.034,4.045,3.9965,4.0252,4.0328,4.0233,3.9889,3.9889,4.0022,4.0517,4.0631,4.04,4.0647,4.0779,4.0817,4.0934,4.0934,4.0306,3.9757,3.9418,3.9361,3.9608,3.9172,3.8281,3.7561,3.6765,3.614,3.5533,3.6007,3.6348,3.665,3.72,3.7826,3.8452,3.9153,3.9096,3.8715,3.8317,3.7845,3.8262,3.8906,3.9172,3.9304,3.9373,3.9452,3.9953,4.0142,3.9873,3.97,3.9873,2.2848,2.2678,2.2979,2.3375,2.3802,2.4367,2.4741,2.4942,2.5166,2.5146,2.4974,2.495,2.5226,2.5392,2.5385,2.5603,2.5979,2.5583,2.5578,2.554,2.5648,2.5659,2.5995,2.6713,2.7411,2.8313,2.9235,3.0057,3.0925,3.1261,3.1411,3.1542,3.1748,3.2179,3.2535,3.2876,3.3111,3.3262,3.3473,3.3633,3.3707,3.3825,3.4134,3.4847,3.5807,3.6696,3.743,3.8256,3.8563,3.8243,3.8167,3.8017,3.7638,3.8017,3.7845,3.7504,3.7883,3.8111,3.866,3.9077,3.957,3.9813,3.9889,3.9889,3.9984,4.0116,4.0097,4.006,4.0328,4.029,3.9946,3.9889,3.9889,3.9908,4.0154,4.0135,4.0135,4.0764,4.1105,4.1086,4.1124,4.0802,4.0309,3.9946,3.9608,3.9532,3.9738,3.9077,3.8167,3.7675,3.703,3.6462,3.6102,3.6651,3.7068,3.701,3.7654,3.8527,3.8925,3.9323,3.8942,3.8317,3.8052,3.7959,3.8395,3.885,3.9288,3.965,3.9789,4.0024,4.0283,4.046,4.0249,4.015,4.0258,2.3398,2.3358,2.3629,2.4325,2.5067,2.513,2.5301,2.5394,2.524,2.5218,2.5393,2.5132,2.5273,2.5694,2.5694,2.5593,2.6092,2.5837,2.5616,2.5664,2.6021,2.6216,2.6648,2.7296,2.8252,2.9034,2.9707,3.0446,3.1089,3.1173,3.1269,3.1428,3.162,3.1731,3.2021,3.2435,3.2921,3.3124,3.3397,3.3671,3.3753,3.3889,3.4134,3.4944,3.5938,3.7087,3.8051,3.8867,3.9485,3.8999,3.8793,3.8641,3.813,3.8092,3.8205,3.8262,3.8338,3.8641,3.9191,3.9494,3.9794,3.987,3.9889,3.9889,3.9984,4.0306,4.0173,4.0116,4.0157,4.0081,3.9965,3.9946,3.9889,3.9908,3.9965,3.9965,4.0173,4.0783,4.1294,4.1256,4.1446,4.0991,4.046,4.0079,3.9794,3.9813,3.9851,3.9039,3.8319,3.7997,3.7656,3.7182,3.6765,3.7125,3.72,3.6912,3.7785,3.9113,3.9456,3.9608,3.921,3.866,3.8357,3.8111,3.8471,3.8906,3.9572,3.9956,3.9962,4.0043,4.0192,4.0339,4.0471,4.0502,4.0489,2.4433,2.5163,2.4473,2.4692,2.5497,2.5524,2.5578,2.5578,2.5224,2.5457,2.6013,2.5019,2.5064,2.5513,2.5298,2.5233,2.5374,2.5518,2.5578,2.5886,2.6374,2.6775,2.7429,2.8198,2.9017,2.9707,3.0277,3.0666,3.1157,3.119,3.123,3.123,3.1291,3.1351,3.1637,3.2074,3.2601,3.2858,3.343,3.3658,3.3753,3.41,3.4439,3.5188,3.6096,3.7056,3.7984,3.8846,3.9067,3.9139,3.9318,3.9167,3.9186,3.9491,3.9719,3.9835,3.9719,3.9721,3.9721,3.9851,3.987,3.9889,3.9889,3.9889,4.0022,4.0344,4.0249,4.0211,4.0271,4.0176,4.0081,3.9965,3.9889,3.9965,4.0081,4.0157,4.0271,4.0726,4.1256,4.1579,4.1977,4.173,4.1029,4.0593,4.0252,3.9889,3.9889,3.9757,3.9153,3.8906,3.8584,3.8283,3.7902,3.7637,3.7578,3.765,3.8048,3.9416,3.9665,3.974,3.9364,3.9041,3.87,3.851,3.8565,3.8906,3.9364,3.9728,4.0,4.0081,4.0157,4.0267,4.0398,4.0479,4.0354,2.4537,2.4505,2.4716,2.5141,2.5562,2.5616,2.5524,2.5432,2.5224,2.5266,2.5377,2.5124,2.5179,2.5282,2.5397,2.5426,2.5486,2.554,2.5578,2.5983,2.6662,2.7031,2.7765,2.8774,2.9597,3.0133,3.0581,3.0903,3.1123,3.119,3.119,3.119,3.119,3.119,3.1368,3.1674,3.2056,3.259,3.3333,3.3599,3.4089,3.4669,3.5046,3.5717,3.6574,3.7503,3.838,3.9045,3.9161,3.8836,3.9467,3.9491,3.885,3.9416,3.987,3.987,3.9851,3.987,3.9889,3.9889,3.9889,3.9889,3.9889,3.9889,3.9965,4.0097,4.0211,4.0192,4.0385,4.0385,4.0385,4.0328,4.0287,4.0404,4.0574,4.084,4.101,4.1465,4.1958,4.2166,4.2564,4.2204,4.1522,4.1241,4.0862,4.0252,3.9908,3.9949,3.9908,3.9665,3.9513,3.921,3.9153,3.8925,3.902,3.9131,3.9245,3.9567,3.9797,3.9968,3.9897,3.9556,3.9081,3.8928,3.9039,3.8963,3.8925,3.9366,3.9939,4.0059,4.0139,4.0252,4.0323,4.0406,4.0219,2.493,2.4756,2.5125,2.5394,2.5578,2.5616,2.554,2.547,2.5371,2.5429,2.5686,2.5445,2.5477,2.5773,2.568,2.5578,2.5578,2.5578,2.5578,2.581,2.6896,2.7443,2.8268,2.9365,3.028,3.0678,3.0869,3.1123,3.119,3.119,3.119,3.119,3.119,3.119,3.1269,3.1406,3.1637,3.2213,3.2836,3.3342,3.4111,3.4958,3.5483,3.6166,3.7026,3.7978,3.8572,3.9107,3.9177,3.8959,3.9668,3.9702,3.9229,3.9683,3.987,3.9889,3.9889,3.9889,3.9889,3.9889,3.9889,3.9908,3.9927,3.9889,3.9889,3.9946,3.9965,3.9965,4.0366,4.065,4.0707,4.0764,4.0858,4.0972,4.1313,4.1654,4.2052,4.2488,4.2716,4.2886,4.2773,4.2469,4.2109,4.1889,4.1491,4.0881,4.0444,4.0295,4.035,4.0309,4.0271,4.0176,4.0271,4.029,4.0385,4.0309,4.0233,4.0079,3.9949,4.01,4.0239,4.003,3.9515,3.9456,3.957,3.9399,3.9153,3.9494,3.9954,3.9982,4.0063,4.0233,4.0321,4.0411,4.0073,2.541,2.5546,2.5616,2.5578,2.5616,2.5616,2.5616,2.5616,2.5578,2.6005,2.6426,2.5966,2.6063,2.6338,2.6047,2.5707,2.5627,2.5578,2.5486,2.5512,2.7334,2.8103,2.8683,3.0096,3.0774,3.1106,3.119,3.119,3.119,3.119,3.119,3.119,3.119,3.119,3.119,3.123,3.1406,3.1726,3.2302,3.2862,3.3646,3.4364,3.5067,3.5632,3.6728,3.7834,3.8146,3.8681,3.9376,3.9575,3.9717,3.9807,3.9851,3.9832,3.987,3.9889,3.9889,3.9889,3.9984,4.0079,4.0157,4.0138,4.006,4.0233,4.0366,3.9984,3.9889,4.0249,4.0685,4.1275,4.1465,4.1768,4.1958,4.1977,4.2147,4.2412,4.2697,4.3189,4.3644,4.3777,4.372,4.3341,4.2697,4.2435,4.2458,4.1718,4.0994,4.0734,4.0921,4.0991,4.0953,4.1067,4.1465,4.1522,4.1181,4.1105,4.0972,4.0783,4.0574,4.0574,4.0937,4.0539,3.9889,3.9813,3.9759,3.9683,3.9589,3.9778,3.9785,3.9623,3.9775,4.0135,4.0319,4.0427,4.0038,2.5524,2.5616,2.5616,2.5616,2.5616,2.5616,2.5616,2.5616,2.5616,2.6021,2.6555,2.6523,2.6442,2.649,2.6338,2.5976,2.5535,2.5448,2.5394,2.5944,2.7355,2.819,2.8582,3.0141,3.1033,3.119,3.119,3.119,3.119,3.119,3.119,3.119,3.119,3.119,3.119,3.119,3.1269,3.1368,3.1728,3.2686,3.3841,3.5381,3.6508,3.6973,3.7845,3.8248,3.8556,3.8775,3.9165,3.9376,3.9551,3.9735,3.9889,3.9889,3.9889,3.9889,3.9889,3.9927,4.0135,4.0479,4.0745,4.1067,4.12,4.1181,4.0953,4.029,4.0154,4.0628,4.1253,4.1901,4.2356,4.2758,4.3061,4.3019,4.3019,4.3189,4.3379,4.391,4.4497,4.4554,4.4573,4.4099,4.3417,4.3194,4.3175,4.2587,4.1601,4.126,4.1734,4.192,4.1673,4.1863,4.2716,4.2773,4.228,4.1825,4.1673,4.173,4.1635,4.1635,4.1696,4.0896,4.0173,3.9965,3.9832,3.9759,3.9683,3.9702,3.9635,3.9509,3.9717,4.0191,4.0356,4.0479,4.0015,2.5562,2.5616,2.5616,2.5616,2.5616,2.5616,2.5616,2.5616,2.5616,2.5982,2.646,2.6299,2.6138,2.6138,2.6083,2.5947,2.5388,2.5371,2.5278,2.5796,2.7013,2.7869,2.8936,3.0151,3.0819,3.1151,3.119,3.119,3.119,3.119,3.119,3.1224,3.1224,3.1224,3.1224,3.1207,3.119,3.119,3.1402,3.2464,3.3987,3.5311,3.6486,3.7153,3.7985,3.8455,3.875,3.8947,3.9361,3.9799,4.0239,4.0023,4.0041,3.9889,3.9889,3.9889,3.9927,4.006,4.0479,4.0934,4.1446,4.1825,4.2033,4.192,4.1768,4.1181,4.0783,4.1291,4.2787,4.3568,4.3379,4.3606,4.391,4.4023,4.4042,4.4156,4.4232,4.4459,4.4743,4.4743,4.4768,4.4678,4.4227,4.4254,4.4121,4.3494,4.2503,4.1999,4.2431,4.2754,4.2526,4.2602,4.3398,4.3606,4.3114,4.264,4.2318,4.2412,4.264,4.2564,4.2397,4.1294,4.0498,4.0479,4.0233,3.9757,3.9721,3.984,3.9772,3.9662,3.9928,4.0288,4.0413,4.0495,4.0223,2.5524,2.5578,2.5616,2.5616,2.5578,2.5578,2.5562,2.5578,2.5578,2.5825,2.6188,2.5667,2.5442,2.5468,2.5445,2.5342,2.5294,2.524,2.5185,2.5806,2.7106,2.7923,2.8893,2.9992,3.0757,3.1151,3.119,3.119,3.119,3.1343,3.1478,3.136,3.1343,3.1343,3.1348,3.1241,3.1258,3.1438,3.1794,3.2576,3.3627,3.467,3.5809,3.6865,3.7802,3.8332,3.864,3.9121,3.9667,4.0184,4.0666,4.0424,4.0116,3.9889,3.9889,3.9908,4.029,4.0612,4.1048,4.1541,4.2033,4.2412,4.2564,4.2621,4.2526,4.2356,4.1958,4.2412,4.391,4.4497,4.4308,4.4289,4.4592,4.4762,4.4819,4.4838,4.4857,4.4876,4.4876,4.4895,4.49,4.4929,4.4953,4.5023,4.4699,4.411,4.3669,4.332,4.308,4.3265,4.3284,4.3436,4.3947,4.3966,4.3815,4.3549,4.3189,4.3379,4.3587,4.3478,4.308,4.2014,4.1351,4.1263,4.0959,4.0371,4.011,4.0152,4.0023,3.9852,4.0022,4.0285,4.0427,4.0492,4.0508,2.5562,2.5616,2.5616,2.5616,2.5578,2.5486,2.5432,2.5432,2.5371,2.5429,2.5509,2.5431,2.5479,2.6134,2.615,2.5831,2.5146,2.5162,2.5592,2.6214,2.7187,2.8013,2.9042,3.0135,3.0874,3.1145,3.1241,3.1224,3.1427,3.1816,3.2076,3.1985,3.2002,3.2015,3.1941,3.1834,3.1641,3.1904,3.2266,3.2968,3.399,3.4957,3.581,3.6826,3.7873,3.8267,3.8706,3.9381,3.984,4.0271,4.0645,4.0524,4.0204,3.9984,4.006,4.0271,4.0631,4.1162,4.1635,4.2393,4.2981,4.3398,4.3606,4.3834,4.3815,4.391,4.3568,4.3284,4.4326,4.4706,4.4649,4.4649,4.4857,4.4857,4.4876,4.4876,4.4876,4.4895,4.4895,4.4895,4.4895,4.49,4.4924,4.4948,4.4948,4.4417,4.4056,4.3782,4.4028,4.4042,4.3985,4.4213,4.4497,4.4668,4.4649,4.4497,4.427,4.4459,4.4421,4.4099,4.3568,4.2773,4.2284,4.2199,4.1692,4.1085,4.0859,4.0672,4.0234,4.008,4.0114,4.026,4.0419,4.0489,4.0489]},{"header":{"parameterUnit":"m.s-1","parameterCategory":1,"la1":31.0,"la2":29.5877,"lo1":-88.7671,"lo2":-86.6584,"dy":0.0162,"dx":0.0185,"nx":115,"ny":88,"refTime":"2024-02-20T06:00:00:Z","depth":0,"parameterNumber":3,"parameterNumberName":"V-component_of_WINDS"},"data":[0.0,0.0,0.0,0.0,0.0,0.0,0.0,0.0,0.0,0.0,0.0,0.0,0.0,0.0,0.0,0.0,0.0,0.0,0.0,0.0,0.0,0.0,0.0,0.0,0.0,0.0,0.0,0.0,0.0,0.0,0.0,0.0,0.0,0.0,0.0,0.0,0.0,0.0,0.0,0.0,0.0,0.0,0.0,0.0,0.0,0.0,0.0,0.0,0.0,0.0,0.0,0.0,0.0,0.0,0.0,0.0,0.0,0.0,0.0,0.0,0.0,0.0,0.0,0.0,0.0,0.0,0.0,0.0,0.0,0.0,0.0,0.0,0.0,0.0,0.0,0.0,0.0,0.0,0.0,0.0,0.0,0.0,0.0,0.0,0.0,0.0,0.0,0.0,0.0,0.0,0.0,0.0,0.0,0.0,0.0,0.0,0.0,0.0,0.0,0.0,0.0,0.0,0.0,0.0,0.0,0.0,0.0,0.0,0.0,0.0,0.0,0.0,0.0,0.0,0.0,0.0,0.0,0.0,0.0,0.0,0.0,0.0,0.0,0.0,0.0,0.0,0.0,0.0,0.0,0.0,0.0,0.0,0.0,0.0,0.0,0.0,0.0,0.0,0.0,0.0,0.0,0.0,0.0,0.0,0.0,0.0,0.0,0.0,0.0,0.0,0.0,0.0,0.0,0.0,0.0,0.0,0.0,0.0,0.0,0.0,0.0,0.0,0.0,0.0,0.0,0.0,0.0,0.0,0.0,0.0,0.0,0.0,0.0,0.0,0.0,0.0,0.0,0.0,0.0,0.0,0.0,0.0,0.0,0.0,0.0,0.0,0.0,0.0,0.0,0.0,0.0,0.0,0.0,0.0,0.0,0.0,0.0,0.0,0.0,0.0,0.0,0.0,0.0,0.0,0.0,0.0,0.0,0.0,0.0,0.0,0.0,0.0,0.0,0.0,0.0,0.0,0.0,0.0,0.0,0.0,0.0,0.0,0.0,0.0,0.0,0.0,0.0,0.0,0.0,0.0,0.0,0.0,0.0,0.0,0.0,0.0,0.0,0.0,0.0,0.0,0.0,0.0,0.0,0.0,0.0,0.0,0.0,0.0,0.0,0.0,0.0,0.0,0.0,0.0,0.0,0.0,0.0,0.0,0.0,0.0,0.0,0.0,0.0,0.0,0.0,0.0,0.0,0.0,0.0,0.0,0.0,0.0,0.0,0.0,0.0,0.0,0.0,0.0,0.0,0.0,0.0,0.0,0.0,0.0,0.0,0.0,0.0,0.0,0.0,0.0,0.0,0.0,0.0,0.0,0.0,0.0,0.0,0.0,0.0,0.0,0.0,0.0,0.0,0.0,0.0,0.0,0.0,0.0,0.0,0.0,0.0,0.0,0.0,0.0,0.0,0.0,0.0,0.0,0.0,0.0,0.0,0.0,0.0,0.0,0.0,0.0,0.0,0.0,0.0,0.0,0.0,0.0,0.0,0.0,0.0,0.0,0.0,0.0,0.0,0.0,0.0,0.0,0.0,0.0,0.0,0.0,0.0,0.0,0.0,0.0,0.0,0.0,0.0,0.0,0.0,0.0,0.0,0.0,0.0,0.0,0.0,0.0,0.0,0.0,0.0,0.0,0.0,0.0,0.0,0.0,0.0,0.0,0.0,0.0,0.0,0.0,0.0,0.0,0.0,0.0,0.0,0.0,0.0,0.0,0.0,0.0,0.0,0.0,0.0,0.0,0.0,0.0,0.0,0.0,0.0,0.0,0.0,0.0,0.0,0.0,0.0,0.0,0.0,0.0,0.0,0.0,0.0,0.0,0.0,0.0,0.0,0.0,0.0,0.0,0.0,0.0,0.0,0.0,0.0,0.0,0.0,0.0,0.0,0.0,0.0,0.0,0.0,0.0,0.0,0.0,0.0,0.0,0.0,0.0,0.0,0.0,0.0,0.0,0.0,0.0,0.0,0.0,0.0,0.0,0.0,0.0,0.0,0.0,0.0,0.0,0.0,0.0,0.0,0.0,0.0,0.0,0.0,0.0,0.0,0.0,0.0,0.0,0.0,0.0,0.0,0.0,0.0,0.0,0.0,0.0,0.0,0.0,0.0,0.0,0.0,0.0,0.0,0.0,0.0,0.0,0.0,0.0,0.0,0.0,0.0,0.0,0.0,0.0,0.0,0.0,0.0,0.0,0.0,0.0,0.0,0.0,0.0,0.0,0.0,0.0,0.0,0.0,0.0,0.0,0.0,0.0,0.0,0.0,0.0,0.0,0.0,0.0,0.0,0.0,0.0,0.0,0.0,0.0,0.0,0.0,0.0,0.0,0.0,0.0,0.0,0.0,0.0,0.0,0.0,0.0,0.0,0.0,0.0,0.0,0.0,0.0,0.0,0.0,0.0,0.0,0.0,0.0,0.0,0.0,0.0,0.0,0.0,0.0,0.0,0.0,0.0,0.0,0.0,0.0,0.0,0.0,0.0,0.0,0.0,0.0,0.0,0.0,0.0,0.0,0.0,0.0,0.0,0.0,0.0,0.0,0.0,0.0,0.0,0.0,0.0,0.0,0.0,0.0,0.0,0.0,0.0,0.0,0.0,0.0,0.0,0.0,0.0,0.0,0.0,0.0,0.0,0.0,0.0,0.0,0.0,0.0,0.0,0.0,0.0,0.0,0.0,0.0,0.0,0.0,0.0,0.0,0.0,0.0,0.0,0.0,0.0,0.0,0.0,0.0,0.0,0.0,0.0,0.0,0.0,0.0,0.0,0.0,0.0,0.0,0.0,0.0,0.0,0.0,0.0,0.0,0.0,0.0,0.0,0.0,0.0,0.0,0.0,0.0,0.0,0.0,0.0,0.0,0.0,0.0,0.0,0.0,0.0,0.0,0.0,0.0,0.0,0.0,0.0,0.0,0.0,0.0,0.0,0.0,0.0,0.0,0.0,0.0,0.0,0.0,0.0,0.0,0.0,0.0,0.0,0.0,0.0,0.0,0.0,0.0,0.0,0.0,0.0,0.0,0.0,0.0,0.0,0.0,0.0,0.0,0.0,0.0,0.0,0.0,0.0,0.0,0.0,0.0,0.0,0.0,0.0,0.0,0.0,0.0,0.0,0.0,0.0,0.0,0.0,0.0,0.0,0.0,0.0,0.0,0.0,0.0,0.0,0.0,0.0,0.0,0.0,0.0,0.0,0.0,0.0,0.0,0.0,0.0,0.0,0.0,0.0,0.0,0.0,0.0,0.0,0.0,0.0,0.0,0.0,0.0,0.0,0.0,0.0,0.0,0.0,0.0,0.0,0.0,0.0,0.0,0.0,0.0,0.0,0.0,0.0,0.0,0.0,0.0,0.0,0.0,0.0,0.0,0.0,0.0,0.0,0.0,0.0,0.0,0.0,0.0,0.0,0.0,0.0,0.0,0.0,0.0,0.0,0.0,0.0,0.0,0.0,0.0,0.0,0.0,0.0,0.0,0.0,0.0,0.0,0.0,0.0,0.0,0.0,0.0,0.0,0.0,0.0,0.0,0.0,0.0,0.0,0.0,0.0,0.0,0.0,0.0,0.0,0.0,0.0,0.0,0.0,0.0,0.0,0.0,0.0,0.0,0.0,0.0,0.0,0.0,0.0,0.0,0.0,0.0,0.0,0.0,0.0,0.0,0.0,0.0,0.0,0.0,0.0,0.0,0.0,0.0,0.0,0.0,0.0,0.0,0.0,0.0,0.0,0.0,0.0,0.0,0.0,0.0,0.0,0.0,0.0,0.0,0.0,0.0,0.0,0.0,0.0,0.0,0.0,0.0,0.0,0.0,0.0,0.0,0.0,0.0,0.0,0.0,0.0,0.0,0.0,0.0,0.0,0.0,0.0,0.0,0.0,0.0,0.0,0.0,0.0,0.0,0.0,0.0,0.0,0.0,0.0,0.0,0.0,0.0,0.0,0.0,0.0,0.0,0.0,0.0,0.0,0.0,0.0,0.0,0.0,0.0,0.0,0.0,0.0,0.0,0.0,0.0,0.0,0.0,0.0,0.0,0.0,0.0,0.0,0.0,0.0,0.0,0.0,0.0,0.0,0.0,0.0,0.0,0.0,0.0,0.0,0.0,0.0,0.0,0.0,0.0,0.0,0.0,0.0,0.0,0.0,0.0,0.0,0.0,0.0,0.0,0.0,0.0,0.0,0.0,0.0,0.0,0.0,0.0,0.0,0.0,0.0,0.0,0.0,0.0,0.0,0.0,0.0,0.0,0.0,0.0,0.0,0.0,0.0,0.0,0.0,0.0,0.0,0.0,0.0,0.0,-0.9805,0.0,0.0,0.0,0.0,0.0,0.0,0.0,0.0,0.0,0.0,0.0,0.0,0.0,0.0,0.0,0.0,0.0,0.0,0.0,0.0,0.0,0.0,0.0,0.0,0.0,0.0,0.0,0.0,0.0,0.0,0.0,0.0,0.0,0.0,0.0,0.0,0.0,0.0,0.0,0.0,0.0,0.0,0.0,0.0,0.0,0.0,0.0,0.0,0.0,0.0,0.0,0.0,0.0,0.0,0.0,0.0,0.0,0.0,0.0,0.0,0.0,0.0,0.0,0.0,0.0,0.0,0.0,0.0,0.0,0.0,0.0,0.0,0.0,0.0,0.0,0.0,0.0,0.0,0.0,0.0,0.0,0.0,0.0,0.0,0.0,0.0,0.0,0.0,0.0,0.0,0.0,0.0,0.0,0.0,0.0,0.0,0.0,0.0,0.0,0.0,0.0,0.0,0.0,0.0,0.0,0.0,0.0,0.0,0.0,0.0,-0.8594,-0.8616,-0.8516,-0.8647,-0.9107,0.0,0.0,0.0,0.0,0.0,0.0,0.0,0.0,0.0,0.0,0.0,0.0,0.0,0.0,0.0,0.0,0.0,0.0,0.0,0.0,0.0,0.0,0.0,0.0,0.0,0.0,0.0,0.0,0.0,0.0,0.0,0.0,0.0,0.0,0.0,0.0,0.0,0.0,0.0,0.0,0.0,0.0,0.0,0.0,0.0,0.0,0.0,0.0,0.0,0.0,0.0,0.0,0.0,0.0,0.0,0.0,0.0,0.0,0.0,0.0,0.0,0.0,0.0,0.0,0.0,0.0,0.0,0.0,0.0,0.0,0.0,0.0,0.0,0.0,0.0,0.0,0.0,0.0,0.0,0.0,0.0,0.0,0.0,0.0,0.0,0.0,0.0,0.0,0.0,0.0,0.0,0.0,0.0,0.0,0.0,0.0,0.0,0.0,0.0,0.0,0.0,0.0,0.0,0.0,0.0,0.0,0.0,0.0,0.0,0.0,0.0,0.0,-0.8345,-0.865,-0.8969,0.0,0.0,0.0,0.0,0.0,0.0,0.0,0.0,0.0,0.0,0.0,0.0,0.0,0.0,0.0,0.0,0.0,0.0,0.0,0.0,0.0,0.0,0.0,0.0,0.0,0.0,0.0,0.0,0.0,0.0,0.0,0.0,0.0,0.0,0.0,0.0,0.0,0.0,0.0,0.0,0.0,0.0,0.0,0.0,0.0,0.0,0.0,0.0,0.0,0.0,0.0,0.0,0.0,0.0,0.0,0.0,0.0,0.0,0.0,0.0,0.0,0.0,0.0,0.0,0.0,0.0,0.0,0.0,0.0,0.0,0.0,0.0,0.0,0.0,0.0,0.0,0.0,0.0,0.0,0.0,0.0,0.0,0.0,0.0,0.0,0.0,0.0,0.0,0.0,0.0,0.0,0.0,0.0,0.0,0.0,0.0,0.0,0.0,0.0,0.0,0.0,0.0,0.0,0.0,0.0,0.0,0.0,0.0,0.0,0.0,-0.8241,-0.8961,-0.9015,0.0,-1.0339,0.0,0.0,0.0,0.0,0.0,0.0,0.0,0.0,0.0,0.0,0.0,0.0,0.0,0.0,0.0,0.0,0.0,0.0,0.0,0.0,0.0,0.0,0.0,0.0,0.0,0.0,0.0,0.0,0.0,0.0,0.0,0.0,0.0,0.0,0.0,0.0,0.0,0.0,0.0,0.0,0.0,0.0,0.0,0.0,0.0,0.0,0.0,0.0,0.0,0.0,0.0,0.0,0.0,0.0,0.0,0.0,0.0,0.0,0.0,0.0,0.0,0.0,0.0,0.0,0.0,0.0,0.0,0.0,0.0,0.0,0.0,0.0,0.0,0.0,0.0,0.0,0.0,0.0,0.0,0.0,0.0,0.0,0.0,0.0,0.0,0.0,0.0,0.0,0.0,0.0,0.0,0.0,0.0,0.0,0.0,0.0,0.0,0.0,0.0,0.0,0.0,0.0,0.0,0.0,0.0,0.0,0.0,0.0,0.0,0.0,-0.7068,-0.7909,-0.8266,-0.8693,0.0,0.0,0.0,0.0,0.0,0.0,0.0,0.0,0.0,0.0,0.0,0.0,0.0,0.0,0.0,0.0,0.0,0.0,0.0,0.0,0.0,0.0,0.0,0.0,0.0,0.0,0.0,0.0,0.0,0.0,0.0,0.0,0.0,0.0,0.0,0.0,0.0,0.0,0.0,0.0,0.0,0.0,0.0,0.0,0.0,0.0,0.0,0.0,0.0,0.0,0.0,0.0,0.0,0.0,0.0,0.0,0.0,0.0,0.0,0.0,0.0,0.0,0.0,0.0,0.0,0.0,0.0,0.0,0.0,0.0,0.0,0.0,0.0,0.0,0.0,0.0,0.0,0.0,0.0,0.0,0.0,0.0,0.0,0.0,0.0,0.0,0.0,0.0,0.0,0.0,0.0,0.0,0.0,0.0,0.0,0.0,0.0,0.0,0.0,0.0,0.0,0.0,0.0,0.0,0.0,0.0,0.0,0.0,0.0,0.0,-0.6431,-0.6547,-0.7665,-0.7588,-0.7958,-0.8915,0.0,0.0,0.0,0.0,0.0,0.0,0.0,0.0,0.0,0.0,0.0,0.0,0.0,0.0,0.0,0.0,0.0,0.0,0.0,0.0,0.0,0.0,0.0,0.0,0.0,0.0,0.0,0.0,0.0,0.0,0.0,0.0,0.0,0.0,0.0,0.0,0.0,0.0,0.0,0.0,0.0,0.0,0.0,0.0,0.0,0.0,0.0,0.0,0.0,0.0,0.0,0.0,0.0,0.0,0.0,0.0,0.0,0.0,0.0,0.0,0.0,0.0,0.0,0.0,0.0,0.0,0.0,0.0,0.0,0.0,0.0,0.0,0.0,0.0,0.0,0.0,0.0,0.0,0.0,0.0,0.0,0.0,0.0,0.0,0.0,0.0,0.0,0.0,0.0,0.0,0.0,0.0,0.0,0.0,0.0,0.0,0.0,0.0,0.0,0.0,0.0,0.0,0.0,0.0,0.0,0.0,0.0,0.0,-0.8164,-0.7049,-0.7361,-0.9096,-0.7327,-0.7618,0.0,0.0,0.0,0.0,0.0,0.0,0.0,0.0,0.0,0.0,0.0,0.0,0.0,0.0,0.0,0.0,0.0,0.0,0.0,0.0,0.0,0.0,0.0,0.0,0.0,0.0,0.0,0.0,0.0,0.0,0.0,0.0,0.0,0.0,0.0,0.0,0.0,0.0,0.0,0.0,0.0,0.0,0.0,0.0,0.0,0.0,0.0,0.0,0.0,0.0,0.0,0.0,0.0,0.0,0.0,0.0,0.0,0.0,0.0,0.0,0.0,0.0,0.0,0.0,0.0,0.0,0.0,0.0,0.0,0.0,0.0,0.0,0.0,0.0,0.0,0.0,0.0,0.0,0.0,0.0,0.0,0.0,0.0,0.0,0.0,0.0,0.0,0.0,0.0,0.0,0.0,0.0,0.0,0.0,0.0,0.0,0.0,0.0,0.0,0.0,0.0,0.0,0.0,0.0,0.0,0.0,0.0,0.0,0.0,-0.6993,-0.6569,-0.6478,-0.6782,-0.7225,-0.7911,0.0,0.0,0.0,0.0,0.0,0.0,0.0,0.0,0.0,0.0,0.0,0.0,0.0,0.0,0.0,0.0,0.0,0.0,0.0,0.0,0.0,0.0,0.0,0.0,0.0,0.0,0.0,0.0,0.0,0.0,0.0,0.0,0.0,0.0,0.0,0.0,0.0,0.0,0.0,0.0,0.0,0.0,0.0,0.0,0.0,0.0,0.0,0.0,0.0,0.0,0.0,0.0,0.0,0.0,0.0,0.0,0.0,0.0,0.0,0.0,0.0,0.0,0.0,0.0,0.0,0.0,0.0,0.0,0.0,0.0,0.0,0.0,0.0,0.0,0.0,0.0,0.0,0.0,0.0,0.0,0.0,0.0,0.0,0.0,0.0,0.0,0.0,0.0,0.0,0.0,0.0,0.0,0.0,0.0,0.0,0.0,0.0,0.0,0.0,0.0,0.0,0.0,0.0,0.0,0.0,0.0,0.0,0.0,0.0,-0.6128,0.0,-0.5847,-0.577,-0.6889,-0.7678,0.0,0.0,0.0,0.0,0.0,0.0,0.0,0.0,0.0,0.0,0.0,0.0,0.0,0.0,0.0,0.0,0.0,0.0,0.0,0.0,0.0,0.0,0.0,0.0,0.0,0.0,0.0,0.0,0.0,0.0,0.0,0.0,0.0,0.0,0.0,0.0,0.0,0.0,0.0,0.0,0.0,0.0,0.0,0.0,0.0,0.0,0.0,0.0,0.0,0.0,0.0,0.0,0.0,0.0,0.0,0.0,0.0,0.0,0.0,0.0,0.0,0.0,0.0,0.0,0.0,0.0,0.0,0.0,0.0,0.0,0.0,0.0,0.0,0.0,0.0,0.0,0.0,0.0,0.0,0.0,0.0,0.0,0.0,0.0,0.0,0.0,0.0,0.0,0.0,0.0,0.0,0.0,0.0,0.0,0.0,0.0,0.0,0.0,0.0,0.0,0.0,0.0,0.0,0.0,0.0,0.0,0.0,0.0,-0.7476,-0.5742,-0.5302,-0.552,-0.6528,-0.6268,-0.6936,0.0,0.0,0.0,0.0,0.0,0.0,0.0,0.0,0.0,0.0,0.0,0.0,0.0,0.0,0.0,0.0,0.0,0.0,0.0,0.0,0.0,0.0,0.0,0.0,0.0,0.0,0.0,0.0,0.0,0.0,0.0,0.0,0.0,0.0,0.0,0.0,0.0,0.0,0.0,0.0,0.0,0.0,0.0,0.0,0.0,0.0,0.0,0.0,0.0,0.0,0.0,0.0,0.0,0.0,0.0,0.0,0.0,0.0,0.0,0.0,0.0,0.0,0.0,0.0,0.0,0.0,0.0,0.0,0.0,0.0,0.0,0.0,0.0,0.0,0.0,0.0,0.0,0.0,0.0,0.0,0.0,0.0,0.0,0.0,0.0,0.0,0.0,0.0,0.0,0.0,0.0,0.0,0.0,0.0,0.0,0.0,0.0,0.0,0.0,0.0,0.0,0.0,0.0,0.0,0.0,0.0,0.0,0.0,0.0,-0.4779,-0.4245,-0.4403,-0.5174,-0.5525,-0.6405,0.0,0.0,0.0,0.0,0.0,0.0,0.0,0.0,0.0,0.0,0.0,0.0,0.0,0.0,0.0,0.0,0.0,0.0,0.0,0.0,0.0,0.0,0.0,0.0,0.0,0.0,0.0,0.0,0.0,0.0,0.0,0.0,0.0,0.0,0.0,0.0,0.0,0.0,0.0,0.0,0.0,0.0,0.0,0.0,0.0,0.0,0.0,0.0,0.0,0.0,0.0,0.0,0.0,0.0,0.0,0.0,0.0,0.0,0.0,0.0,0.0,0.0,0.0,0.0,0.0,0.0,0.0,0.0,0.0,0.0,0.0,0.0,0.0,0.0,0.0,0.0,0.0,0.0,0.0,0.0,0.0,0.0,0.0,0.0,0.0,0.0,0.0,0.0,0.0,0.0,0.0,0.0,0.0,0.0,0.0,0.0,0.0,0.0,0.0,0.0,0.0,0.0,0.0,0.0,0.0,0.0,0.0,0.0,0.0,-0.4215,-0.3692,-0.3579,-0.3974,-0.4785,-0.582,-0.7067,0.0,0.0,0.0,0.0,0.0,0.0,0.0,0.0,0.0,0.0,0.0,0.0,0.0,0.0,0.0,0.0,0.0,0.0,0.0,0.0,0.0,0.0,0.0,0.0,0.0,0.0,0.0,0.0,0.0,0.0,0.0,0.0,0.0,0.0,0.0,0.0,0.0,0.0,0.0,0.0,0.0,0.0,0.0,0.0,0.0,0.0,0.0,0.0,0.0,0.0,0.0,0.0,0.0,0.0,0.0,0.0,0.0,0.0,0.0,0.0,0.0,0.0,0.0,0.0,0.0,0.0,0.0,0.0,0.0,0.0,0.0,0.0,0.0,0.0,0.0,0.0,0.0,0.0,0.0,0.0,0.0,0.0,0.0,0.0,0.0,0.0,0.0,0.0,0.0,0.0,0.0,0.0,0.0,0.0,0.0,0.0,0.0,0.0,0.0,0.0,0.0,0.0,0.0,0.0,0.0,0.0,0.0,0.0,-0.4005,-0.347,-0.3076,-0.2905,-0.4071,-0.5167,0.0,0.0,0.0,0.0,0.0,0.0,0.0,0.0,0.0,0.0,0.0,0.0,0.0,0.0,0.0,0.0,0.0,0.0,0.0,0.0,0.0,0.0,0.0,0.0,0.0,0.0,0.0,0.0,0.0,0.0,0.0,0.0,0.0,0.0,0.0,0.0,0.0,0.0,0.0,0.0,0.0,0.0,0.0,0.0,0.0,0.0,0.0,0.0,0.0,0.0,0.0,0.0,0.0,0.0,0.0,0.0,0.0,0.0,0.0,0.0,0.0,0.0,0.0,0.0,0.0,0.0,0.0,0.0,0.0,0.0,0.0,0.0,0.0,0.0,0.0,0.0,0.0,0.0,0.0,0.0,0.0,0.0,0.0,0.0,0.0,0.0,0.0,0.0,0.0,0.0,0.0,0.0,0.0,0.0,0.0,0.0,0.0,0.0,0.0,0.0,0.0,0.0,0.0,0.0,0.0,0.0,0.0,0.0,0.0,-0.4079,-0.2513,-0.194,-0.2509,-0.3397,-0.4477,0.0,0.0,0.0,0.0,0.0,0.0,0.0,0.0,0.0,0.0,0.0,0.0,0.0,0.0,0.0,0.0,0.0,0.0,0.0,0.0,0.0,0.0,0.0,0.0,0.0,0.0,0.0,0.0,0.0,0.0,0.0,0.0,0.0,0.0,0.0,0.0,0.0,0.0,0.0,0.0,0.0,0.0,0.0,0.0,0.0,0.0,0.0,0.0,0.0,0.0,0.0,0.0,0.0,0.0,0.0,0.0,0.0,0.0,0.0,0.0,0.0,0.0,0.0,0.0,0.0,0.0,0.0,0.0,0.0,0.0,0.0,0.0,0.0,0.0,0.0,0.0,0.0,0.0,0.0,0.0,0.0,0.0,0.0,0.0,0.0,0.0,0.0,0.0,0.0,0.0,0.0,0.0,0.0,0.0,0.0,0.0,0.0,0.0,0.0,0.0,0.0,0.0,0.0,0.0,0.0,0.0,0.0,0.0,-0.4963,-0.3475,-0.1881,-0.1398,-0.2254,-0.3032,-0.4003,0.0,0.0,0.0,0.0,0.0,0.0,0.0,0.0,0.0,0.0,0.0,0.0,0.0,0.0,0.0,0.0,0.0,0.0,0.0,0.0,0.0,0.0,0.0,0.0,0.0,0.0,0.0,0.0,0.0,0.0,0.0,0.0,0.0,0.0,0.0,0.0,0.0,0.0,0.0,0.0,0.0,0.0,0.0,0.0,0.0,0.0,0.0,0.0,0.0,0.0,0.0,0.0,0.0,0.0,0.0,0.0,0.0,0.0,0.0,0.0,0.0,0.0,0.0,0.0,0.0,0.0,0.0,0.0,0.0,0.0,0.0,0.0,0.0,0.0,0.0,0.0,0.0,0.0,0.0,0.0,0.0,0.0,0.0,0.0,0.0,0.0,0.0,0.0,0.0,0.0,0.0,0.0,0.0,0.0,0.0,0.0,0.0,0.0,0.0,0.0,0.0,0.0,0.0,0.0,0.0,0.0,0.0,0.0,-0.4217,-0.255,-0.1519,-0.131,-0.205,-0.2819,-0.3676,0.0,0.0,0.0,0.0,0.0,0.0,0.0,0.0,0.0,0.0,0.0,0.0,0.0,0.0,0.0,0.0,0.0,0.0,0.0,0.0,0.0,0.0,0.0,0.0,0.0,0.0,0.0,0.0,0.0,0.0,0.0,0.0,0.0,0.0,0.0,0.0,0.0,0.0,0.0,0.0,0.0,0.0,0.0,0.0,0.0,0.0,0.0,0.0,0.0,0.0,0.0,0.0,0.0,0.0,0.0,0.0,0.0,0.0,0.0,0.0,0.0,0.0,0.0,0.0,0.0,0.0,0.0,0.0,0.0,0.0,0.0,0.0,0.0,0.0,0.0,0.0,0.0,0.0,0.0,0.0,0.0,0.0,0.0,0.0,0.0,0.0,0.0,0.0,0.0,0.0,0.0,0.0,0.0,0.0,0.0,0.0,0.0,0.0,0.0,0.0,0.0,0.0,0.0,0.0,0.0,0.0,0.0,0.0,-0.3682,-0.1943,-0.1588,-0.1579,-0.1845,-0.2421,-0.3482,0.0,0.0,0.0,0.0,0.0,0.0,0.0,0.0,0.0,0.0,0.0,0.0,0.0,0.0,0.0,0.0,0.0,0.0,0.0,0.0,0.0,0.0,0.0,0.0,0.0,0.0,0.0,0.0,0.0,0.0,0.0,0.0,0.0,0.0,0.0,0.0,0.0,0.0,0.0,0.0,0.0,0.0,0.0,0.0,0.0,0.0,0.0,0.0,-0.6943,0.0,0.0,0.0,0.0,0.0,0.0,0.0,0.0,0.0,0.0,0.0,0.0,0.0,0.0,0.0,0.0,0.0,0.0,0.0,0.0,0.0,0.0,0.0,0.0,0.0,0.0,0.0,0.0,0.0,0.0,0.0,0.0,0.0,0.0,0.0,0.0,0.0,0.0,0.0,0.0,0.0,0.0,0.0,0.0,0.0,0.0,0.0,0.0,0.0,0.0,0.0,0.0,0.0,0.0,0.0,0.0,0.0,0.0,0.0,-0.3273,-0.1782,-0.1633,-0.1751,-0.2011,-0.2279,-0.315,0.0,0.0,0.0,0.0,0.0,0.0,0.0,0.0,0.0,0.0,0.0,0.0,0.0,0.0,0.0,0.0,0.0,0.0,0.0,0.0,0.0,0.0,0.0,0.0,0.0,0.0,0.0,0.0,0.0,0.0,0.0,0.0,0.0,0.0,0.0,0.0,0.0,0.0,0.0,0.0,0.0,0.0,0.0,0.0,0.0,0.0,0.0,0.0,0.0,0.0,0.0,0.0,0.0,0.0,0.0,0.0,0.0,0.0,0.0,0.0,0.0,0.0,0.0,0.0,0.0,0.0,0.0,0.0,0.0,0.0,0.0,0.0,0.0,0.0,0.0,0.0,0.0,0.0,0.0,0.0,0.0,0.0,0.0,0.0,0.0,0.0,0.0,0.0,0.0,0.0,0.0,0.0,0.0,0.0,0.0,0.0,0.0,0.0,0.0,0.0,0.0,0.0,0.0,0.0,0.0,0.0,0.0,-0.3881,-0.2874,-0.1752,-0.1642,-0.1816,-0.2183,-0.2222,-0.2823,-0.4146,0.0,0.0,0.0,0.0,0.0,0.0,0.0,0.0,0.0,0.0,0.0,0.0,0.0,0.0,0.0,0.0,0.0,0.0,0.0,0.0,0.0,0.0,0.0,0.0,0.0,0.0,0.0,0.0,0.0,0.0,0.0,0.0,0.0,0.0,0.0,0.0,0.0,0.0,-0.7911,-0.747,0.0,0.0,0.0,0.0,0.0,0.0,0.0,0.0,-0.7215,0.0,0.0,0.0,0.0,0.0,0.0,0.0,0.0,0.0,0.0,0.0,0.0,0.0,0.0,0.0,0.0,0.0,0.0,0.0,0.0,0.0,0.0,0.0,0.0,0.0,0.0,0.0,0.0,0.0,0.0,0.0,0.0,0.0,0.0,0.0,0.0,0.0,0.0,0.0,0.0,0.0,0.0,0.0,0.0,0.0,0.0,0.0,0.0,0.0,0.0,0.0,0.0,0.0,0.0,0.0,0.0,-0.5436,-0.3788,-0.2486,-0.165,-0.1603,-0.1678,-0.1807,-0.2062,-0.2823,-0.4156,0.0,0.0,0.0,0.0,0.0,0.0,0.0,0.0,0.0,0.0,0.0,0.0,0.0,0.0,0.0,0.0,0.0,0.0,0.0,0.0,0.0,0.0,0.0,0.0,0.0,0.0,0.0,0.0,0.0,0.0,0.0,0.0,0.0,0.0,0.0,0.0,0.0,0.0,0.0,-0.8022,-0.7576,0.0,0.0,0.0,0.0,0.0,0.0,0.0,0.0,-0.6431,0.0,0.0,0.0,0.0,0.0,0.0,0.0,0.0,0.0,0.0,0.0,0.0,0.0,0.0,0.0,0.0,0.0,0.0,0.0,0.0,0.0,0.0,0.0,0.0,0.0,0.0,0.0,0.0,0.0,0.0,0.0,0.0,0.0,0.0,0.0,0.0,0.0,0.0,0.0,0.0,0.0,0.0,0.0,0.0,0.0,0.0,0.0,0.0,0.0,0.0,0.0,0.0,0.0,0.0,0.0,-0.4552,-0.3184,-0.2196,-0.1603,-0.1509,-0.1546,-0.1707,-0.2119,-0.3054,0.0,0.0,0.0,0.0,0.0,0.0,0.0,0.0,0.0,0.0,0.0,0.0,0.0,0.0,0.0,0.0,0.0,0.0,0.0,0.0,0.0,0.0,0.0,0.0,0.0,0.0,0.0,0.0,0.0,0.0,0.0,0.0,0.0,0.0,0.0,0.0,0.0,0.0,0.0,0.0,-0.8099,-0.7582,-0.7897,0.0,0.0,0.0,0.0,0.0,0.0,-0.6037,-0.6157,0.0,0.0,0.0,0.0,0.0,0.0,0.0,0.0,0.0,0.0,0.0,0.0,0.0,0.0,0.0,0.0,0.0,0.0,0.0,0.0,0.0,0.0,0.0,0.0,0.0,0.0,0.0,0.0,0.0,0.0,0.0,0.0,0.0,0.0,0.0,0.0,0.0,0.0,0.0,0.0,0.0,0.0,0.0,0.0,0.0,0.0,0.0,0.0,0.0,0.0,0.0,0.0,0.0,0.0,0.0,-0.3617,-0.2627,-0.1938,-0.1573,-0.1414,-0.1445,-0.1673,-0.2088,-0.3095,0.0,0.0,0.0,0.0,0.0,0.0,0.0,0.0,0.0,0.0,0.0,0.0,0.0,0.0,0.0,0.0,0.0,0.0,0.0,0.0,0.0,0.0,0.0,0.0,0.0,0.0,0.0,0.0,0.0,0.0,0.0,0.0,0.0,0.0,0.0,0.0,0.0,0.0,0.0,0.0,0.0,-0.7748,-0.8164,-0.76,0.0,0.0,0.0,0.0,-0.6422,-0.6042,0.0,0.0,0.0,0.0,0.0,0.0,0.0,0.0,0.0,0.0,0.0,0.0,0.0,0.0,0.0,0.0,0.0,0.0,0.0,0.0,0.0,0.0,0.0,0.0,0.0,0.0,0.0,0.0,0.0,0.0,0.0,0.0,0.0,0.0,0.0,0.0,0.0,0.0,0.0,0.0,0.0,0.0,0.0,0.0,0.0,0.0,0.0,0.0,0.0,0.0,0.0,0.0,0.0,0.0,0.0,0.0,-0.3548,-0.2515,-0.18,-0.1378,-0.1447,-0.1514,-0.1607,-0.1688,-0.2689,0.0,0.0,0.0,0.0,0.0,0.0,0.0,0.0,0.0,0.0,0.0,0.0,0.0,0.0,0.0,0.0,0.0,0.0,0.0,0.0,0.0,0.0,0.0,0.0,0.0,0.0,0.0,0.0,0.0,0.0,0.0,0.0,0.0,0.0,0.0,0.0,0.0,0.0,0.0,0.0,0.0,-0.8624,-0.8629,-0.7845,-0.6993,0.0,0.0,0.0,-0.6271,-0.6289,0.0,0.0,0.0,0.0,0.0,0.0,0.0,0.0,0.0,0.0,0.0,0.0,0.0,0.0,0.0,0.0,0.0,0.0,0.0,0.0,0.0,0.0,0.0,0.0,0.0,0.0,0.0,0.0,0.0,0.0,0.0,0.0,0.0,0.0,0.0,0.0,0.0,0.0,0.0,0.0,0.0,0.0,0.0,0.0,0.0,0.0,0.0,0.0,0.0,0.0,0.0,0.0,0.0,0.0,0.0,-0.538,-0.4161,-0.2482,-0.1548,-0.1415,-0.1315,-0.1401,-0.1719,-0.1732,-0.2653,0.0,0.0,0.0,0.0,0.0,0.0,0.0,0.0,0.0,0.0,0.0,0.0,0.0,0.0,0.0,0.0,0.0,0.0,0.0,0.0,0.0,0.0,0.0,0.0,0.0,0.0,0.0,0.0,0.0,0.0,0.0,0.0,0.0,0.0,0.0,0.0,0.0,0.0,0.0,0.0,0.0,0.0,-0.8597,-0.8078,0.0,0.0,0.0,-0.6253,-0.5898,0.0,0.0,0.0,0.0,0.0,0.0,0.0,0.0,0.0,0.0,0.0,0.0,0.0,0.0,0.0,0.0,0.0,0.0,0.0,0.0,0.0,0.0,0.0,0.0,0.0,0.0,0.0,0.0,0.0,0.0,0.0,0.0,0.0,0.0,0.0,0.0,0.0,0.0,0.0,0.0,0.0,0.0,0.0,0.0,0.0,0.0,0.0,0.0,0.0,0.0,0.0,0.0,0.0,0.0,0.0,0.0,0.0,-0.464,-0.255,-0.1447,-0.1415,-0.1247,-0.1381,-0.1846,-0.1902,0.0,0.0,0.0,0.0,0.0,0.0,0.0,0.0,0.0,0.0,0.0,0.0,0.0,0.0,0.0,0.0,0.0,0.0,0.0,0.0,0.0,0.0,0.0,0.0,0.0,0.0,0.0,0.0,0.0,0.0,0.0,0.0,0.0,0.0,0.0,0.0,0.0,0.0,0.0,0.0,0.0,0.0,-0.8182,-0.835,-0.8095,-0.7541,0.0,0.0,-0.6495,-0.6076,-0.6036,-0.6276,0.0,0.0,0.0,0.0,0.0,0.0,0.0,0.0,0.0,0.0,0.0,0.0,0.0,0.0,0.0,0.0,0.0,0.0,0.0,0.0,0.0,0.0,0.0,0.0,0.0,0.0,0.0,0.0,0.0,0.0,0.0,0.0,0.0,0.0,0.0,0.0,0.0,0.0,0.0,0.0,0.0,0.0,0.0,0.0,0.0,0.0,0.0,0.0,0.0,0.0,0.0,0.0,0.0,0.0,0.0,-0.4471,-0.2747,-0.1646,-0.1246,-0.1281,-0.1556,-0.2066,-0.2012,-0.2873,0.0,0.0,0.0,0.0,0.0,0.0,0.0,0.0,0.0,0.0,0.0,0.0,0.0,0.0,0.0,0.0,0.0,0.0,0.0,0.0,0.0,0.0,0.0,0.0,0.0,0.0,0.0,0.0,0.0,0.0,0.0,0.0,0.0,0.0,0.0,0.0,0.0,0.0,0.0,0.0,0.0,-0.8582,-0.7936,-0.7794,-0.7509,0.0,0.0,-0.7531,-0.7228,-0.7289,-0.7303,-0.6955,0.0,0.0,0.0,0.0,0.0,0.0,0.0,0.0,0.0,0.0,0.0,0.0,0.0,0.0,0.0,0.0,0.0,0.0,0.0,0.0,0.0,0.0,0.0,0.0,0.0,0.0,0.0,0.0,0.0,0.0,0.0,0.0,0.0,0.0,0.0,0.0,0.0,0.0,0.0,0.0,0.0,0.0,0.0,0.0,0.0,0.0,0.0,0.0,0.0,0.0,0.0,0.0,0.0,-0.568,-0.4765,-0.2773,-0.1644,-0.1479,-0.1424,-0.1665,-0.2204,-0.2197,-0.2867,0.0,0.0,0.0,0.0,0.0,0.0,0.0,0.0,0.0,0.0,0.0,0.0,0.0,0.0,0.0,0.0,0.0,0.0,0.0,0.0,0.0,0.0,0.0,0.0,0.0,0.0,0.0,0.0,-0.7547,-0.7718,-0.7754,0.0,0.0,0.0,0.0,0.0,0.0,0.0,0.0,0.0,0.0,-0.8001,-0.8074,-0.8057,0.0,0.0,-0.7516,-0.7833,-0.7214,-0.7345,-0.7485,-0.7592,-0.8007,0.0,0.0,0.0,0.0,0.0,0.0,0.0,0.0,0.0,0.0,0.0,0.0,0.0,0.0,0.0,0.0,0.0,0.0,0.0,0.0,0.0,0.0,0.0,0.0,0.0,0.0,0.0,0.0,0.0,0.0,0.0,0.0,0.0,0.0,0.0,0.0,0.0,0.0,0.0,0.0,0.0,0.0,0.0,0.0,0.0,0.0,0.0,0.0,0.0,0.0,0.0,0.0,-0.5785,-0.4947,-0.2914,-0.1836,-0.1763,-0.1788,-0.2052,-0.2544,-0.2624,-0.3129,0.0,0.0,0.0,0.0,0.0,0.0,0.0,0.0,0.0,0.0,0.0,0.0,0.0,0.0,0.0,0.0,0.0,0.0,0.0,0.0,0.0,0.0,0.0,0.0,0.0,0.0,0.0,0.0,-0.7491,-0.7951,-0.8519,0.0,0.0,0.0,0.0,0.0,0.0,0.0,0.0,0.0,0.0,-0.7666,-0.7821,-0.8056,-0.7982,-0.7373,-0.7862,-0.8143,-0.7519,-0.7568,-0.7757,-0.807,0.0,0.0,0.0,0.0,0.0,0.0,0.0,0.0,0.0,0.0,0.0,0.0,0.0,0.0,0.0,0.0,0.0,0.0,0.0,0.0,0.0,0.0,0.0,0.0,0.0,0.0,0.0,0.0,0.0,0.0,0.0,0.0,0.0,0.0,0.0,0.0,0.0,0.0,0.0,0.0,0.0,0.0,0.0,0.0,0.0,0.0,0.0,0.0,0.0,0.0,0.0,0.0,0.0,0.0,-0.5012,-0.3188,-0.2233,-0.2103,-0.2423,-0.2714,-0.3077,-0.3349,-0.3766,-0.4374,0.0,0.0,0.0,0.0,0.0,0.0,0.0,0.0,0.0,0.0,0.0,0.0,0.0,0.0,0.0,0.0,0.0,0.0,0.0,0.0,0.0,0.0,0.0,0.0,0.0,0.0,-0.6525,-0.6908,-0.7738,0.0,0.0,0.0,0.0,0.0,0.0,0.0,0.0,0.0,0.0,-0.7788,-0.7877,-0.7058,-0.7645,-0.8184,-0.8444,-0.8501,-0.8456,-0.8375,-0.8215,-0.8196,0.0,0.0,0.0,0.0,0.0,0.0,0.0,0.0,0.0,0.0,0.0,0.0,0.0,0.0,0.0,0.0,0.0,0.0,0.0,0.0,0.0,0.0,0.0,0.0,0.0,0.0,0.0,0.0,-1.1789,0.0,0.0,0.0,0.0,0.0,0.0,0.0,0.0,0.0,0.0,0.0,-1.2025,-1.1099,0.0,0.0,0.0,0.0,0.0,0.0,0.0,0.0,0.0,0.0,0.0,0.0,-0.5891,-0.511,-0.3297,-0.2441,-0.2627,-0.2753,-0.303,-0.349,-0.358,-0.3772,-0.3963,0.0,0.0,0.0,0.0,0.0,0.0,0.0,0.0,0.0,0.0,0.0,0.0,0.0,0.0,0.0,0.0,0.0,0.0,0.0,0.0,0.0,0.0,0.0,0.0,0.0,-0.7025,0.0,0.0,0.0,0.0,0.0,0.0,0.0,0.0,0.0,0.0,0.0,-0.8956,-0.8143,-0.7629,-0.7442,-0.7628,-0.7736,-0.7849,0.0,0.0,0.0,0.0,0.0,0.0,0.0,0.0,0.0,0.0,0.0,0.0,0.0,0.0,-0.854,-0.8015,-0.7704,-0.7459,-0.7115,0.0,0.0,0.0,0.0,0.0,0.0,0.0,0.0,0.0,0.0,0.0,0.0,0.0,0.0,0.0,0.0,-1.1697,0.0,0.0,0.0,0.0,0.0,0.0,0.0,0.0,-1.2034,-1.1984,-1.2047,-1.1103,-1.118,0.0,-1.1777,-1.2235,0.0,0.0,0.0,0.0,0.0,0.0,0.0,0.0,-0.6159,-0.5227,-0.3444,-0.2725,-0.3043,-0.3178,-0.3486,-0.3912,-0.3928,-0.3825,-0.3598,-0.3496,-0.3558,0.0,0.0,0.0,0.0,0.0,0.0,0.0,0.0,0.0,0.0,0.0,0.0,0.0,0.0,0.0,0.0,0.0,0.0,0.0,0.0,0.0,0.0,0.0,-0.6305,0.0,0.0,0.0,0.0,0.0,0.0,0.0,0.0,0.0,-0.9158,-0.9033,-0.8646,-0.8011,-0.7537,-0.7385,-0.7877,0.0,0.0,0.0,0.0,0.0,0.0,0.0,-0.8564,-0.8795,-0.8644,-0.8402,-0.8265,-0.8389,-0.8352,-0.8145,0.0,0.0,-0.7225,-0.6875,-0.6409,-0.5975,-0.5992,-0.572,-0.4613,-0.4206,-0.3799,0.0,0.0,0.0,0.0,0.0,0.0,0.0,0.0,-1.0973,-1.0809,0.0,-1.0915,0.0,0.0,0.0,0.0,0.0,0.0,0.0,0.0,-1.2719,-1.2935,-1.2923,-1.1888,-1.1921,-1.2896,-1.211,-1.2461,-1.3807,-1.2117,0.0,0.0,0.0,0.0,0.0,0.0,-0.6556,-0.5288,-0.3669,-0.301,-0.3429,-0.3748,-0.4096,-0.4355,-0.432,-0.3921,-0.3255,-0.2961,-0.2904,-0.3178,-0.3622,0.0,0.0,0.0,0.0,0.0,0.0,0.0,0.0,0.0,0.0,0.0,0.0,0.0,0.0,0.0,0.0,0.0,0.0,0.0,0.0,-0.6002,0.0,0.0,0.0,0.0,0.0,0.0,0.0,0.0,0.0,0.0,-0.8514,-0.8493,-0.8131,-0.7125,0.0,0.0,0.0,0.0,-0.8259,-0.867,-0.8785,-0.8745,-0.8765,-0.8587,-0.854,-0.8827,0.0,0.0,-0.7856,-0.7984,-0.8093,-0.8088,-0.7239,-0.6657,-0.7125,-0.6717,-0.628,-0.5964,-0.5315,-0.4766,-0.4338,-0.3356,-0.2509,-1.4587,0.0,0.0,0.0,0.0,-1.3885,-1.3463,-1.2964,-1.1927,-1.1587,-1.1789,-1.1547,0.0,0.0,0.0,0.0,0.0,0.0,-1.4096,-1.34,-1.3288,-1.3144,-1.2929,-1.2582,-1.2726,-1.3268,-1.2787,-1.2809,-1.3236,-1.2563,-1.1998,-1.1641,0.0,0.0,0.0,0.0,-0.5866,-0.4946,-0.3924,-0.3542,-0.3888,-0.4104,-0.4364,-0.453,-0.4268,-0.3825,-0.3214,-0.2917,-0.2613,-0.244,-0.3253,0.0,0.0,0.0,0.0,0.0,0.0,0.0,0.0,0.0,0.0,0.0,0.0,0.0,0.0,0.0,0.0,0.0,0.0,0.0,-0.5756,-0.5974,-0.6263,0.0,0.0,0.0,0.0,0.0,0.0,0.0,0.0,0.0,-0.816,-0.8689,-0.8769,0.0,0.0,-0.7944,-0.8406,-0.7996,-0.7777,-0.8224,0.0,0.0,0.0,-0.817,-0.8282,-0.83,-0.8035,-0.7882,-0.8164,-0.7805,-0.7617,-0.8023,-0.6907,-0.603,-0.6382,-0.5875,-0.5172,-0.4671,-0.4194,-0.3788,-0.3287,-0.2667,-0.1941,-1.448,-1.4114,-1.4323,-1.4506,-1.4613,-1.4246,-1.3723,-1.3075,-1.2444,-1.2001,-1.1709,-1.2025,-1.2363,-1.2722,-1.3963,0.0,0.0,0.0,-1.4081,-1.3481,-1.353,-1.3507,-1.3488,-1.3281,-1.3434,-1.3757,-1.3597,-1.3498,-1.3523,-1.3098,-1.2544,-1.1969,0.0,0.0,-0.8157,-0.6973,-0.5939,-0.5029,-0.4179,-0.3872,-0.4204,-0.4499,-0.4675,-0.4762,-0.4519,-0.4059,-0.3291,-0.3069,-0.2604,-0.1956,-0.2649,-0.3271,0.0,0.0,0.0,0.0,0.0,0.0,0.0,0.0,0.0,0.0,0.0,-1.0413,0.0,0.0,0.0,0.0,-0.7795,-0.6528,-0.5553,-0.6187,0.0,0.0,0.0,0.0,0.0,0.0,0.0,-0.7423,-0.7048,-0.7024,-0.7698,-0.8155,-0.8379,-0.8213,-0.7914,-0.792,-0.8447,0.0,-0.7672,-0.8032,-0.8091,-0.8088,-0.7918,-0.7968,-0.7968,-0.787,-0.7837,-0.7917,-0.8093,-0.7702,-0.7525,-0.7601,-0.6658,-0.571,-0.5917,-0.5116,-0.4359,-0.3959,-0.3623,-0.3222,-0.276,-0.2221,-0.1479,-1.4368,-1.44,-1.4819,-1.4637,-1.4098,-1.4052,-1.318,-1.1809,-1.2634,-1.208,-1.0707,-1.2267,-1.265,-1.2161,-1.3488,0.0,0.0,-1.424,-1.4063,-1.3073,-1.3532,-1.3991,-1.4395,-1.4013,-1.4023,-1.4485,-1.4439,-1.4417,-1.4376,-1.3683,-1.287,-1.189,-1.1654,-1.0396,-0.8227,-0.7345,-0.6441,-0.5479,-0.4578,-0.4216,-0.4511,-0.4856,-0.5032,-0.5042,-0.4988,-0.4416,-0.3472,-0.3349,-0.2818,-0.1766,-0.2021,-0.2618,-0.3445,0.0,0.0,0.0,0.0,0.0,0.0,0.0,0.0,0.0,0.0,0.0,0.0,0.0,0.0,0.0,-0.7611,0.0,-0.5803,-0.6556,0.0,0.0,0.0,-0.7188,-0.7058,-0.6722,-0.6377,-0.6129,0.0,0.0,0.0,0.0,-0.7435,-0.7721,-0.7845,-0.7854,-0.8066,-0.7918,-0.7886,-0.8045,-0.8082,-0.8039,-0.7985,-0.7936,-0.7749,-0.7632,-0.7711,-0.7867,-0.7862,-0.7678,-0.7584,-0.7628,-0.653,-0.5641,-0.5641,-0.471,-0.3825,-0.3825,-0.3487,-0.3086,-0.2757,-0.2085,-0.1277,-1.4843,-1.4965,-1.4931,-1.458,-1.4,-1.3643,-1.3196,-1.2746,-1.2448,-1.2186,-1.1931,-1.1875,-1.2261,-1.2936,-1.3211,-1.3721,-1.4346,-1.4298,-1.4291,-1.4418,-1.4292,-1.4471,-1.4919,-1.4821,-1.4821,-1.493,-1.493,-1.4744,-1.443,-1.4235,-1.3375,-1.1984,-1.1781,-1.0636,-0.8479,-0.7659,-0.6893,-0.6123,-0.5846,-0.5577,-0.5319,-0.5414,-0.5462,-0.5462,-0.5171,-0.4747,-0.4105,-0.3639,-0.3063,-0.2216,-0.289,-0.3311,-0.3368,-0.484,0.0,0.0,0.0,0.0,0.0,0.0,0.0,0.0,0.0,-1.0445,-0.9579,0.0,-0.8798,0.0,-0.7591,-0.6775,-0.6295,-0.6425,0.0,0.0,-0.7006,-0.7074,-0.7206,-0.6328,-0.5758,-0.5846,-0.6124,-0.6494,-0.6983,-0.7436,-0.7638,-0.7575,-0.784,-0.8039,-0.8108,-0.7934,-0.7814,-0.784,-0.7767,-0.7629,-0.7683,-0.7742,-0.7787,-0.7736,-0.7881,-0.808,-0.8226,-0.8079,-0.7994,-0.8047,-0.7024,-0.6149,-0.6058,-0.4845,-0.3902,-0.3763,-0.3286,-0.2815,-0.2686,-0.2285,-0.1816,-1.5197,-1.5256,-1.5197,-1.4747,-1.4114,-1.3977,-1.3594,-1.3082,-1.2697,-1.2417,-1.2174,-1.1827,-1.2258,-1.3179,-1.3271,-1.3726,-1.4456,-1.436,-1.4552,-1.4962,-1.4785,-1.4963,-1.5432,-1.5432,-1.5323,-1.5105,-1.5105,-1.4854,-1.4395,-1.4291,-1.3443,-1.1925,-1.1705,-1.069,-0.892,-0.8098,-0.7458,-0.7044,-0.6637,-0.6198,-0.5731,-0.5656,-0.5615,-0.5668,-0.56,-0.5158,-0.4345,-0.4357,-0.3896,-0.2911,-0.3811,-0.4275,-0.4058,-0.5318,-0.6367,0.0,0.0,0.0,0.0,0.0,0.0,0.0,0.0,0.0,0.0,0.0,-0.8637,0.0,0.0,0.0,-0.6981,-0.7072,-0.7168,-0.719,-0.6963,-0.6819,-0.6728,-0.5758,-0.5257,-0.5601,-0.5672,-0.6025,-0.6769,-0.7152,-0.7388,-0.7507,-0.7706,-0.7799,-0.7804,-0.7719,-0.7668,-0.7673,-0.7579,-0.7526,-0.7526,-0.7596,-0.7673,-0.7798,-0.7864,-0.8043,-0.8193,-0.8022,-0.7914,-0.7929,-0.7082,-0.6268,-0.626,-0.5119,-0.4095,-0.3825,-0.3288,-0.2753,-0.2688,-0.2421,-0.2018,-1.5491,-1.5491,-1.5491,-1.513,-1.458,-1.4738,-1.4149,-1.3089,-1.3075,-1.2666,-1.1986,-1.2042,-1.243,-1.31,-1.3461,-1.3811,-1.4147,-1.445,-1.4755,-1.5006,-1.5072,-1.5356,-1.5774,-1.5851,-1.5622,-1.5154,-1.5159,-1.4898,-1.4435,-1.4195,-1.3433,-1.2089,-1.174,-1.0839,-0.946,-0.8636,-0.8162,-0.7944,-0.7094,-0.6433,-0.6038,-0.5856,-0.5853,-0.5955,-0.6091,-0.5687,-0.4611,-0.5179,-0.4971,-0.3735,-0.4694,-0.5211,-0.5052,-0.5746,-0.6471,0.0,-0.7605,0.0,0.0,0.0,0.0,0.0,0.0,0.0,0.0,-0.9542,-0.8851,-0.7449,-0.7465,-0.7596,-0.7649,-0.7887,-0.7841,-0.7336,-0.6858,-0.6361,-0.5807,-0.5229,-0.503,-0.5428,-0.5359,-0.5686,-0.6548,-0.6749,-0.6999,-0.7391,-0.7507,-0.7548,-0.7512,-0.7507,-0.7507,-0.7526,-0.7526,-0.7526,-0.7526,-0.7526,-0.7588,-0.7741,-0.7817,-0.787,-0.7915,-0.769,-0.7412,-0.7257,-0.6692,-0.6234,-0.6238,-0.5238,-0.4359,-0.3954,-0.3224,-0.2693,-0.2626,-0.2423,-0.2018,-1.5982,-1.6101,-1.5969,-1.5905,-1.5906,-1.5513,-1.4479,-1.3099,-1.3054,-1.2793,-1.2402,-1.2718,-1.2696,-1.2485,-1.337,-1.374,-1.3795,-1.4268,-1.4474,-1.4526,-1.4919,-1.5367,-1.5796,-1.5955,-1.5775,-1.5359,-1.5437,-1.5185,-1.466,-1.4694,-1.4093,-1.2878,-1.2531,-1.1627,0.0,0.0,0.0,0.0,-0.7327,-0.6828,-0.6694,-0.6794,-0.68,-0.6851,-0.664,0.0,-0.5856,-0.5891,-0.5362,-0.4364,-0.526,0.0,0.0,0.0,0.0,0.0,0.0,0.0,0.0,0.0,0.0,0.0,-0.7926,-0.8441,-0.8997,-0.8579,-0.798,-0.7433,-0.7617,-0.7705,-0.7526,-0.7575,-0.7228,-0.6355,-0.6102,-0.5657,-0.4764,-0.4827,-0.5226,-0.5771,-0.6156,-0.6482,-0.6692,-0.7077,-0.7396,-0.7461,-0.7526,-0.7526,-0.7526,-0.7526,-0.7526,-0.7526,-0.7526,-0.7526,-0.7526,-0.7596,-0.7676,-0.7607,-0.7864,-0.7762,-0.7306,-0.7151,-0.694,-0.6587,-0.5837,-0.5399,-0.5333,-0.457,-0.3892,-0.3424,-0.3027,-0.2626,-0.2356,-0.2221,-0.2154,-1.6303,0.0,-1.629,-1.6138,0.0,-1.5803,-1.503,-1.3825,-1.3372,-1.3014,-1.2707,-1.2927,-1.2842,-1.2604,-1.34,-1.374,-1.3718,-1.4268,-1.4562,-1.4755,-1.5236,-1.5615,-1.5923,-1.6287,-1.6092,-1.5499,-1.5546,-1.5308,-1.4809,-1.453,-1.3939,-1.3151,-1.2617,-1.1809,-1.0659,-0.974,-0.895,-0.824,-0.7774,-0.7302,-0.6857,-0.6824,-0.687,-0.6907,0.0,0.0,0.0,0.0,0.0,0.0,0.0,0.0,0.0,0.0,0.0,-0.6299,-0.6303,-0.623,-0.616,-0.6401,-0.6502,-0.6354,-0.7125,-0.7809,-0.8333,-0.7939,-0.7638,-0.7461,-0.756,-0.7599,-0.7507,-0.7526,-0.7068,-0.602,-0.5892,-0.5495,-0.4564,-0.4758,-0.5359,-0.6036,-0.649,-0.6806,-0.7077,-0.733,-0.7526,-0.7526,-0.7526,-0.7526,-0.7526,-0.7526,-0.7526,-0.7526,-0.7526,-0.7526,-0.7526,-0.7526,-0.7579,-0.735,-0.7315,-0.7168,-0.6688,-0.6543,-0.6281,-0.5862,-0.5463,-0.515,-0.4951,-0.4353,-0.3756,-0.3422,-0.3025,-0.2622,-0.2287,-0.2221,-0.2221,-1.6534,-1.6534,-1.6534,-1.6258,-1.584,-1.5979,-1.5504,-1.4603,0.0,0.0,0.0,-1.3161,-1.315,-1.3117,-1.3696,-1.3872,-1.3804,-1.4255,-1.4613,-1.485,-1.5336,-1.5655,-1.5828,-1.6229,-1.6085,-1.5447,-1.5454,-1.5311,-1.4942,-1.4351,-1.3798,-1.3287,-1.2689,-1.1792,-1.0797,-0.9458,-0.862,-0.8172,-0.8158,-0.7722,-0.6947,-0.6832,-0.6799,-0.6872,-0.6659,-0.6396,-0.6112,-0.6493,-0.6573,-0.6297,-0.6854,-0.6985,-0.6579,-0.644,-0.6151,-0.5604,-0.531,-0.5137,-0.5081,-0.5346,-0.5599,-0.5617,-0.6766,-0.7548,-0.7724,-0.7614,-0.7526,-0.7526,-0.7526,-0.7526,-0.7526,-0.7526,-0.7134,-0.6152,-0.6024,-0.562,-0.4558,-0.4957,-0.5752,-0.6432,-0.6688,-0.6872,-0.7396,-0.7396,-0.7391,-0.7461,-0.7526,-0.7526,-0.7526,-0.7526,-0.7526,-0.7526,-0.7526,-0.7526,-0.7526,-0.7526,-0.7395,-0.7185,-0.6936,-0.6576,-0.6165,-0.584,-0.5498,-0.496,-0.4948,-0.4749,-0.455,-0.4084,-0.3751,-0.342,-0.3019,-0.2619,-0.2287,-0.2221,-0.2221,-1.6534,-1.6534,-1.6534,-1.6471,-1.6366,-1.6095,-1.5531,-1.4835,-1.4427,-1.4003,-1.3619,-1.4148,-1.4059,-1.3619,-1.4214,-1.4297,-1.3982,-1.4035,-1.4005,0.0,-1.4289,-1.4539,-1.4561,-1.4809,-1.4867,-1.473,-1.4875,-1.5014,-1.5159,-1.5143,-1.4697,-1.3847,-1.3441,-1.227,-1.0442,-1.0067,-0.9365,-0.8143,-0.7937,-0.7738,-0.7434,-0.7639,-0.7712,-0.7544,-0.7264,-0.7169,-0.7083,-0.7184,-0.7089,-0.6833,-0.711,-0.6824,-0.5935,-0.5739,-0.5337,-0.4576,-0.4227,-0.4111,-0.4392,-0.4722,-0.5391,-0.6408,-0.7157,-0.754,-0.7553,-0.7507,-0.7526,-0.7526,-0.7526,-0.7526,-0.7526,-0.7526,-0.726,-0.6675,-0.6609,-0.6005,-0.4535,-0.554,-0.6618,-0.717,-0.6951,-0.6937,-0.7326,-0.7129,-0.7064,-0.7396,-0.7526,-0.7526,-0.7526,-0.7526,-0.7526,-0.7526,-0.7526,-0.7526,-0.7526,-0.7526,-0.7414,-0.7424,-0.6946,-0.6344,-0.5529,-0.504,-0.4558,-0.3692,-0.3623,-0.3556,-0.3491,-0.336,-0.3161,-0.2893,-0.2693,-0.2554,-0.2287,-0.2221,-0.2221,-1.6534,-1.6534,-1.6534,-1.6534,-1.6479,-1.612,-1.5757,-1.5231,-1.4843,-1.4437,-1.4135,-1.4378,-1.4275,-1.3917,-1.4157,-1.4104,-1.3773,-1.4024,-1.3955,-1.3683,-1.4345,-1.445,-1.4124,-1.4407,-1.4513,-1.4374,-1.469,-1.4831,-1.4982,-1.5032,-1.4789,-1.431,-1.3726,-1.2537,-1.0902,-1.0349,-0.9567,-0.846,-0.8108,-0.7801,-0.7539,-0.7535,-0.7533,-0.741,-0.7191,-0.7016,-0.7016,-0.7016,-0.7009,-0.7056,-0.7008,-0.6607,-0.5947,-0.5389,-0.4813,-0.4151,-0.3694,-0.3625,-0.4023,-0.4619,-0.5077,-0.5397,-0.6334,-0.7073,-0.7461,-0.7526,-0.7526,-0.7526,-0.7526,-0.7526,-0.7526,-0.7526,-0.7326,-0.6741,-0.6478,-0.5881,-0.5209,-0.5679,-0.642,-0.6832,-0.7077,-0.726,-0.7456,-0.7265,-0.7195,-0.7456,-0.7526,-0.7526,-0.7526,-0.7526,-0.7526,-0.7526,-0.7526,-0.7526,-0.7526,-0.7526,-0.726,-0.6798,-0.6432,-0.5778,-0.4755,-0.4289,-0.3823,-0.309,-0.2889,-0.2822,-0.2757,-0.269,-0.257,-0.2537,-0.2441,-0.236,-0.2288,-0.2288,-0.2221,-1.6622,-1.6534,-1.6534,-1.6597,-1.6666,-1.6303,-1.6065,-1.5873,-1.5461,-1.5079,-1.4726,-1.4482,-1.4309,-1.4121,-1.4121,-1.4031,-1.3875,-1.4204,-1.4123,-1.3828,-1.445,-1.4489,-1.4011,-1.4262,-1.4294,-1.4258,-1.4443,-1.4629,-1.4865,-1.4763,-1.4681,-1.4579,-1.3743,-1.2724,-1.1537,-1.0677,-0.9731,-0.8949,-0.8426,-0.7926,-0.756,-0.7443,-0.7417,-0.7332,-0.7111,-0.6988,-0.6988,-0.6988,-0.7064,-0.721,-0.6967,-0.6519,-0.5932,-0.5209,-0.4486,-0.3756,-0.3226,-0.3159,-0.3625,-0.4356,-0.4749,-0.4731,-0.5734,-0.6736,-0.7391,-0.7526,-0.7526,-0.7526,-0.7526,-0.7526,-0.7526,-0.7526,-0.726,-0.6741,-0.6478,-0.6148,-0.5752,-0.602,-0.6374,-0.6743,-0.7145,-0.7418,-0.7584,-0.7531,-0.746,-0.7555,-0.7598,-0.7583,-0.754,-0.7555,-0.7522,-0.7536,-0.7526,-0.7526,-0.7526,-0.7526,-0.719,-0.633,-0.6086,-0.5495,-0.4558,-0.4092,-0.3491,-0.2958,-0.2705,-0.2639,-0.2296,-0.2252,-0.2276,-0.2234,-0.2279,-0.2261,-0.2287,-0.2311,-0.2294,-1.6986,-1.6559,-1.6534,-1.6835,-1.7262,-1.6888,-1.6775,-1.6804,-1.6497,-1.6098,-1.5596,-1.4766,-1.4445,-1.4556,-1.4539,-1.4449,-1.4395,-1.4443,-1.4307,-1.409,-1.4145,-1.4165,-1.4023,-1.3792,-1.4027,-1.4521,-1.4033,-1.4316,-1.5234,-1.4953,-1.4764,-1.461,-1.3752,-1.2912,-1.215,-1.1241,-1.0397,-0.9524,-0.869,-0.814,-0.7783,-0.7951,-0.793,-0.7768,-0.757,-0.7469,-0.738,-0.7469,-0.7474,-0.7493,-0.7423,-0.6776,-0.554,-0.5011,-0.4217,-0.2954,-0.2488,-0.2557,-0.3226,-0.3689,-0.4489,-0.562,-0.609,-0.6688,-0.7396,-0.7526,-0.7526,-0.7526,-0.7526,-0.7526,-0.7526,-0.7456,-0.726,-0.6806,-0.6933,-0.706,-0.6548,-0.6929,-0.747,-0.774,-0.7414,-0.7267,-0.7804,-0.7622,-0.7507,-0.77,-0.7749,-0.776,-0.7569,-0.765,-0.7688,-0.7602,-0.7536,-0.7536,-0.7531,-0.7526,-0.7391,-0.719,-0.6486,-0.5697,-0.4964,-0.4225,-0.3558,-0.2893,-0.2741,-0.2618,-0.2338,-0.2233,-0.2293,-0.2278,-0.2274,-0.2285,-0.2281,-0.2331,-0.2334,-1.7036,-1.6534,-1.6534,-1.6848,-1.735,-1.7227,-1.723,-1.7357,-1.6988,-1.6582,-1.6194,-1.5531,-1.5096,-1.4861,-1.482,-1.4666,-1.4257,-1.4567,-1.4483,-1.4126,-1.4394,-1.4385,-1.4077,-1.3965,-1.4029,-1.4394,-1.4287,-1.4531,-1.4971,-1.5107,-1.4849,-1.4273,-1.3881,-1.3313,-1.2458,-1.1272,-1.0471,-1.0086,-0.89,-0.8218,-0.8099,-0.7882,-0.7686,-0.7644,-0.7543,-0.7526,-0.7526,-0.7526,-0.7526,-0.7456,-0.7195,-0.6535,-0.5342,-0.4882,-0.4154,-0.3086,-0.2889,-0.3025,-0.3558,-0.4025,-0.4691,-0.555,-0.6079,-0.6741,-0.7396,-0.7526,-0.7526,-0.7526,-0.7526,-0.7526,-0.7461,-0.7195,-0.6933,-0.6811,-0.6548,-0.6523,-0.727,-0.7059,-0.7192,-0.7947,-0.7832,-0.7701,-0.7986,-0.7938,-0.7835,-0.7966,-0.7957,-0.7905,-0.7834,-0.7905,-0.791,-0.7848,-0.7825,-0.7707,-0.7602,-0.7526,-0.7386,-0.699,-0.6416,-0.5704,-0.5036,-0.4361,-0.3558,-0.2822,-0.2821,-0.2719,-0.2284,-0.2271,-0.2331,-0.2331,-0.2382,-0.2409,-0.2371,-0.2364,-0.2392,-1.7313,-1.6609,-1.6685,-1.7174,-1.7827,-1.7734,-1.7764,-1.7878,-1.7443,-1.7024,-1.6677,-1.6266,-1.5797,-1.5359,-1.5245,-1.4905,-1.4512,-1.4814,-1.4795,-1.4531,-1.4814,-1.4795,-1.4492,-1.4355,-1.4375,-1.4418,-1.4551,-1.4648,-1.4814,-1.5215,-1.5059,-1.4419,-1.413,-1.3718,-1.3066,-1.16,-1.0634,-1.0229,-0.9131,-0.8436,-0.8212,-0.7772,-0.7558,-0.7579,-0.7558,-0.7526,-0.7526,-0.7526,-0.7526,-0.7526,-0.6999,-0.6276,-0.5342,-0.4752,-0.402,-0.3086,-0.2956,-0.3159,-0.3625,-0.4025,-0.4556,-0.5279,-0.5877,-0.6535,-0.7138,-0.7447,-0.7551,-0.7584,-0.7674,-0.7612,-0.7466,-0.7068,-0.6745,-0.6679,-0.602,-0.6234,-0.7236,-0.6979,-0.7194,-0.8146,-0.8184,-0.8193,-0.824,-0.8264,-0.8255,-0.8188,-0.817,-0.8132,-0.8108,-0.8113,-0.8151,-0.8103,-0.8118,-0.7995,-0.7707,-0.7631,-0.7329,-0.6994,-0.6482,-0.5708,-0.5046,-0.4506,-0.3724,-0.3209,-0.3119,-0.2882,-0.2413,-0.232,-0.245,-0.2431,-0.247,-0.2478,-0.2421,-0.2469,-0.2497,-1.7956,-1.6666,-1.7124,-1.794,-1.8883,-1.8474,-1.8398,-1.8466,-1.8012,-1.7622,-1.7202,-1.689,-1.6564,-1.6151,-1.5749,-1.5467,-1.5351,-1.5332,-1.5322,-1.5283,-1.5342,-1.5371,-1.5322,-1.4961,-1.4951,-1.5166,-1.4564,-1.4492,-1.4834,-1.5205,-1.541,-1.5235,-1.4419,-1.4105,-1.3951,-1.2498,-1.1142,-1.009,-0.9412,-0.886,-0.8091,-0.7652,-0.7574,-0.7754,-0.7614,-0.7526,-0.7536,-0.7531,-0.7536,-0.7531,-0.7021,-0.628,-0.5345,-0.4486,-0.3496,-0.2491,-0.2294,-0.2562,-0.3167,-0.3368,-0.3897,-0.4954,-0.5617,-0.6148,-0.6749,-0.7359,-0.7681,-0.7766,-0.7924,-0.7867,-0.7569,-0.714,-0.6717,-0.63,-0.63,-0.6463,-0.6611,-0.7082,-0.7556,-0.8215,-0.8392,-0.8444,-0.8623,-0.8675,-0.8552,-0.8439,-0.8387,-0.833,-0.8207,-0.8278,-0.8297,-0.8222,-0.824,-0.824,-0.7872,-0.7716,-0.7712,-0.7418,-0.6696,-0.5926,-0.5659,-0.5205,-0.4248,-0.3535,-0.3587,-0.3285,-0.269,-0.2523,-0.2658,-0.2626,-0.2491,-0.2406,-0.2463,-0.2413,-0.2431,-1.848,-1.7626,-1.7815,-1.8342,-1.8945,-1.8597,-1.8482,-1.8536,-1.8116,-1.77,-1.7323,-1.7166,-1.6807,-1.6285,-1.612,-1.579,-1.541,-1.542,-1.542,-1.542,-1.542,-1.542,-1.5391,-1.5254,-1.5254,-1.5332,-1.5107,-1.5029,-1.5166,-1.5342,-1.5235,-1.4893,-1.43,-1.3967,-1.3614,-1.2305,-1.1163,-1.0528,-0.9524,-0.8635,-0.8072,-0.7792,-0.776,-0.7753,-0.7615,-0.7527,-0.7664,-0.7659,-0.7721,-0.7853,-0.7056,-0.6312,-0.5627,-0.4219,-0.3192,-0.2771,-0.2411,-0.2632,-0.3326,-0.3447,-0.4026,-0.5229,-0.5209,-0.5474,-0.6234,-0.6974,-0.7373,-0.7427,-0.7841,-0.7981,-0.784,-0.7445,-0.6979,-0.6615,-0.6615,-0.6696,-0.6925,-0.7308,-0.7925,-0.8445,-0.8595,-0.8628,-0.867,-0.8703,-0.8675,-0.8609,-0.859,-0.8543,-0.851,-0.8557,-0.8548,-0.851,-0.8529,-0.8496,-0.8236,-0.7919,-0.773,-0.7474,-0.7021,-0.6256,-0.5816,-0.5322,-0.4472,-0.3449,-0.3491,-0.3334,-0.2657,-0.2492,-0.2703,-0.2646,-0.2431,-0.2431,-0.2508,-0.2431,-0.251,-1.8756,-1.8694,-1.853,-1.8781,-1.9196,-1.8855,-1.8638,-1.8548,-1.8127,-1.7689,-1.7323,-1.7222,-1.6874,-1.6467,-1.6228,-1.5999,-1.5584,-1.5468,-1.542,-1.542,-1.542,-1.542,-1.542,-1.542,-1.542,-1.542,-1.542,-1.542,-1.542,-1.542,-1.5245,-1.4942,-1.4478,-1.3941,-1.339,-1.2351,-1.1476,-1.0661,-0.9667,-0.8816,-0.8251,-0.7972,-0.7877,-0.7858,-0.7798,-0.7721,-0.7872,-0.7872,-0.7933,-0.7967,-0.725,-0.6391,-0.5579,-0.4248,-0.334,-0.3261,-0.2977,-0.3065,-0.3677,-0.3655,-0.4099,-0.5166,-0.5008,-0.5071,-0.5892,-0.6638,-0.6941,-0.7069,-0.7615,-0.804,-0.7983,-0.7875,-0.7525,-0.7115,-0.6945,-0.6972,-0.725,-0.7578,-0.8022,-0.8562,-0.8689,-0.8699,-0.8703,-0.8703,-0.8699,-0.8703,-0.8703,-0.8703,-0.8703,-0.8703,-0.8703,-0.8703,-0.868,-0.859,-0.8406,-0.8155,-0.8103,-0.7875,-0.7419,-0.6696,-0.5962,-0.5399,-0.4635,-0.3589,-0.3035,-0.2943,-0.2778,-0.2534,-0.2486,-0.2506,-0.251,-0.251,-0.251,-0.251,-0.2514,-1.8857,-1.9597,-1.9233,-1.9296,-1.9647,-1.931,-1.8951,-1.856,-1.8127,-1.7689,-1.7278,-1.6987,-1.6874,-1.6705,-1.6285,-1.5931,-1.5816,-1.5584,-1.541,-1.542,-1.542,-1.542,-1.542,-1.542,-1.542,-1.542,-1.542,-1.542,-1.542,-1.542,-1.5352,-1.5303,-1.4883,-1.4282,-1.3554,-1.294,-1.1881,-1.0618,-0.9931,-0.942,-0.869,-0.8394,-0.8226,-0.815,-0.815,-0.816,-0.8099,-0.8089,-0.8099,-0.8042,-0.7597,-0.6577,-0.5378,-0.4597,-0.4177,-0.3854,-0.378,-0.3904,-0.4175,-0.3777,-0.3924,-0.4758,-0.4821,-0.5014,-0.5568,-0.6233,-0.6684,-0.6753,-0.7338,-0.7859,-0.7973,-0.8234,-0.8193,-0.7677,-0.7355,-0.7441,-0.7677,-0.7729,-0.7878,-0.8514,-0.8722,-0.8708,-0.8708,-0.8708,-0.8703,-0.8703,-0.8703,-0.8703,-0.8703,-0.8703,-0.8703,-0.8703,-0.8699,-0.8633,-0.851,-0.8363,-0.8379,-0.8331,-0.7822,-0.7166,-0.6332,-0.5728,-0.4681,-0.3713,-0.3065,-0.297,-0.281,-0.2633,-0.2495,-0.251,-0.251,-0.2511,-0.2514,-0.2516,-0.2601,-1.9497,-1.9773,-1.9635,-1.9648,-1.9747,-1.9384,-1.8975,-1.856,-1.8127,-1.7634,-1.7323,-1.7211,-1.7054,-1.6818,-1.6581,-1.6285,-1.5921,-1.5748,-1.5642,-1.542,-1.542,-1.542,-1.542,-1.542,-1.542,-1.542,-1.542,-1.542,-1.542,-1.542,-1.542,-1.5303,-1.4942,-1.4556,-1.4088,-1.3277,-1.2026,-1.0762,-1.049,-1.0123,-0.9582,-0.9531,-0.9366,-0.8959,-0.9023,-0.8961,-0.8575,-0.8377,-0.8373,-0.8491,-0.8006,-0.7136,-0.6055,-0.5418,-0.4908,-0.4365,-0.4007,-0.4074,-0.4354,-0.4066,-0.4102,-0.4919,-0.4894,-0.4888,-0.5299,-0.5962,-0.6237,-0.6202,-0.674,-0.7335,-0.7735,-0.7951,-0.8036,-0.7819,-0.7982,-0.8013,-0.8004,-0.8155,-0.8542,-0.8855,-0.8793,-0.877,-0.885,-0.8826,-0.8722,-0.8718,-0.8713,-0.8703,-0.8703,-0.8703,-0.8703,-0.8703,-0.8689,-0.8685,-0.8604,-0.8548,-0.8524,-0.8517,-0.8164,-0.7607,-0.682,-0.5933,-0.4871,-0.3854,-0.3268,-0.2933,-0.2766,-0.2643,-0.2582,-0.251,-0.251,-0.2514,-0.252,-0.2606,-0.2694,-1.9708,-1.9798,-1.9708,-1.9708,-1.9747,-1.954,-1.9186,-1.8762,-1.8344,-1.7909,-1.7545,-1.7334,-1.7155,-1.6987,-1.6874,-1.6524,-1.6046,-1.5941,-1.569,-1.5468,-1.542,-1.542,-1.542,-1.542,-1.542,-1.542,-1.542,-1.542,-1.542,-1.542,-1.542,-1.5362,-1.5128,-1.4734,-1.4303,-1.3476,-1.2375,-1.1276,-1.083,-1.0514,-1.0176,-1.0153,-1.0036,-0.9769,-0.9616,-0.9387,-0.8998,-0.8726,-0.8571,-0.8566,-0.8207,-0.7436,-0.6534,-0.6039,-0.5507,-0.4999,-0.4674,-0.4493,-0.4541,-0.4117,-0.4168,-0.4848,-0.4631,-0.4602,-0.5132,-0.5698,-0.5766,-0.5779,-0.6436,-0.704,-0.7413,-0.7964,-0.8112,-0.8344,-0.8505,-0.8528,-0.833,-0.8584,-0.8907,-0.9048,-0.9025,-0.9025,-0.9053,-0.8959,-0.8831,-0.8817,-0.8751,-0.8703,-0.8703,-0.8703,-0.8703,-0.8703,-0.8699,-0.8699,-0.8703,-0.8694,-0.8694,-0.8675,-0.8538,-0.7943,-0.7265,-0.6437,-0.5414,-0.3836,-0.294,-0.2752,-0.2574,-0.2578,-0.251,-0.251,-0.251,-0.2591,-0.2598,-0.2623,-0.2795,-1.9565,-1.9759,-1.9525,-1.9565,-1.9798,-1.9798,-1.9552,-1.9133,-1.8815,-1.8344,-1.7909,-1.7645,-1.7379,-1.7267,-1.7032,-1.6684,-1.6353,-1.5989,-1.5758,-1.5526,-1.541,-1.542,-1.542,-1.542,-1.542,-1.542,-1.542,-1.542,-1.542,-1.542,-1.542,-1.542,-1.5362,-1.4942,-1.413,-1.3692,-1.2875,-1.1755,-1.1084,-1.0773,-1.071,-1.048,-1.0323,-1.0444,-0.997,-0.9604,-0.9417,-0.8969,-0.8685,-0.8599,-0.823,-0.7759,-0.712,-0.6514,-0.6036,-0.5494,-0.5379,-0.511,-0.464,-0.4235,-0.4163,-0.47,-0.442,-0.4288,-0.5228,-0.5375,-0.5408,-0.5403,-0.6136,-0.6741,-0.7064,-0.7804,-0.8508,-0.8894,-0.8869,-0.8749,-0.8732,-0.8839,-0.9091,-0.9266,-0.9327,-0.9341,-0.9341,-0.9195,-0.9053,-0.8973,-0.885,-0.8774,-0.8703,-0.8703,-0.8703,-0.8703,-0.8703,-0.8765,-0.8779,-0.8713,-0.8713,-0.8775,-0.8656,-0.8209,-0.7497,-0.6648,-0.5557,-0.4066,-0.2976,-0.2715,-0.2579,-0.2575,-0.2582,-0.251,-0.251,-0.2588,-0.2678,-0.2779,-0.2904,-1.9473,-1.946,-1.942,-1.9565,-1.9798,-1.9798,-1.9592,-1.9226,-1.9081,-1.8762,-1.8452,-1.829,-1.803,-1.7744,-1.739,-1.7011,-1.6627,-1.6161,-1.5874,-1.5758,-1.5526,-1.542,-1.542,-1.542,-1.542,-1.542,-1.542,-1.542,-1.542,-1.542,-1.542,-1.542,-1.542,-1.4942,-1.4121,-1.3881,-1.3305,-1.2432,-1.2072,-1.1826,-1.1767,-1.1703,-1.1443,-1.0834,-1.0484,-0.9963,-0.9342,-0.893,-0.8703,-0.8699,-0.8585,-0.823,-0.7655,-0.7115,-0.6518,-0.6017,-0.5631,-0.5382,-0.5087,-0.4631,-0.4622,-0.5081,-0.4594,-0.4636,-0.5251,-0.5352,-0.5265,-0.5258,-0.5516,-0.6078,-0.6909,-0.7509,-0.8104,-0.9015,-0.9067,-0.8899,-0.8783,-0.8867,-0.9223,-0.9674,-0.949,-0.9493,-0.9601,-0.9464,-0.92,-0.9072,-0.8968,-0.8855,-0.8755,-0.8703,-0.8703,-0.8703,-0.8722,-0.8812,-0.8845,-0.876,-0.8794,-0.887,-0.877,-0.8438,-0.7613,-0.6678,-0.5411,-0.3965,-0.3408,-0.309,-0.286,-0.278,-0.2719,-0.251,-0.2588,-0.2668,-0.2747,-0.2844,-0.2997,-1.921,-1.921,-1.9093,-1.9303,-1.9604,-1.9656,-1.9552,-1.9436,-1.9279,-1.9069,-1.8815,-1.8501,-1.8352,-1.817,-1.7611,-1.718,-1.6853,-1.6343,-1.5931,-1.5642,-1.5468,-1.542,-1.542,-1.542,-1.542,-1.542,-1.542,-1.542,-1.542,-1.542,-1.542,-1.542,-1.542,-1.4942,-1.407,-1.3959,-1.3361,-1.2332,-1.2101,-1.2004,-1.1833,-1.1854,-1.1695,-1.1191,-1.0876,-1.0279,-0.9322,-0.8895,-0.8703,-0.8703,-0.8694,-0.8458,-0.7973,-0.7565,-0.6976,-0.6239,-0.5859,-0.55,-0.5069,-0.4728,-0.4728,-0.4874,-0.4658,-0.4874,-0.5124,-0.5228,-0.5225,-0.5318,-0.5552,-0.6247,-0.7232,-0.7857,-0.8483,-0.9145,-0.9299,-0.9113,-0.886,-0.9131,-0.9426,-0.9774,-0.9836,-0.9653,-1.0009,-0.9644,-0.9398,-0.92,-0.9072,-0.8911,-0.8755,-0.8727,-0.8703,-0.8703,-0.8732,-0.8817,-0.8883,-0.8831,-0.8837,-0.8904,-0.8784,-0.8537,-0.7908,-0.6923,-0.5932,-0.4874,-0.4077,-0.352,-0.329,-0.2998,-0.2649,-0.251,-0.2668,-0.2746,-0.2824,-0.2898,-0.3046,-1.8999,-1.8946,-1.8721,-1.8934,-1.9368,-1.942,-1.9565,-1.9695,-1.9436,-1.9279,-1.9162,-1.859,-1.8531,-1.8602,-1.7861,-1.7302,-1.7067,-1.6513,-1.5989,-1.5642,-1.5478,-1.542,-1.542,-1.542,-1.542,-1.542,-1.542,-1.542,-1.542,-1.542,-1.542,-1.542,-1.542,-1.4883,-1.4181,-1.395,-1.3086,-1.2034,-1.1721,-1.1589,-1.1416,-1.1512,-1.1534,-1.1305,-1.0759,-1.0202,-0.9406,-0.8881,-0.8666,-0.8703,-0.8703,-0.8463,-0.8078,-0.7977,-0.7423,-0.6641,-0.6305,-0.5765,-0.4984,-0.4882,-0.4696,-0.4746,-0.4686,-0.4707,-0.5064,-0.5182,-0.5231,-0.5485,-0.6054,-0.664,-0.7702,-0.8787,-0.9331,-0.9516,-0.9582,-0.948,-0.932,-0.9484,-0.9724,-0.9913,-0.9941,-1.0033,-0.9899,-0.9771,-0.9559,-0.9271,-0.9129,-0.893,-0.8784,-0.8718,-0.8703,-0.8703,-0.8751,-0.8812,-0.8864,-0.8902,-0.8918,-0.8947,-0.8808,-0.8542,-0.8291,-0.7547,-0.6748,-0.5902,-0.5044,-0.4234,-0.3714,-0.3293,-0.2807,-0.251,-0.2588,-0.2743,-0.2912,-0.2967,-0.306,-1.8881,-1.8667,-1.8602,-1.8881,-1.9368,-1.942,-1.9565,-1.9747,-1.9695,-1.9643,-1.9631,-1.9463,-1.9254,-1.9028,-1.8286,-1.7863,-1.7567,-1.674,-1.6114,-1.5816,-1.5526,-1.541,-1.542,-1.542,-1.542,-1.542,-1.542,-1.542,-1.542,-1.542,-1.542,-1.542,-1.5294,-1.4942,-1.4061,-1.3675,-1.3094,-1.2103,-1.166,-1.1588,-1.1661,-1.1627,-1.1613,-1.1338,-1.0422,-0.9755,-0.9479,-0.8822,-0.8543,-0.8656,-0.8699,-0.859,-0.8444,-0.8152,-0.7763,-0.7379,-0.6976,-0.643,-0.5867,-0.5596,-0.5491,-0.5017,-0.5055,-0.5082,-0.5092,-0.5124,-0.5254,-0.5492,-0.5678,-0.647,-0.7854,-0.9158,-0.9723,-0.9795,-0.9819,-0.9866,-0.9765,-0.9658,-0.9767,-0.9889,-1.0038,-1.0033,-1.0024,-0.9786,-0.9578,-0.9356,-0.9167,-0.8954,-0.885,-0.8774,-0.8793,-0.8841,-0.8855,-0.8954,-0.9129,-0.9063,-0.8979,-0.8966,-0.8765,-0.877,-0.8512,-0.8206,-0.7463,-0.6685,-0.5808,-0.509,-0.438,-0.3538,-0.3059,-0.2824,-0.2589,-0.2744,-0.2864,-0.2928,-0.3088,-1.9028,-1.8625,-1.8452,-1.8614,-1.8987,-1.9158,-1.9368,-1.9604,-1.9759,-1.9798,-1.9798,-1.9798,-1.9695,-1.9371,-1.8543,-1.8058,-1.7722,-1.6853,-1.6171,-1.5931,-1.57,-1.5594,-1.542,-1.542,-1.542,-1.542,-1.542,-1.542,-1.542,-1.542,-1.542,-1.5352,-1.5059,-1.446,-1.3795,-1.3367,-1.2617,-1.1829,-1.1546,-1.1542,-1.1462,-1.158,-1.1737,-1.1532,-1.0627,-1.0041,-0.9832,-0.9319,-0.8905,-0.8751,-0.8703,-0.8703,-0.8694,-0.8426,-0.8141,-0.7772,-0.7317,-0.6682,-0.6176,-0.5842,-0.5572,-0.5202,-0.5372,-0.5434,-0.541,-0.5433,-0.5722,-0.5961,-0.621,-0.6699,-0.8115,-0.8996,-0.9685,-0.9951,-1.0038,-1.0038,-0.9932,-0.9852,-0.9819,-1.0009,-1.0038,-0.9885,-0.9814,-0.9757,-0.9611,-0.9398,-0.946,-0.9266,-0.9138,-0.9072,-0.9058,-0.9072,-0.9044,-0.9138,-0.9297,-0.9335,-0.9073,-0.9002,-0.8803,-0.885,-0.8819,-0.8553,-0.8282,-0.7438,-0.6697,-0.5878,-0.517,-0.426,-0.3456,-0.3062,-0.2827,-0.2747,-0.2689,-0.2837,-0.2901,-1.9186,-1.856,-1.8247,-1.8267,-1.8573,-1.8833,-1.9085,-1.9389,-1.9631,-1.9759,-1.9798,-1.9798,-1.9798,-1.9579,-1.8667,-1.8197,-1.7699,-1.7011,-1.6285,-1.5989,-1.5874,-1.5652,-1.5478,-1.542,-1.542,-1.542,-1.542,-1.542,-1.542,-1.5294,-1.5177,-1.5128,-1.4552,-1.4004,-1.3437,-1.2917,-1.2315,-1.1553,-1.1448,-1.1473,-1.1322,-1.1451,-1.1677,-1.1748,-1.1185,-1.0593,-1.0177,-0.9691,-0.9261,-0.8775,-0.8703,-0.8722,-0.8741,-0.8708,-0.8607,-0.8005,-0.7708,-0.7235,-0.6709,-0.6139,-0.5753,-0.5305,-0.5603,-0.5852,-0.5734,-0.5849,-0.6121,-0.6492,-0.6744,-0.7235,-0.844,-0.9078,-0.9515,-0.9864,-1.0038,-1.0038,-1.0038,-1.0038,-1.0028,-1.0028,-1.0033,-0.9904,-0.9838,-0.9776,-0.9611,-0.9493,-0.9559,-0.9484,-0.9426,-0.9318,-0.9266,-0.9228,-0.9185,-0.9266,-0.9409,-0.9489,-0.9312,-0.9159,-0.8978,-0.902,-0.9091,-0.895,-0.8705,-0.8362,-0.7662,-0.6827,-0.6106,-0.5329,-0.4501,-0.3622,-0.3144,-0.3141,-0.2904,-0.2668,-0.2723,-1.9186,-1.856,-1.8247,-1.8165,-1.8279,-1.8531,-1.8839,-1.9082,-1.9366,-1.9617,-1.9798,-1.9798,-1.9798,-1.9592,-1.891,-1.8159,-1.7468,-1.6976,-1.6581,-1.6228,-1.5999,-1.5758,-1.5478,-1.542,-1.542,-1.542,-1.5449,-1.5469,-1.5303,-1.5059,-1.4921,-1.4721,-1.4215,-1.3672,-1.3291,-1.2825,-1.2387,-1.1731,-1.1627,-1.158,-1.1736,-1.1805,-1.1975,-1.2124,-1.143,-1.0857,-1.0398,-0.978,-0.9188,-0.8751,-0.8703,-0.8798,-0.8869,-0.8793,-0.8791,-0.8834,-0.8599,-0.81,-0.7684,-0.7159,-0.6785,-0.6485,-0.6031,-0.5879,-0.5988,-0.6121,-0.6395,-0.6659,-0.7205,-0.7815,-0.854,-0.8995,-0.9432,-0.9864,-1.0038,-1.0038,-1.0038,-1.0038,-1.0038,-1.0038,-1.0033,-0.9908,-0.9823,-0.9767,-0.9677,-0.9549,-0.9526,-0.9568,-0.9511,-0.9417,-0.9351,-0.9322,-0.9299,-0.9422,-0.9503,-0.9577,-0.9524,-0.9401,-0.9337,-0.9227,-0.9264,-0.9318,-0.9076,-0.8804,-0.8409,-0.7799,-0.7062,-0.6383,-0.548,-0.4437,-0.3944,-0.3534,-0.3139,-0.2824,-0.2746,-1.9384,-1.856,-1.8247,-1.8065,-1.7993,-1.8251,-1.8651,-1.8971,-1.9057,-1.942,-1.9838,-1.985,-1.9798,-1.9592,-1.8922,-1.8139,-1.749,-1.7412,-1.6965,-1.6457,-1.6171,-1.5816,-1.5468,-1.542,-1.542,-1.5488,-1.5605,-1.5605,-1.5371,-1.4942,-1.4796,-1.4678,-1.3919,-1.3244,-1.3018,-1.2584,-1.2301,-1.1923,-1.1985,-1.2117,-1.2419,-1.2423,-1.2535,-1.2383,-1.1926,-1.1411,-1.0923,-1.0353,-0.9723,-0.9216,-0.8851,-0.8826,-0.8892,-0.8888,-0.8892,-0.9133,-0.8927,-0.8675,-0.8349,-0.7655,-0.7127,-0.6774,-0.6405,-0.6298,-0.6414,-0.6547,-0.6688,-0.6934,-0.7068,-0.7757,-0.8548,-0.8815,-0.9253,-0.9864,-1.0038,-1.0038,-1.0033,-1.0033,-1.0024,-1.0014,-1.0005,-0.9856,-0.9823,-0.9705,-0.971,-0.9639,-0.954,-0.9549,-0.9582,-0.9521,-0.946,-0.9521,-0.9516,-0.9549,-0.9672,-0.9619,-0.9597,-0.9597,-0.9527,-0.9503,-0.9484,-0.9526,-0.9488,-0.9335,-0.8941,-0.85,-0.7764,-0.6928,-0.6051,-0.5252,-0.4658,-0.4003,-0.3374,-0.2981,-0.2981,-1.9475,-1.8548,-1.824,-1.8014,-1.7831,-1.8103,-1.8458,-1.8797,-1.8896,-1.9245,-1.9927,-1.9862,-1.9798,-1.9592,-1.8975,-1.8182,-1.7512,-1.7767,-1.7309,-1.6602,-1.6487,-1.612,-1.5652,-1.543,-1.5469,-1.5674,-1.565,-1.5759,-1.5336,-1.5014,-1.4946,-1.4594,-1.3453,-1.2976,-1.3097,-1.2719,-1.2298,-1.2333,-1.2522,-1.2891,-1.3035,-1.3049,-1.2973,-1.29,-1.2599,-1.2063,-1.1329,-1.072,-1.0115,-0.9533,-0.9103,-0.8798,-0.8954,-0.8859,-0.8944,-0.9157,-0.8792,-0.8642,-0.8504,-0.7947,-0.7556,-0.759,-0.7149,-0.6917,-0.6934,-0.6954,-0.7122,-0.7143,-0.7404,-0.7757,-0.8372,-0.8636,-0.9161,-0.9772,-1.0038,-1.0033,-0.9927,-0.9904,-0.9852,-0.9847,-0.9866,-0.9919,-0.9828,-0.9871,-0.9819,-0.9752,-0.9658,-0.97,-0.9719,-0.9639,-0.9615,-0.9734,-0.9762,-0.9719,-0.9767,-0.9728,-0.9642,-0.9597,-0.9691,-0.9724,-0.9719,-0.971,-0.9677,-0.9634,-0.9372,-0.8901,-0.8209,-0.7588,-0.6867,-0.613,-0.5286,-0.455,-0.3919,-0.3682,-0.3606,-1.9251,-1.8566,-1.8287,-1.8151,-1.8118,-1.8169,-1.8295,-1.8509,-1.8927,-1.9258,-1.9448,-1.9643,-1.9798,-1.954,-1.8975,-1.8333,-1.7967,-1.7912,-1.7549,-1.6789,-1.6811,-1.6489,-1.5866,-1.5526,-1.5644,-1.5869,-1.5609,-1.5303,-1.5226,-1.5169,-1.4874,-1.441,-1.3834,-1.347,-1.3438,-1.3214,-1.3339,-1.3302,-1.3324,-1.3418,-1.3491,-1.3462,-1.3258,-1.2966,-1.2746,-1.2305,-1.1484,-1.0812,-1.0218,-0.9625,-0.9008,-0.8807,-0.8973,-0.9011,-0.91,-0.9195,-0.9133,-0.9057,-0.9137,-0.866,-0.8371,-0.8308,-0.779,-0.7277,-0.7232,-0.7344,-0.7379,-0.6881,-0.7661,-0.8281,-0.8456,-0.8907,-0.9432,-0.9777,-1.0038,-1.0038,-1.0024,-0.9899,-0.9838,-0.9691,-0.9709,-0.9823,-0.9881,-0.9962,-1.0019,-0.9852,-0.9795,-0.9809,-0.9786,-0.9649,-0.9582,-0.9649,-0.9672,-0.9639,-0.9663,-0.9658,-0.9676,-0.9569,-0.9757,-0.9838,-0.9838,-0.9833,-0.9875,-0.98,-0.9606,-0.9412,-0.8824,-0.8213,-0.7656,-0.6939,-0.6006,-0.5188,-0.4462,-0.4311,-0.4265,-1.8697,-1.8113,-1.8136,-1.7932,-1.7593,-1.8128,-1.8313,-1.8179,-1.8385,-1.8875,-1.9386,-1.9643,-1.9552,-1.9186,-1.8934,-1.8441,-1.7868,-1.8056,-1.7772,-1.7045,-1.6921,-1.665,-1.5964,-1.5604,-1.5644,-1.5965,-1.6019,-1.589,-1.556,-1.4985,-1.4595,-1.4521,-1.3915,-1.366,-1.3712,-1.3628,-1.3688,-1.376,-1.3985,-1.4137,-1.4065,-1.392,-1.363,-1.3193,-1.2973,-1.2305,-1.1484,-1.0812,-1.0299,-0.97,-0.9089,-0.8732,-0.8817,-0.8841,-0.8888,-0.8935,-0.902,-0.9086,-0.9321,-0.8967,-0.8937,-0.8785,-0.8229,-0.7679,-0.7625,-0.7763,-0.7941,-0.7841,-0.8103,-0.8455,-0.8707,-0.9082,-0.9519,-0.9781,-1.0057,-1.0043,-1.0033,-0.9904,-0.9852,-0.9695,-0.9634,-0.9743,-0.9847,-0.9866,-0.989,-0.9843,-0.9634,-0.9549,-0.9535,-0.9469,-0.9436,-0.945,-0.9455,-0.9436,-0.9488,-0.9549,-0.9663,-0.9653,-0.9823,-0.9889,-0.9918,-1.0024,-1.0038,-0.9894,-0.9715,-0.9452,-0.9292,-0.8617,-0.7748,-0.719,-0.6734,-0.5924,-0.5134,-0.5092,-0.4947,-1.8101,-1.7748,-1.8006,-1.7786,-1.7291,-1.802,-1.8154,-1.7885,-1.7953,-1.8422,-1.904,-1.9344,-1.9186,-1.8815,-1.8762,-1.829,-1.7568,-1.8148,-1.7798,-1.7323,-1.6995,-1.6784,-1.6226,-1.5788,-1.5753,-1.6074,-1.6153,-1.6141,-1.58,-1.5162,-1.4806,-1.4731,-1.4423,-1.4041,-1.3981,-1.3985,-1.3992,-1.4057,-1.4274,-1.4353,-1.4346,-1.4065,-1.3702,-1.3258,-1.282,-1.2224,-1.126,-1.0594,-1.0078,-0.9795,-0.9108,-0.8737,-0.873,-0.8773,-0.8798,-0.8831,-0.8907,-0.9077,-0.9208,-0.9105,-0.9092,-0.8926,-0.8591,-0.807,-0.7895,-0.8147,-0.8295,-0.8281,-0.8727,-0.8901,-0.9126,-0.934,-0.9694,-0.9892,-1.0105,-1.0076,-1.0047,-0.9941,-0.9847,-0.9625,-0.9573,-0.9649,-0.9742,-0.9653,-0.9649,-0.9719,-0.9511,-0.9351,-0.9313,-0.9318,-0.928,-0.928,-0.9247,-0.9219,-0.9204,-0.9294,-0.9436,-0.9649,-0.9819,-0.9927,-1.0028,-1.0038,-1.0038,-0.9871,-0.979,-0.9738,-0.963,-0.8742,-0.7832,-0.7454,-0.6935,-0.6445,-0.5931,-0.5825,-0.5735,-1.7545,-1.781,-1.7885,-1.8015,-1.8125,-1.775,-1.7687,-1.7718,-1.7985,-1.8093,-1.8309,-1.8494,-1.8934,-1.8893,-1.8422,-1.803,-1.7855,-1.7999,-1.7742,-1.7551,-1.742,-1.7053,-1.6535,-1.6107,-1.5949,-1.6174,-1.6283,-1.629,-1.6276,-1.5972,-1.5242,-1.4673,-1.4806,-1.4649,-1.441,-1.4201,-1.4065,-1.4057,-1.4057,-1.4129,-1.4057,-1.3775,-1.3331,-1.2732,-1.2224,-1.1639,-1.0599,-1.0133,-0.976,-0.9756,-0.9145,-0.873,-0.8751,-0.8819,-0.8826,-0.8779,-0.8902,-0.9034,-0.9072,-0.9311,-0.9522,-0.9351,-0.9026,-0.8623,-0.854,-0.8524,-0.8436,-0.8528,-0.9074,-0.9356,-0.9401,-0.951,-0.9864,-0.9979,-1.01,-1.0105,-1.009,-1.01,-0.9899,-0.9602,-0.9573,-0.9748,-0.9771,-0.971,-0.9682,-0.9667,-0.9474,-0.9313,-0.9261,-0.9242,-0.9152,-0.9105,-0.9058,-0.8992,-0.8888,-0.9015,-0.9366,-0.9642,-0.9781,-0.988,-1.0033,-1.0038,-1.0038,-1.0019,-0.9875,-0.9885,-0.9828,-0.9068,-0.8388,-0.7764,-0.7243,-0.6757,-0.6508,-0.6329,-0.6427,-1.7809,-1.8069,-1.7642,-1.7685,-1.8039,-1.8399,-1.8136,-1.767,-1.813,-1.8405,-1.8333,-1.8518,-1.8682,-1.8635,-1.8242,-1.7935,-1.7978,-1.7994,-1.7717,-1.7505,-1.7399,-1.7216,-1.6764,-1.6389,-1.6236,-1.6616,-1.6534,-1.6599,-1.6856,-1.6738,-1.6158,-1.563,-1.5213,-1.4848,-1.4553,-1.4129,-1.3848,-1.3783,-1.371,-1.371,-1.3702,-1.3564,-1.3119,-1.2298,-1.228,-1.1411,-1.0385,-1.0053,-0.9667,-0.9269,-0.8987,-0.8908,-0.876,-0.8862,-0.885,-0.8784,-0.8949,-0.9044,-0.9086,-0.9327,-0.954,-0.9814,-0.9552,-0.9419,-0.9336,-0.9425,-0.9429,-0.9516,-0.9516,-0.9611,-0.9763,-0.9859,-0.9956,-1.0062,-1.0095,-1.0124,-1.0129,-1.0138,-1.0129,-0.9866,-0.9937,-1.0045,-0.9932,-0.9809,-0.9762,-0.97,-0.9478,-0.9304,-0.9275,-0.9195,-0.911,-0.8987,-0.8926,-0.894,-0.885,-0.908,-0.9431,-0.962,-0.9729,-0.9833,-1.0005,-1.0033,-0.9946,-1.0033,-1.0,-0.9856,-0.9743,-0.9391,-0.8826,-0.816,-0.7604,-0.7094,-0.6971,-0.6812,-0.6816,-1.7859,-1.8126,-1.757,-1.7557,-1.7993,-1.8413,-1.8125,-1.7519,-1.7909,-1.8398,-1.856,-1.8572,-1.8682,-1.8582,-1.8168,-1.7934,-1.7912,-1.7818,-1.7597,-1.7486,-1.7383,-1.7223,-1.6779,-1.6436,-1.6353,-1.69,-1.6938,-1.686,-1.7235,-1.7571,-1.7157,-1.6324,-1.548,-1.5188,-1.4418,-1.3992,-1.3492,-1.3492,-1.3346,-1.3346,-1.3346,-1.3119,-1.2673,-1.1819,-1.1721,-1.0993,-1.0058,-0.9627,-0.959,-0.9252,-0.902,-0.9044,-0.8922,-0.895,-0.8954,-0.8978,-0.9063,-0.919,-0.9247,-0.9351,-0.9582,-0.9866,-0.9932,-0.9946,-1.0005,-1.0048,-1.0076,-0.9927,-0.9875,-0.9871,-1.0067,-1.0038,-1.0038,-1.0057,-1.0093,-1.0219,-1.0171,-1.0167,-1.0195,-1.0162,-1.0159,-1.0178,-1.0022,-0.9866,-0.979,-0.9767,-0.9719,-0.953,-0.9398,-0.9285,-0.9105,-0.8963,-0.8817,-0.8845,-0.8888,-0.9147,-0.9399,-0.948,-0.9644,-0.979,-0.9875,-0.988,-0.98,-0.9686,-0.9672,-0.9738,-0.9724,-0.9564,-0.9039,-0.8433,-0.7781,-0.7118,-0.7062,-0.6915,-0.6973,-1.7577,-1.7882,-1.758,-1.7786,-1.8126,-1.7471,-1.727,-1.7308,-1.7444,-1.7865,-1.8506,-1.856,-1.8768,-1.8827,-1.8153,-1.7868,-1.7824,-1.7578,-1.7367,-1.7434,-1.7355,-1.7076,-1.6736,-1.6467,-1.6483,-1.6305,-1.6602,-1.7045,-1.7453,-1.7513,-1.7432,-1.7235,-1.6385,-1.5534,-1.4274,-1.371,-1.3492,-1.3411,-1.3119,-1.2973,-1.2826,-1.2599,-1.2083,-1.1608,-1.1201,-1.0561,-0.9902,-0.9586,-0.9514,-0.9288,-0.9269,-0.9222,-0.9175,-0.9316,-0.937,-0.9271,-0.9441,-0.9559,-0.9615,-0.963,-0.9757,-0.9908,-1.0038,-1.0038,-1.0081,-1.0245,-1.0367,-1.0057,-1.0036,-1.0055,-1.0031,-1.0038,-1.0038,-1.0071,-1.0102,-1.013,-1.0167,-1.0229,-1.0262,-1.0272,-1.0206,-1.0206,-1.0143,-1.0005,-0.9828,-0.9814,-0.9875,-0.9767,-0.9545,-0.9365,-0.9167,-0.9011,-0.8859,-0.8978,-0.9063,-0.9223,-0.9361,-0.9431,-0.9587,-0.9762,-0.9748,-0.9742,-0.9642,-0.9436,-0.954,-0.97,-0.9767,-0.98,-0.9181,-0.8656,-0.7676,-0.7078,-0.7031,-0.7,-0.7031,-1.7771,-1.7639,-1.7633,-1.7855,-1.81,-1.7866,-1.7648,-1.7465,-1.7622,-1.7854,-1.8061,-1.8127,-1.8412,-1.8449,-1.8024,-1.7679,-1.7855,-1.7501,-1.7334,-1.739,-1.73,-1.7145,-1.6882,-1.6774,-1.6797,-1.6928,-1.7135,-1.7353,-1.7765,-1.7687,-1.7501,-1.7304,-1.6881,-1.5956,-1.5171,-1.4466,-1.397,-1.3608,-1.3185,-1.2826,-1.2519,-1.2311,-1.2087,-1.1575,-1.1204,-1.0696,-1.0029,-0.9805,-0.9704,-0.9535,-0.9516,-0.9391,-0.9297,-0.9391,-0.9436,-0.9351,-0.9445,-0.9502,-0.9639,-0.9743,-0.9866,-1.0019,-1.0038,-1.0038,-1.0062,-1.0095,-1.009,-1.0081,-1.0055,-1.0045,-1.0052,-1.0038,-1.0038,-1.0043,-1.0105,-1.01,-1.01,-1.0164,-1.0249,-1.0244,-1.0253,-1.0173,-1.005,-1.0052,-0.9875,-0.9856,-1.0,-0.9743,-0.9516,-0.9393,-0.9233,-0.9091,-0.9001,-0.9138,-0.9242,-0.9313,-0.9476,-0.9606,-0.9705,-0.9804,-0.98,-0.9642,-0.9576,-0.9464,-0.9573,-0.9686,-0.9705,-0.9702,-0.9461,-0.8782,-0.7921,-0.7408,-0.7369,-0.726,-0.7099,-1.7792,-1.7522,-1.7484,-1.7592,-1.7797,-1.7843,-1.7634,-1.7534,-1.7755,-1.7988,-1.8113,-1.8176,-1.8446,-1.8497,-1.7991,-1.759,-1.7932,-1.7509,-1.7278,-1.7311,-1.7305,-1.7188,-1.7059,-1.7057,-1.7144,-1.7359,-1.7412,-1.7578,-1.7949,-1.7998,-1.7872,-1.751,-1.7079,-1.6872,-1.6228,-1.5384,-1.4314,-1.389,-1.3324,-1.2673,-1.2452,-1.2251,-1.2087,-1.1777,-1.1504,-1.1162,-1.0642,-1.0324,-1.012,-0.9814,-0.9672,-0.9634,-0.9507,-0.9497,-0.9526,-0.954,-0.9559,-0.9634,-0.9771,-0.9847,-1.0014,-1.0033,-1.0038,-1.0038,-1.0062,-1.0143,-1.0109,-1.0095,-1.0012,-0.9993,-1.0057,-1.0052,-1.0038,-1.0043,-1.0057,-1.0057,-1.0109,-1.0168,-1.0296,-1.0286,-1.0334,-1.022,-1.0088,-1.0086,-1.0014,-1.0019,-1.0028,-0.9734,-0.9554,-0.9474,-0.9389,-0.9271,-0.9167,-0.9256,-0.9361,-0.946,-0.9596,-0.9843,-0.9838,-0.9875,-0.9776,-0.9639,-0.9563,-0.9502,-0.9592,-0.97,-0.9775,-0.9685,-0.941,-0.8877,-0.8177,-0.7841,-0.7775,-0.7507,-0.7139,-1.7508,-1.7456,-1.7216,-1.7209,-1.7279,-1.7379,-1.7334,-1.7334,-1.7744,-1.8158,-1.8555,-1.8429,-1.8631,-1.8879,-1.8212,-1.7833,-1.7767,-1.7456,-1.7334,-1.7296,-1.7374,-1.7222,-1.714,-1.7195,-1.7349,-1.7412,-1.748,-1.7705,-1.7988,-1.8008,-1.794,-1.794,-1.7794,-1.7647,-1.7088,-1.6167,-1.5029,-1.4458,-1.3762,-1.3089,-1.262,-1.2412,-1.228,-1.203,-1.1903,-1.1595,-1.1161,-1.0773,-1.0559,-1.0213,-0.9986,-0.9947,-0.9952,-0.9938,-0.9995,-0.9932,-0.9995,-0.9904,-0.9904,-1.0028,-1.0033,-1.0038,-1.0038,-1.0038,-1.0071,-1.0152,-1.0129,-1.0119,-1.0041,-1.0017,-0.9993,-1.0057,-1.0038,-1.0057,-0.9993,-1.0012,-1.0041,-1.0154,-1.0286,-1.0367,-1.0466,-1.0405,-1.023,-1.0121,-1.0036,-1.0038,-1.0038,-1.0005,-0.9762,-0.97,-0.962,-0.9456,-0.945,-0.9384,-0.9456,-0.9649,-0.9751,-0.9919,-0.9889,-0.9908,-0.9723,-0.9644,-0.9559,-0.9513,-0.9615,-0.97,-0.9723,-0.963,-0.9419,-0.8886,-0.8444,-0.8101,-0.7944,-0.7411,-0.7115,-1.7664,-1.7238,-1.7549,-1.7522,-1.7323,-1.7278,-1.7379,-1.7479,-1.7744,-1.8022,-1.8102,-1.8087,-1.821,-1.8201,-1.7701,-1.7557,-1.7434,-1.739,-1.7334,-1.7362,-1.7397,-1.7221,-1.7265,-1.7375,-1.7521,-1.7573,-1.7656,-1.7842,-1.7969,-1.8008,-1.8008,-1.8008,-1.8008,-1.8008,-1.7657,-1.7019,-1.6158,-1.5284,-1.4494,-1.366,-1.3,-1.279,-1.2669,-1.2648,-1.2504,-1.2186,-1.2009,-1.1288,-1.0952,-1.0588,-1.0115,-0.9938,-0.9686,-0.9919,-1.0033,-1.0033,-1.0028,-1.0033,-1.0038,-1.0038,-1.0038,-1.0038,-1.0038,-1.0038,-1.0057,-1.009,-1.0119,-1.0114,-1.0069,-1.0069,-1.0069,-1.0055,-1.0138,-1.0074,-1.0116,-1.0182,-1.0225,-1.0338,-1.0461,-1.0513,-1.0612,-1.0523,-1.0353,-1.0187,-1.0093,-1.0036,-1.0043,-0.996,-1.0043,-0.9889,-0.9852,-0.9776,-0.9762,-0.9705,-0.9729,-0.9847,-0.9876,-0.9957,-0.9923,-0.9965,-0.9763,-0.9679,-0.9563,-0.9616,-0.9734,-0.9715,-0.9705,-0.9633,-0.9589,-0.9248,-0.8807,-0.8372,-0.8021,-0.7489,-0.7092,-1.7619,-1.7254,-1.7511,-1.7534,-1.7334,-1.7278,-1.739,-1.7423,-1.7601,-1.7723,-1.7902,-1.7734,-1.7757,-1.7879,-1.7567,-1.7334,-1.7334,-1.7334,-1.7334,-1.7409,-1.7467,-1.7483,-1.7492,-1.7644,-1.7747,-1.7801,-1.7822,-1.7969,-1.8008,-1.8008,-1.8008,-1.8008,-1.8008,-1.8008,-1.7872,-1.7588,-1.7088,-1.6237,-1.5312,-1.4325,-1.3695,-1.3244,-1.3178,-1.3074,-1.293,-1.2984,-1.2813,-1.177,-1.1326,-1.0804,-1.0351,-0.9899,-0.9781,-0.9894,-1.0033,-1.0038,-1.0038,-1.0038,-1.0038,-1.0038,-1.0038,-1.0043,-1.0047,-1.0038,-1.0038,-1.0052,-1.0057,-1.0057,-1.0064,-1.0135,-1.0149,-1.0164,-1.0187,-1.0216,-1.0301,-1.0386,-1.0485,-1.0594,-1.065,-1.0693,-1.0664,-1.0589,-1.0499,-1.025,-1.0153,-1.0098,-0.999,-0.986,-0.9967,-1.005,-1.0041,-1.0017,-1.0041,-1.0045,-1.0069,-1.005,-1.0031,-1.0086,-0.996,-0.9998,-0.9846,-0.9795,-0.9761,-0.9838,-0.9866,-0.9823,-0.9762,-0.9847,-0.9777,-0.9323,-0.879,-0.8368,-0.7929,-0.7672,-0.7246,-1.7545,-1.7312,-1.7278,-1.7334,-1.7278,-1.7278,-1.7278,-1.7278,-1.7334,-1.754,-1.7824,-1.7597,-1.7663,-1.7849,-1.7652,-1.7422,-1.7367,-1.7334,-1.7434,-1.7534,-1.7582,-1.7646,-1.7749,-1.7905,-1.7947,-1.7959,-1.8008,-1.8008,-1.8008,-1.8008,-1.8008,-1.8008,-1.8008,-1.8008,-1.8008,-1.794,-1.7588,-1.7047,-1.6017,-1.4976,-1.4109,-1.3536,-1.3286,-1.3057,-1.3187,-1.3398,-1.2856,-1.2289,-1.1757,-1.1068,-1.0549,-1.0202,-1.0028,-1.0024,-1.0033,-1.0038,-1.0038,-1.0038,-1.0062,-1.0086,-1.0012,-1.0008,-1.0081,-1.0031,-1.0064,-1.0062,-1.0038,-1.0129,-1.0238,-1.0291,-1.0338,-1.0414,-1.0461,-1.0466,-1.0508,-1.0575,-1.0645,-1.0768,-1.0882,-1.0915,-1.0901,-1.0806,-1.0645,-1.0482,-1.0389,-1.0208,-1.0126,-0.9874,-1.0013,-1.022,-1.0211,-1.0239,-1.0338,-1.0353,-1.0267,-1.0249,-1.0216,-1.0168,-1.0116,-1.0116,-1.0112,-1.0014,-1.0038,-1.0019,-0.9913,-0.9894,-0.9871,-0.9918,-0.9643,-0.8966,-0.8455,-0.8165,-0.7837,-0.7584,-0.733,-1.7379,-1.7278,-1.7278,-1.7278,-1.7278,-1.7278,-1.7278,-1.7278,-1.7278,-1.7551,-1.7912,-1.789,-1.7835,-1.7868,-1.7849,-1.7687,-1.7467,-1.749,-1.7534,-1.7665,-1.7765,-1.7873,-1.7947,-1.8021,-1.8007,-1.8008,-1.8008,-1.8008,-1.8008,-1.8008,-1.8008,-1.8008,-1.8008,-1.8008,-1.8008,-1.8008,-1.7872,-1.7657,-1.6959,-1.5854,-1.4891,-1.4565,-1.4381,-1.3824,-1.3774,-1.3921,-1.3464,-1.3068,-1.2443,-1.1757,-1.1154,-1.0554,-1.0038,-1.0038,-1.0038,-1.0038,-1.0038,-1.0047,-1.01,-1.0093,-1.0159,-1.0239,-1.0272,-1.0267,-1.0211,-1.0045,-1.0105,-1.0224,-1.0381,-1.0447,-1.056,-1.0562,-1.0637,-1.0726,-1.0726,-1.0768,-1.0816,-1.0948,-1.1094,-1.1109,-1.1113,-1.0995,-1.0825,-1.0669,-1.0665,-1.052,-1.0276,-1.0192,-1.0309,-1.0452,-1.039,-1.0438,-1.065,-1.0664,-1.0542,-1.0428,-1.039,-1.0405,-1.0381,-1.0381,-1.0299,-1.0197,-1.0109,-1.0057,-1.0024,-0.9913,-0.9894,-0.9899,-0.9516,-0.8759,-0.8352,-0.8086,-0.7753,-0.7411,-0.7236,-1.7323,-1.7278,-1.7278,-1.7278,-1.7278,-1.7278,-1.7278,-1.7278,-1.7278,-1.7608,-1.8016,-1.7906,-1.7796,-1.7796,-1.7842,-1.7833,-1.7612,-1.7601,-1.77,-1.7812,-1.7965,-1.8012,-1.8081,-1.8117,-1.8063,-1.8076,-1.8008,-1.8008,-1.8008,-1.8008,-1.8008,-1.8027,-1.8027,-1.8027,-1.8027,-1.8018,-1.8008,-1.8008,-1.7676,-1.699,-1.5939,-1.5721,-1.5113,-1.4448,-1.4296,-1.4378,-1.3913,-1.3411,-1.2789,-1.1978,-1.1159,-1.0537,-1.0076,-1.0038,-1.0038,-1.0038,-1.0047,-1.0081,-1.0093,-1.0206,-1.0334,-1.0428,-1.048,-1.0452,-1.0414,-1.0267,-1.0168,-1.0391,-1.0767,-1.0863,-1.0816,-1.0872,-1.0948,-1.0976,-1.0981,-1.1009,-1.1028,-1.1085,-1.1156,-1.1156,-1.1058,-1.0933,-1.072,-1.0522,-1.0491,-1.0342,-1.0204,-1.0374,-1.0579,-1.066,-1.0603,-1.0622,-1.082,-1.0872,-1.0749,-1.0631,-1.0551,-1.0575,-1.0631,-1.0612,-1.0473,-1.0296,-1.0097,-1.0093,-1.0031,-1.0005,-0.9904,-0.9749,-0.9365,-0.8702,-0.8396,-0.8197,-0.7764,-0.7323,-0.7183,-1.7379,-1.7334,-1.7278,-1.7278,-1.7334,-1.7334,-1.7323,-1.7334,-1.7334,-1.7666,-1.7999,-1.7723,-1.7568,-1.7668,-1.7734,-1.7745,-1.7711,-1.7755,-1.7799,-1.807,-1.8283,-1.8394,-1.8407,-1.8379,-1.8208,-1.8076,-1.8008,-1.8008,-1.8008,-1.8096,-1.8174,-1.8105,-1.8096,-1.8096,-1.8008,-1.8037,-1.8047,-1.8242,-1.8172,-1.8057,-1.7505,-1.691,-1.585,-1.527,-1.4986,-1.481,-1.4159,-1.3566,-1.2984,-1.219,-1.1373,-1.0548,-1.0095,-1.0038,-1.0038,-1.0043,-1.0045,-1.0126,-1.0234,-1.0357,-1.048,-1.0575,-1.0612,-1.0627,-1.0603,-1.056,-1.0461,-1.0575,-1.0948,-1.1094,-1.1047,-1.1042,-1.1118,-1.1161,-1.1175,-1.1179,-1.1184,-1.1189,-1.1189,-1.1194,-1.1091,-1.089,-1.0792,-1.0498,-1.0422,-1.0285,-1.0283,-1.04,-1.0641,-1.0787,-1.0792,-1.083,-1.0957,-1.0962,-1.0924,-1.0858,-1.0768,-1.0816,-1.0868,-1.074,-1.0641,-1.0475,-1.031,-1.0097,-1.0023,-0.9879,-0.963,-0.9454,-0.9056,-0.8562,-0.8325,-0.8013,-0.7584,-0.7231,-0.7143,-1.7323,-1.7278,-1.7278,-1.7278,-1.7334,-1.7434,-1.7479,-1.7479,-1.7601,-1.7723,-1.7779,-1.789,-1.7924,-1.8215,-1.8226,-1.8171,-1.7854,-1.7865,-1.8171,-1.8441,-1.8511,-1.8718,-1.868,-1.8557,-1.8277,-1.8163,-1.8037,-1.8027,-1.8144,-1.8369,-1.8426,-1.8467,-1.8477,-1.8298,-1.8072,-1.8103,-1.836,-1.8606,-1.8723,-1.8557,-1.8648,-1.7908,-1.6698,-1.6108,-1.5591,-1.4977,-1.4375,-1.4236,-1.3815,-1.3085,-1.1943,-1.0858,-1.0304,-1.0062,-1.0081,-1.0041,-1.013,-1.0263,-1.0381,-1.057,-1.0716,-1.082,-1.0872,-1.0929,-1.0924,-1.0948,-1.0863,-1.0792,-1.1052,-1.1146,-1.1132,-1.1132,-1.1184,-1.1184,-1.1189,-1.1189,-1.1189,-1.1194,-1.1194,-1.1194,-1.1194,-1.1091,-1.0993,-1.0895,-1.0895,-1.0766,-1.0679,-1.0815,-1.0875,-1.0981,-1.0967,-1.1023,-1.1094,-1.1137,-1.1132,-1.1094,-1.1038,-1.1085,-1.1075,-1.0995,-1.0863,-1.0664,-1.0445,-1.0131,-0.9817,-0.958,-0.9433,-0.911,-0.8828,-0.8428,-0.807,-0.7735,-0.7309,-0.7139,-0.7139]}]]